Wetterdaten: Samstag, 11.03.2017
Datum Zeit Temp. A. Feuchte A. Luftdruck Regen Wind Richtung Richtung Sonnenschein ET UV Solar Taupunkt Windchill Windben Empfang
11.03.2017 00:00 4,3 C 79 % 1026,0 hPa 0,0 l/m 7,4 km/h (2 Bft) W-SW 258 0 min 0,000 mm 0,0 UV-I 0 W/m 1,0 C 3,4 C 11,3 km/h (2 Bft) 93,62 %
11.03.2017 00:02 4,3 C 79 % 1025,9 hPa 0,0 l/m 8,0 km/h (2 Bft) W-SW 257 0 min 0,000 mm 0,0 UV-I 0 W/m 1,0 C 2,9 C 8,0 km/h (2 Bft) 91,49 %
11.03.2017 00:04 4,2 C 79 % 1025,9 hPa 0,0 l/m 8,2 km/h (2 Bft) W-SW 250 0 min 0,000 mm 0,0 UV-I 0 W/m 0,9 C 2,6 C 11,3 km/h (2 Bft) 87,50 %
11.03.2017 00:06 4,2 C 79 % 1026,0 hPa 0,0 l/m 6,4 km/h (2 Bft) W-SW 256 0 min 0,000 mm 0,0 UV-I 0 W/m 0,9 C 4,2 C 9,7 km/h (2 Bft) 96,77 %
11.03.2017 00:08 4,1 C 79 % 1026,0 hPa 0,0 l/m 5,8 km/h (2 Bft) W-SW 256 0 min 0,000 mm 0,0 UV-I 0 W/m 0,8 C 4,1 C 6,4 km/h (2 Bft) 93,62 %
11.03.2017 00:10 4,1 C 79 % 1025,9 hPa 0,0 l/m 5,7 km/h (1 Bft) W 263 0 min 0,000 mm 0,0 UV-I 0 W/m 0,8 C 4,1 C 9,7 km/h (2 Bft) 91,49 %
11.03.2017 00:12 4,0 C 80 % 1025,9 hPa 0,0 l/m 7,0 km/h (2 Bft) W-SW 255 0 min 0,000 mm 0,0 UV-I 0 W/m 0,9 C 3,5 C 12,9 km/h (3 Bft) 96,00 %
11.03.2017 00:14 3,9 C 80 % 1025,9 hPa 0,0 l/m 6,6 km/h (2 Bft) W-SW 257 0 min 0,000 mm 0,0 UV-I 0 W/m 0,8 C 3,7 C 9,7 km/h (2 Bft) 97,92 %
11.03.2017 00:16 3,9 C 80 % 1026,0 hPa 0,0 l/m 6,8 km/h (2 Bft) W-SW 248 0 min 0,000 mm 0,0 UV-I 0 W/m 0,8 C 3,5 C 9,7 km/h (2 Bft) 94,00 %
11.03.2017 00:18 3,9 C 80 % 1025,9 hPa 0,0 l/m 8,4 km/h (2 Bft) W-SW 243 0 min 0,000 mm 0,0 UV-I 0 W/m 0,8 C 2,1 C 12,9 km/h (3 Bft) 95,74 %
11.03.2017 00:20 3,9 C 80 % 1025,9 hPa 0,0 l/m 6,9 km/h (2 Bft) SW 234 0 min 0,000 mm 0,0 UV-I 0 W/m 0,8 C 3,4 C 12,9 km/h (3 Bft) 97,87 %
11.03.2017 00:22 3,8 C 80 % 1025,9 hPa 0,0 l/m 6,5 km/h (2 Bft) W-SW 238 0 min 0,000 mm 0,0 UV-I 0 W/m 0,7 C 3,7 C 9,7 km/h (2 Bft) 97,14 %
11.03.2017 00:24 3,8 C 80 % 1025,9 hPa 0,0 l/m 6,1 km/h (2 Bft) SW 234 0 min 0,000 mm 0,0 UV-I 0 W/m 0,7 C 3,8 C 8,0 km/h (2 Bft) 89,36 %
11.03.2017 00:26 3,8 C 80 % 1025,9 hPa 0,0 l/m 7,3 km/h (2 Bft) SW 235 0 min 0,000 mm 0,0 UV-I 0 W/m 0,7 C 3,0 C 9,7 km/h (2 Bft) 97,87 %
11.03.2017 00:28 3,7 C 80 % 1025,9 hPa 0,0 l/m 7,6 km/h (2 Bft) SW 230 0 min 0,000 mm 0,0 UV-I 0 W/m 0,6 C 2,6 C 9,7 km/h (2 Bft) 93,62 %
11.03.2017 00:30 3,7 C 81 % 1025,9 hPa 0,0 l/m 7,2 km/h (2 Bft) SW 227 0 min 0,000 mm 0,0 UV-I 0 W/m 0,7 C 3,0 C 9,7 km/h (2 Bft) 93,62 %
11.03.2017 00:32 3,6 C 81 % 1025,8 hPa 0,0 l/m 5,5 km/h (1 Bft) SW 219 0 min 0,000 mm 0,0 UV-I 0 W/m 0,7 C 3,6 C 8,0 km/h (2 Bft) 95,74 %
11.03.2017 00:34 3,6 C 81 % 1025,8 hPa 0,0 l/m 6,2 km/h (2 Bft) W-SW 246 0 min 0,000 mm 0,0 UV-I 0 W/m 0,7 C 3,6 C 9,7 km/h (2 Bft) 95,74 %
11.03.2017 00:36 3,5 C 82 % 1025,9 hPa 0,0 l/m 6,1 km/h (2 Bft) W-SW 241 0 min 0,000 mm 0,0 UV-I 0 W/m 0,7 C 3,5 C 9,7 km/h (2 Bft) 91,49 %
11.03.2017 00:38 3,4 C 82 % 1025,9 hPa 0,0 l/m 6,3 km/h (2 Bft) W-SW 238 0 min 0,000 mm 0,0 UV-I 0 W/m 0,6 C 3,4 C 9,7 km/h (2 Bft) 97,87 %
11.03.2017 00:40 3,4 C 82 % 1025,9 hPa 0,0 l/m 7,3 km/h (2 Bft) W-SW 244 0 min 0,000 mm 0,0 UV-I 0 W/m 0,6 C 2,6 C 9,7 km/h (2 Bft) 93,62 %
11.03.2017 00:42 3,3 C 82 % 1025,9 hPa 0,0 l/m 6,3 km/h (2 Bft) SW 214 0 min 0,000 mm 0,0 UV-I 0 W/m 0,5 C 3,3 C 9,7 km/h (2 Bft) 95,74 %
11.03.2017 00:44 3,3 C 83 % 1025,9 hPa 0,0 l/m 7,5 km/h (2 Bft) SW 227 0 min 0,000 mm 0,0 UV-I 0 W/m 0,7 C 2,3 C 11,3 km/h (2 Bft) 93,62 %
11.03.2017 00:46 3,2 C 83 % 1025,9 hPa 0,0 l/m 8,1 km/h (2 Bft) S-SW 212 0 min 0,000 mm 0,0 UV-I 0 W/m 0,6 C 1,6 C 11,3 km/h (2 Bft) 93,62 %
11.03.2017 00:48 3,2 C 83 % 1025,9 hPa 0,0 l/m 7,4 km/h (2 Bft) SW 232 0 min 0,000 mm 0,0 UV-I 0 W/m 0,6 C 2,3 C 11,3 km/h (2 Bft) 96,00 %
11.03.2017 00:50 3,2 C 83 % 1025,9 hPa 0,0 l/m 6,6 km/h (2 Bft) SW 232 0 min 0,000 mm 0,0 UV-I 0 W/m 0,6 C 3,0 C 9,7 km/h (2 Bft) 96,00 %
11.03.2017 00:52 3,2 C 83 % 1025,9 hPa 0,0 l/m 8,9 km/h (2 Bft) SW 234 0 min 0,000 mm 0,0 UV-I 0 W/m 0,6 C 0,9 C 14,5 km/h (3 Bft) 94,87 %
11.03.2017 00:54 3,1 C 83 % 1025,9 hPa 0,0 l/m 9,8 km/h (2 Bft) S-SW 209 0 min 0,000 mm 0,0 UV-I 0 W/m 0,5 C 0,1 C 12,9 km/h (3 Bft) 95,92 %
11.03.2017 00:56 3,1 C 83 % 1025,9 hPa 0,0 l/m 9,6 km/h (2 Bft) SW 234 0 min 0,000 mm 0,0 UV-I 0 W/m 0,5 C 0,3 C 14,5 km/h (3 Bft) 93,62 %
11.03.2017 00:58 3,1 C 83 % 1025,9 hPa 0,0 l/m 10,1 km/h (2 Bft) SW 232 0 min 0,000 mm 0,0 UV-I 0 W/m 0,5 C -0,1 C 14,5 km/h (3 Bft) 95,74 %
11.03.2017 01:00 3,1 C 83 % 1025,9 hPa 0,0 l/m 9,8 km/h (2 Bft) SW 230 0 min 0,025 mm 0,0 UV-I 0 W/m 0,5 C 0,1 C 14,5 km/h (3 Bft) 96,23 %
11.03.2017 01:02 3,1 C 84 % 1026,0 hPa 0,0 l/m 8,6 km/h (2 Bft) SW 223 0 min 0,000 mm 0,0 UV-I 0 W/m 0,7 C 1,1 C 14,5 km/h (3 Bft) 92,11 %
11.03.2017 01:04 3,1 C 84 % 1026,0 hPa 0,0 l/m 9,3 km/h (2 Bft) W-SW 247 0 min 0,000 mm 0,0 UV-I 0 W/m 0,7 C 0,5 C 14,5 km/h (3 Bft) 94,34 %
11.03.2017 01:06 3,1 C 84 % 1026,0 hPa 0,0 l/m 8,9 km/h (2 Bft) W-SW 248 0 min 0,000 mm 0,0 UV-I 0 W/m 0,7 C 0,8 C 14,5 km/h (3 Bft) 96,00 %
11.03.2017 01:08 3,1 C 84 % 1026,0 hPa 0,0 l/m 9,7 km/h (2 Bft) W-SW 241 0 min 0,000 mm 0,0 UV-I 0 W/m 0,7 C 0,2 C 12,9 km/h (3 Bft) 97,87 %
11.03.2017 01:10 3,1 C 84 % 1026,0 hPa 0,0 l/m 10,5 km/h (2 Bft) W-SW 255 0 min 0,000 mm 0,0 UV-I 0 W/m 0,7 C -0,4 C 14,5 km/h (3 Bft) 97,87 %
11.03.2017 01:12 3,2 C 83 % 1026,0 hPa 0,0 l/m 8,8 km/h (2 Bft) W-SW 253 0 min 0,000 mm 0,0 UV-I 0 W/m 0,6 C 1,0 C 12,9 km/h (3 Bft) 97,22 %
11.03.2017 01:14 3,2 C 83 % 1026,1 hPa 0,0 l/m 9,8 km/h (2 Bft) W-SW 252 0 min 0,000 mm 0,0 UV-I 0 W/m 0,6 C 0,2 C 16,1 km/h (3 Bft) 97,87 %
11.03.2017 01:16 3,3 C 83 % 1026,1 hPa 0,0 l/m 8,4 km/h (2 Bft) W-SW 244 0 min 0,000 mm 0,0 UV-I 0 W/m 0,7 C 1,5 C 12,9 km/h (3 Bft) 91,49 %
11.03.2017 01:18 3,3 C 83 % 1026,1 hPa 0,0 l/m 7,5 km/h (2 Bft) W-SW 243 0 min 0,000 mm 0,0 UV-I 0 W/m 0,7 C 2,3 C 11,3 km/h (2 Bft) 98,00 %
11.03.2017 01:20 3,3 C 83 % 1026,1 hPa 0,0 l/m 8,0 km/h (2 Bft) W-SW 246 0 min 0,000 mm 0,0 UV-I 0 W/m 0,7 C 1,8 C 11,3 km/h (2 Bft) 91,49 %
11.03.2017 01:22 3,3 C 83 % 1026,2 hPa 0,0 l/m 7,5 km/h (2 Bft) W 275 0 min 0,000 mm 0,0 UV-I 0 W/m 0,7 C 2,3 C 12,9 km/h (3 Bft) 93,62 %
11.03.2017 01:24 3,2 C 83 % 1026,3 hPa 0,0 l/m 8,3 km/h (2 Bft) W 278 0 min 0,000 mm 0,0 UV-I 0 W/m 0,6 C 1,5 C 14,5 km/h (3 Bft) 93,62 %
11.03.2017 01:26 3,2 C 83 % 1026,4 hPa 0,0 l/m 6,0 km/h (2 Bft) N-NO 28 0 min 0,000 mm 0,0 UV-I 0 W/m 0,6 C 3,2 C 14,5 km/h (3 Bft) 95,74 %
11.03.2017 01:28 3,1 C 84 % 1026,5 hPa 0,0 l/m 5,4 km/h (1 Bft) N-NO 32 0 min 0,000 mm 0,0 UV-I 0 W/m 0,7 C 3,1 C 12,9 km/h (3 Bft) 97,87 %
11.03.2017 01:30 3,1 C 84 % 1026,5 hPa 0,0 l/m 3,4 km/h (1 Bft) N-NO 16 0 min 0,000 mm 0,0 UV-I 0 W/m 0,7 C 3,1 C 8,0 km/h (2 Bft) 95,83 %
11.03.2017 01:32 3,0 C 85 % 1026,5 hPa 0,0 l/m 3,7 km/h (1 Bft) N-NW 338 0 min 0,000 mm 0,0 UV-I 0 W/m 0,7 C 3,0 C 8,0 km/h (2 Bft) 91,49 %
11.03.2017 01:34 3,0 C 85 % 1026,4 hPa 0,0 l/m 3,9 km/h (1 Bft) N-NO 12 0 min 0,000 mm 0,0 UV-I 0 W/m 0,7 C 3,0 C 8,0 km/h (2 Bft) 97,56 %
11.03.2017 01:36 3,1 C 85 % 1026,4 hPa 0,0 l/m 2,4 km/h (1 Bft) W-NW 297 0 min 0,000 mm 0,0 UV-I 0 W/m 0,8 C 3,1 C 6,4 km/h (2 Bft) 97,87 %
11.03.2017 01:38 3,1 C 85 % 1026,4 hPa 0,0 l/m 10,2 km/h (2 Bft) W 262 0 min 0,000 mm 0,0 UV-I 0 W/m 0,8 C -0,2 C 16,1 km/h (3 Bft) 97,87 %
11.03.2017 01:40 3,2 C 85 % 1026,3 hPa 0,0 l/m 7,5 km/h (2 Bft) W 276 0 min 0,000 mm 0,0 UV-I 0 W/m 0,9 C 2,2 C 14,5 km/h (3 Bft) 100,00 %
11.03.2017 01:42 3,3 C 84 % 1026,5 hPa 0,0 l/m 1,8 km/h (1 Bft) NW 323 0 min 0,000 mm 0,0 UV-I 0 W/m 0,9 C 3,3 C 4,8 km/h (1 Bft) 98,00 %
11.03.2017 01:44 3,2 C 84 % 1026,5 hPa 0,0 l/m 1,9 km/h (1 Bft) N 5 0 min 0,000 mm 0,0 UV-I 0 W/m 0,8 C 3,2 C 4,8 km/h (1 Bft) 97,87 %
11.03.2017 01:46 3,0 C 84 % 1026,5 hPa 0,0 l/m 2,7 km/h (1 Bft) N-NO 13 0 min 0,000 mm 0,0 UV-I 0 W/m 0,6 C 3,0 C 4,8 km/h (1 Bft) 97,87 %
11.03.2017 01:48 2,9 C 85 % 1026,4 hPa 0,0 l/m 1,6 km/h (1 Bft) N 5 0 min 0,000 mm 0,0 UV-I 0 W/m 0,6 C 2,9 C 3,2 km/h (1 Bft) 95,74 %
11.03.2017 01:50 2,9 C 85 % 1026,3 hPa 0,0 l/m 3,3 km/h (1 Bft) W-SW 243 0 min 0,000 mm 0,0 UV-I 0 W/m 0,6 C 2,9 C 6,4 km/h (2 Bft) 96,00 %
11.03.2017 01:52 2,9 C 84 % 1026,4 hPa 0,0 l/m 4,1 km/h (1 Bft) W-SW 242 0 min 0,000 mm 0,0 UV-I 0 W/m 0,5 C 2,9 C 4,8 km/h (1 Bft) 100,00 %
11.03.2017 01:54 3,0 C 84 % 1026,4 hPa 0,0 l/m 4,2 km/h (1 Bft) W-SW 242 0 min 0,000 mm 0,0 UV-I 0 W/m 0,6 C 3,0 C 6,4 km/h (2 Bft) 97,87 %
11.03.2017 01:56 2,9 C 84 % 1026,4 hPa 0,0 l/m 3,8 km/h (1 Bft) W-SW 242 0 min 0,000 mm 0,0 UV-I 0 W/m 0,5 C 2,9 C 4,8 km/h (1 Bft) 100,00 %
11.03.2017 01:58 2,9 C 84 % 1026,3 hPa 0,0 l/m 3,0 km/h (1 Bft) W-SW 242 0 min 0,000 mm 0,0 UV-I 0 W/m 0,5 C 2,9 C 4,8 km/h (1 Bft) 100,00 %
11.03.2017 02:00 2,8 C 85 % 1026,3 hPa 0,0 l/m 1,6 km/h (1 Bft) W-SW 242 0 min 0,000 mm 0,0 UV-I 0 W/m 0,5 C 2,8 C 3,2 km/h (1 Bft) 97,87 %
11.03.2017 02:02 2,6 C 84 % 1026,3 hPa 0,0 l/m 2,4 km/h (1 Bft) W-SW 242 0 min 0,000 mm 0,0 UV-I 0 W/m 0,2 C 2,6 C 3,2 km/h (1 Bft) 97,37 %
11.03.2017 02:04 2,4 C 85 % 1026,3 hPa 0,0 l/m 2,1 km/h (1 Bft) W-SW 242 0 min 0,000 mm 0,0 UV-I 0 W/m 0,1 C 2,4 C 3,2 km/h (1 Bft) 97,87 %
11.03.2017 02:06 2,4 C 86 % 1026,3 hPa 0,0 l/m 2,0 km/h (1 Bft) W-SW 242 0 min 0,000 mm 0,0 UV-I 0 W/m 0,3 C 2,4 C 3,2 km/h (1 Bft) 100,00 %
11.03.2017 02:08 2,4 C 86 % 1026,3 hPa 0,0 l/m 4,1 km/h (1 Bft) W-SW 242 0 min 0,000 mm 0,0 UV-I 0 W/m 0,3 C 2,4 C 4,8 km/h (1 Bft) 95,74 %
11.03.2017 02:10 2,3 C 86 % 1026,3 hPa 0,0 l/m 3,9 km/h (1 Bft) W-SW 242 0 min 0,000 mm 0,0 UV-I 0 W/m 0,2 C 2,3 C 4,8 km/h (1 Bft) 95,74 %
11.03.2017 02:12 2,2 C 86 % 1026,3 hPa 0,0 l/m 3,7 km/h (1 Bft) W-SW 242 0 min 0,000 mm 0,0 UV-I 0 W/m 0,1 C 2,2 C 4,8 km/h (1 Bft) 100,00 %
11.03.2017 02:14 2,2 C 86 % 1026,2 hPa 0,0 l/m 2,5 km/h (1 Bft) W-SW 242 0 min 0,000 mm 0,0 UV-I 0 W/m 0,1 C 2,2 C 6,4 km/h (2 Bft) 97,87 %
11.03.2017 02:16 2,0 C 86 % 1026,2 hPa 0,0 l/m 0,2 km/h (0 Bft) W-SW 242 0 min 0,000 mm 0,0 UV-I 0 W/m -0,1 C 2,0 C 1,6 km/h (1 Bft) 97,87 %
11.03.2017 02:18 1,9 C 87 % 1026,2 hPa 0,0 l/m 1,5 km/h (1 Bft) W-SW 242 0 min 0,000 mm 0,0 UV-I 0 W/m -0,0 C 1,9 C 3,2 km/h (1 Bft) 97,56 %
11.03.2017 02:20 1,8 C 87 % 1026,2 hPa 0,0 l/m 2,2 km/h (1 Bft) W-SW 242 0 min 0,000 mm 0,0 UV-I 0 W/m -0,1 C 1,8 C 4,8 km/h (1 Bft) 97,87 %
11.03.2017 02:22 1,7 C 87 % 1026,2 hPa 0,0 l/m 2,3 km/h (1 Bft) W-SW 242 0 min 0,000 mm 0,0 UV-I 0 W/m -0,2 C 1,7 C 3,2 km/h (1 Bft) 93,62 %
11.03.2017 02:24 1,6 C 88 % 1026,1 hPa 0,0 l/m 2,1 km/h (1 Bft) W-SW 242 0 min 0,000 mm 0,0 UV-I 0 W/m -0,2 C 1,6 C 3,2 km/h (1 Bft) 97,87 %
11.03.2017 02:26 1,6 C 88 % 1026,1 hPa 0,0 l/m 2,7 km/h (1 Bft) W-SW 242 0 min 0,000 mm 0,0 UV-I 0 W/m -0,2 C 1,6 C 3,2 km/h (1 Bft) 97,87 %
11.03.2017 02:28 1,5 C 88 % 1026,1 hPa 0,0 l/m 2,8 km/h (1 Bft) W-SW 242 0 min 0,000 mm 0,0 UV-I 0 W/m -0,3 C 1,5 C 4,8 km/h (1 Bft) 97,87 %
11.03.2017 02:30 1,4 C 88 % 1026,1 hPa 0,0 l/m 1,4 km/h (1 Bft) W-SW 242 0 min 0,000 mm 0,0 UV-I 0 W/m -0,4 C 1,4 C 3,2 km/h (1 Bft) 100,00 %
11.03.2017 02:32 1,4 C 89 % 1026,1 hPa 0,0 l/m 1,9 km/h (1 Bft) W-SW 242 0 min 0,000 mm 0,0 UV-I 0 W/m -0,2 C 1,4 C 3,2 km/h (1 Bft) 97,87 %
11.03.2017 02:34 1,4 C 88 % 1026,0 hPa 0,0 l/m 3,1 km/h (1 Bft) W-SW 241 0 min 0,000 mm 0,0 UV-I 0 W/m -0,4 C 1,4 C 4,8 km/h (1 Bft) 97,87 %
11.03.2017 02:36 1,3 C 89 % 1026,0 hPa 0,0 l/m 2,1 km/h (1 Bft) W-SW 241 0 min 0,000 mm 0,0 UV-I 0 W/m -0,3 C 1,3 C 3,2 km/h (1 Bft) 100,00 %
11.03.2017 02:38 1,2 C 88 % 1026,0 hPa 0,0 l/m 2,7 km/h (1 Bft) W-SW 241 0 min 0,000 mm 0,0 UV-I 0 W/m -0,6 C 1,2 C 4,8 km/h (1 Bft) 93,62 %
11.03.2017 02:40 1,2 C 89 % 1026,0 hPa 0,0 l/m 2,2 km/h (1 Bft) W-SW 240 0 min 0,000 mm 0,0 UV-I 0 W/m -0,4 C 1,2 C 4,8 km/h (1 Bft) 100,00 %
11.03.2017 02:42 1,3 C 89 % 1026,0 hPa 0,0 l/m 1,7 km/h (1 Bft) SW 236 0 min 0,000 mm 0,0 UV-I 0 W/m -0,3 C 1,3 C 3,2 km/h (1 Bft) 97,87 %
11.03.2017 02:44 1,3 C 89 % 1026,0 hPa 0,0 l/m 1,3 km/h (1 Bft) SW 221 0 min 0,000 mm 0,0 UV-I 0 W/m -0,3 C 1,3 C 3,2 km/h (1 Bft) 100,00 %
11.03.2017 02:46 1,3 C 89 % 1026,1 hPa 0,0 l/m 1,6 km/h (1 Bft) S-SW 213 0 min 0,000 mm 0,0 UV-I 0 W/m -0,3 C 1,3 C 3,2 km/h (1 Bft) 100,00 %
11.03.2017 02:48 1,3 C 89 % 1026,1 hPa 0,0 l/m 0,9 km/h (0 Bft) S 191 0 min 0,000 mm 0,0 UV-I 0 W/m -0,3 C 1,3 C 3,2 km/h (1 Bft) 100,00 %
11.03.2017 02:50 1,4 C 89 % 1026,1 hPa 0,0 l/m 1,4 km/h (1 Bft) S 188 0 min 0,000 mm 0,0 UV-I 0 W/m -0,2 C 1,4 C 3,2 km/h (1 Bft) 100,00 %
11.03.2017 02:52 1,4 C 89 % 1026,0 hPa 0,0 l/m 1,0 km/h (0 Bft) S 188 0 min 0,000 mm 0,0 UV-I 0 W/m -0,2 C 1,4 C 3,2 km/h (1 Bft) 100,00 %
11.03.2017 02:54 1,6 C 89 % 1026,0 hPa 0,0 l/m 2,3 km/h (1 Bft) S 188 0 min 0,000 mm 0,0 UV-I 0 W/m -0,0 C 1,6 C 3,2 km/h (1 Bft) 98,00 %
11.03.2017 02:56 1,6 C 89 % 1026,0 hPa 0,0 l/m 4,5 km/h (1 Bft) S 170 0 min 0,000 mm 0,0 UV-I 0 W/m -0,0 C 1,6 C 8,0 km/h (2 Bft) 97,87 %
11.03.2017 02:58 1,7 C 88 % 1026,0 hPa 0,0 l/m 2,9 km/h (1 Bft) S 170 0 min 0,000 mm 0,0 UV-I 0 W/m -0,1 C 1,7 C 6,4 km/h (2 Bft) 95,74 %
11.03.2017 03:00 1,7 C 88 % 1026,1 hPa 0,0 l/m 3,4 km/h (1 Bft) S 170 0 min 0,000 mm 0,0 UV-I 0 W/m -0,1 C 1,7 C 8,0 km/h (2 Bft) 98,00 %
11.03.2017 03:02 1,7 C 88 % 1026,1 hPa 0,0 l/m 2,9 km/h (1 Bft) S 170 0 min 0,000 mm 0,0 UV-I 0 W/m -0,1 C 1,7 C 6,4 km/h (2 Bft) 97,87 %
11.03.2017 03:04 1,7 C 88 % 1026,1 hPa 0,0 l/m 2,1 km/h (1 Bft) S 170 0 min 0,000 mm 0,0 UV-I 0 W/m -0,1 C 1,7 C 3,2 km/h (1 Bft) 95,74 %
11.03.2017 03:06 1,7 C 87 % 1026,1 hPa 0,0 l/m 2,3 km/h (1 Bft) S 170 0 min 0,000 mm 0,0 UV-I 0 W/m -0,2 C 1,7 C 6,4 km/h (2 Bft) 100,00 %
11.03.2017 03:08 1,6 C 88 % 1026,2 hPa 0,0 l/m 3,8 km/h (1 Bft) S 170 0 min 0,000 mm 0,0 UV-I 0 W/m -0,2 C 1,6 C 6,4 km/h (2 Bft) 98,00 %
11.03.2017 03:10 1,6 C 88 % 1026,1 hPa 0,0 l/m 1,8 km/h (1 Bft) S 170 0 min 0,000 mm 0,0 UV-I 0 W/m -0,2 C 1,6 C 6,4 km/h (2 Bft) 95,74 %
11.03.2017 03:12 1,5 C 88 % 1026,1 hPa 0,0 l/m 1,9 km/h (1 Bft) S 170 0 min 0,000 mm 0,0 UV-I 0 W/m -0,3 C 1,5 C 6,4 km/h (2 Bft) 100,00 %
11.03.2017 03:14 1,4 C 88 % 1026,1 hPa 0,0 l/m 2,3 km/h (1 Bft) S 170 0 min 0,000 mm 0,0 UV-I 0 W/m -0,4 C 1,4 C 6,4 km/h (2 Bft) 93,75 %
11.03.2017 03:16 1,3 C 88 % 1026,0 hPa 0,0 l/m 2,1 km/h (1 Bft) S 170 0 min 0,000 mm 0,0 UV-I 0 W/m -0,5 C 1,3 C 6,4 km/h (2 Bft) 97,87 %
11.03.2017 03:18 1,2 C 88 % 1026,1 hPa 0,0 l/m 3,9 km/h (1 Bft) S 170 0 min 0,000 mm 0,0 UV-I 0 W/m -0,6 C 1,2 C 8,0 km/h (2 Bft) 95,74 %
11.03.2017 03:20 1,1 C 88 % 1026,1 hPa 0,0 l/m 4,7 km/h (1 Bft) S 170 0 min 0,000 mm 0,0 UV-I 0 W/m -0,7 C 1,1 C 8,0 km/h (2 Bft) 95,74 %
11.03.2017 03:22 1,1 C 89 % 1026,0 hPa 0,0 l/m 3,6 km/h (1 Bft) S 170 0 min 0,000 mm 0,0 UV-I 0 W/m -0,5 C 1,1 C 6,4 km/h (2 Bft) 94,74 %
11.03.2017 03:24 1,0 C 89 % 1026,1 hPa 0,0 l/m 3,8 km/h (1 Bft) S 170 0 min 0,000 mm 0,0 UV-I 0 W/m -0,6 C 1,0 C 6,4 km/h (2 Bft) 96,00 %
11.03.2017 03:26 0,9 C 89 % 1026,0 hPa 0,0 l/m 2,9 km/h (1 Bft) S 170 0 min 0,000 mm 0,0 UV-I 0 W/m -0,7 C 0,9 C 6,4 km/h (2 Bft) 95,74 %
11.03.2017 03:28 0,9 C 89 % 1026,1 hPa 0,0 l/m 3,0 km/h (1 Bft) S 170 0 min 0,000 mm 0,0 UV-I 0 W/m -0,7 C 0,9 C 6,4 km/h (2 Bft) 93,62 %
11.03.2017 03:30 0,9 C 89 % 1026,0 hPa 0,0 l/m 5,7 km/h (1 Bft) S 170 0 min 0,000 mm 0,0 UV-I 0 W/m -0,7 C 0,9 C 8,0 km/h (2 Bft) 92,00 %
11.03.2017 03:32 0,9 C 90 % 1026,1 hPa 0,0 l/m 4,4 km/h (1 Bft) S 170 0 min 0,000 mm 0,0 UV-I 0 W/m -0,6 C 0,9 C 8,0 km/h (2 Bft) 91,67 %
11.03.2017 03:34 0,8 C 90 % 1026,0 hPa 0,0 l/m 1,3 km/h (1 Bft) S 170 0 min 0,000 mm 0,0 UV-I 0 W/m -0,6 C 0,8 C 3,2 km/h (1 Bft) 95,12 %
11.03.2017 03:36 0,8 C 90 % 1026,1 hPa 0,0 l/m 1,5 km/h (1 Bft) S 170 0 min 0,000 mm 0,0 UV-I 0 W/m -0,6 C 0,8 C 3,2 km/h (1 Bft) 97,87 %
11.03.2017 03:38 0,8 C 90 % 1026,1 hPa 0,0 l/m 1,1 km/h (1 Bft) S 170 0 min 0,000 mm 0,0 UV-I 0 W/m -0,6 C 0,8 C 1,6 km/h (1 Bft) 95,74 %
11.03.2017 03:40 0,8 C 90 % 1026,1 hPa 0,0 l/m 1,3 km/h (1 Bft) S 170 0 min 0,000 mm 0,0 UV-I 0 W/m -0,6 C 0,8 C 1,6 km/h (1 Bft) 97,87 %
11.03.2017 03:42 0,9 C 91 % 1026,1 hPa 0,0 l/m 1,4 km/h (1 Bft) S 170 0 min 0,000 mm 0,0 UV-I 0 W/m -0,4 C 0,9 C 3,2 km/h (1 Bft) 97,87 %
11.03.2017 03:44 1,0 C 91 % 1026,1 hPa 0,0 l/m 2,3 km/h (1 Bft) S 170 0 min 0,000 mm 0,0 UV-I 0 W/m -0,3 C 1,0 C 3,2 km/h (1 Bft) 98,00 %
11.03.2017 03:46 1,1 C 91 % 1026,2 hPa 0,0 l/m 2,0 km/h (1 Bft) S 170 0 min 0,000 mm 0,0 UV-I 0 W/m -0,2 C 1,1 C 3,2 km/h (1 Bft) 97,87 %
11.03.2017 03:48 1,1 C 91 % 1026,2 hPa 0,0 l/m 0,4 km/h (0 Bft) S 170 0 min 0,000 mm 0,0 UV-I 0 W/m -0,2 C 1,1 C 1,6 km/h (1 Bft) 97,87 %
11.03.2017 03:50 1,2 C 90 % 1026,2 hPa 0,0 l/m 0,2 km/h (0 Bft) S 170 0 min 0,000 mm 0,0 UV-I 0 W/m -0,3 C 1,2 C 1,6 km/h (1 Bft) 97,87 %
11.03.2017 03:52 1,3 C 90 % 1026,2 hPa 0,0 l/m 1,9 km/h (1 Bft) S 170 0 min 0,000 mm 0,0 UV-I 0 W/m -0,2 C 1,3 C 6,4 km/h (2 Bft) 100,00 %
11.03.2017 03:54 1,3 C 90 % 1026,1 hPa 0,0 l/m 2,3 km/h (1 Bft) S 170 0 min 0,000 mm 0,0 UV-I 0 W/m -0,2 C 1,3 C 3,2 km/h (1 Bft) 95,74 %
11.03.2017 03:56 1,3 C 90 % 1026,0 hPa 0,0 l/m 3,5 km/h (1 Bft) S 170 0 min 0,000 mm 0,0 UV-I 0 W/m -0,2 C 1,3 C 6,4 km/h (2 Bft) 100,00 %
11.03.2017 03:58 1,2 C 90 % 1026,1 hPa 0,0 l/m 4,2 km/h (1 Bft) S 170 0 min 0,000 mm 0,0 UV-I 0 W/m -0,3 C 1,2 C 6,4 km/h (2 Bft) 93,62 %
11.03.2017 04:00 1,2 C 90 % 1026,0 hPa 0,0 l/m 4,8 km/h (1 Bft) S 171 0 min 0,000 mm 0,0 UV-I 0 W/m -0,3 C 1,2 C 8,0 km/h (2 Bft) 95,83 %
11.03.2017 04:02 1,2 C 90 % 1026,0 hPa 0,0 l/m 4,1 km/h (1 Bft) S 171 0 min 0,000 mm 0,0 UV-I 0 W/m -0,3 C 1,2 C 8,0 km/h (2 Bft) 96,55 %
11.03.2017 04:04 1,2 C 90 % 1026,0 hPa 0,0 l/m 4,0 km/h (1 Bft) S 171 0 min 0,000 mm 0,0 UV-I 0 W/m -0,3 C 1,2 C 8,0 km/h (2 Bft) 95,74 %
11.03.2017 04:06 1,2 C 90 % 1026,0 hPa 0,0 l/m 3,7 km/h (1 Bft) S 174 0 min 0,000 mm 0,0 UV-I 0 W/m -0,3 C 1,2 C 8,0 km/h (2 Bft) 97,44 %
11.03.2017 04:08 1,2 C 90 % 1026,0 hPa 0,0 l/m 3,9 km/h (1 Bft) S 174 0 min 0,000 mm 0,0 UV-I 0 W/m -0,3 C 1,2 C 8,0 km/h (2 Bft) 94,00 %
11.03.2017 04:10 1,2 C 90 % 1026,1 hPa 0,0 l/m 3,6 km/h (1 Bft) S 175 0 min 0,000 mm 0,0 UV-I 0 W/m -0,3 C 1,2 C 6,4 km/h (2 Bft) 91,49 %
11.03.2017 04:12 1,2 C 90 % 1026,0 hPa 0,0 l/m 5,1 km/h (1 Bft) S 175 0 min 0,000 mm 0,0 UV-I 0 W/m -0,3 C 1,2 C 6,4 km/h (2 Bft) 95,74 %
11.03.2017 04:14 1,2 C 90 % 1026,0 hPa 0,0 l/m 5,0 km/h (1 Bft) S 176 0 min 0,000 mm 0,0 UV-I 0 W/m -0,3 C 1,2 C 6,4 km/h (2 Bft) 97,87 %
11.03.2017 04:16 1,2 C 90 % 1026,0 hPa 0,0 l/m 4,7 km/h (1 Bft) SW 223 0 min 0,000 mm 0,0 UV-I 0 W/m -0,3 C 1,2 C 8,0 km/h (2 Bft) 97,87 %
11.03.2017 04:18 1,2 C 90 % 1026,0 hPa 0,0 l/m 4,5 km/h (1 Bft) SW 214 0 min 0,000 mm 0,0 UV-I 0 W/m -0,3 C 1,2 C 6,4 km/h (2 Bft) 95,74 %
11.03.2017 04:20 1,3 C 90 % 1026,0 hPa 0,0 l/m 4,4 km/h (1 Bft) SW 214 0 min 0,000 mm 0,0 UV-I 0 W/m -0,2 C 1,3 C 6,4 km/h (2 Bft) 95,74 %
11.03.2017 04:22 1,3 C 90 % 1026,0 hPa 0,0 l/m 4,7 km/h (1 Bft) S-SW 213 0 min 0,000 mm 0,0 UV-I 0 W/m -0,2 C 1,3 C 6,4 km/h (2 Bft) 96,00 %
11.03.2017 04:24 1,3 C 90 % 1026,0 hPa 0,0 l/m 3,3 km/h (1 Bft) S-SW 213 0 min 0,000 mm 0,0 UV-I 0 W/m -0,2 C 1,3 C 4,8 km/h (1 Bft) 95,74 %
11.03.2017 04:26 1,3 C 90 % 1026,0 hPa 0,0 l/m 3,8 km/h (1 Bft) S-SW 213 0 min 0,000 mm 0,0 UV-I 0 W/m -0,2 C 1,3 C 6,4 km/h (2 Bft) 95,74 %
11.03.2017 04:28 1,2 C 90 % 1025,9 hPa 0,0 l/m 4,5 km/h (1 Bft) S-SW 213 0 min 0,000 mm 0,0 UV-I 0 W/m -0,3 C 1,2 C 6,4 km/h (2 Bft) 93,62 %
11.03.2017 04:30 1,3 C 90 % 1026,0 hPa 0,0 l/m 4,7 km/h (1 Bft) S-SW 213 0 min 0,000 mm 0,0 UV-I 0 W/m -0,2 C 1,3 C 6,4 km/h (2 Bft) 95,74 %
11.03.2017 04:32 1,3 C 90 % 1026,0 hPa 0,0 l/m 4,0 km/h (1 Bft) S-SW 213 0 min 0,000 mm 0,0 UV-I 0 W/m -0,2 C 1,3 C 6,4 km/h (2 Bft) 93,62 %
11.03.2017 04:34 1,3 C 90 % 1025,9 hPa 0,0 l/m 3,6 km/h (1 Bft) S-SW 213 0 min 0,000 mm 0,0 UV-I 0 W/m -0,2 C 1,3 C 4,8 km/h (1 Bft) 95,74 %
11.03.2017 04:36 1,3 C 90 % 1025,9 hPa 0,0 l/m 3,3 km/h (1 Bft) S-SW 213 0 min 0,000 mm 0,0 UV-I 0 W/m -0,2 C 1,3 C 6,4 km/h (2 Bft) 93,62 %
11.03.2017 04:38 1,2 C 90 % 1025,9 hPa 0,0 l/m 2,8 km/h (1 Bft) S-SW 213 0 min 0,000 mm 0,0 UV-I 0 W/m -0,3 C 1,2 C 6,4 km/h (2 Bft) 95,74 %
11.03.2017 04:40 1,1 C 90 % 1025,8 hPa 0,0 l/m 2,8 km/h (1 Bft) S-SW 213 0 min 0,000 mm 0,0 UV-I 0 W/m -0,4 C 1,1 C 4,8 km/h (1 Bft) 97,87 %
11.03.2017 04:42 1,1 C 90 % 1025,8 hPa 0,0 l/m 3,6 km/h (1 Bft) S-SW 213 0 min 0,000 mm 0,0 UV-I 0 W/m -0,4 C 1,1 C 6,4 km/h (2 Bft) 97,87 %
11.03.2017 04:44 1,0 C 90 % 1025,8 hPa 0,0 l/m 2,5 km/h (1 Bft) S-SW 213 0 min 0,000 mm 0,0 UV-I 0 W/m -0,5 C 1,0 C 4,8 km/h (1 Bft) 95,74 %
11.03.2017 04:46 1,0 C 90 % 1025,8 hPa 0,0 l/m 3,5 km/h (1 Bft) S-SW 213 0 min 0,000 mm 0,0 UV-I 0 W/m -0,5 C 1,0 C 9,7 km/h (2 Bft) 94,74 %
11.03.2017 04:48 1,0 C 91 % 1025,8 hPa 0,0 l/m 6,0 km/h (2 Bft) S-SW 212 0 min 0,000 mm 0,0 UV-I 0 W/m -0,3 C 1,0 C 9,7 km/h (2 Bft) 94,34 %
11.03.2017 04:50 1,0 C 91 % 1025,8 hPa 0,0 l/m 3,8 km/h (1 Bft) S-SW 212 0 min 0,000 mm 0,0 UV-I 0 W/m -0,3 C 1,0 C 6,4 km/h (2 Bft) 95,74 %
11.03.2017 04:52 1,0 C 91 % 1025,8 hPa 0,0 l/m 3,8 km/h (1 Bft) S-SW 212 0 min 0,000 mm 0,0 UV-I 0 W/m -0,3 C 1,0 C 6,4 km/h (2 Bft) 93,75 %
11.03.2017 04:54 0,9 C 90 % 1025,8 hPa 0,0 l/m 4,5 km/h (1 Bft) S-SW 212 0 min 0,000 mm 0,0 UV-I 0 W/m -0,6 C 0,9 C 6,4 km/h (2 Bft) 91,49 %
11.03.2017 04:56 0,8 C 90 % 1025,8 hPa 0,0 l/m 3,9 km/h (1 Bft) S-SW 212 0 min 0,000 mm 0,0 UV-I 0 W/m -0,6 C 0,8 C 6,4 km/h (2 Bft) 97,87 %
11.03.2017 04:58 0,7 C 90 % 1025,8 hPa 0,0 l/m 4,2 km/h (1 Bft) S-SW 212 0 min 0,000 mm 0,0 UV-I 0 W/m -0,7 C 0,7 C 6,4 km/h (2 Bft) 93,62 %
11.03.2017 05:00 0,7 C 91 % 1025,7 hPa 0,0 l/m 3,5 km/h (1 Bft) S-SW 212 0 min 0,000 mm 0,0 UV-I 0 W/m -0,6 C 0,7 C 4,8 km/h (1 Bft) 97,37 %
11.03.2017 05:02 0,6 C 91 % 1025,7 hPa 0,0 l/m 3,6 km/h (1 Bft) S-SW 212 0 min 0,000 mm 0,0 UV-I 0 W/m -0,7 C 0,6 C 4,8 km/h (1 Bft) 97,87 %
11.03.2017 05:04 0,6 C 91 % 1025,7 hPa 0,0 l/m 3,3 km/h (1 Bft) S-SW 212 0 min 0,000 mm 0,0 UV-I 0 W/m -0,7 C 0,6 C 4,8 km/h (1 Bft) 97,87 %
11.03.2017 05:06 0,6 C 91 % 1025,8 hPa 0,0 l/m 2,4 km/h (1 Bft) S-SW 212 0 min 0,000 mm 0,0 UV-I 0 W/m -0,7 C 0,6 C 4,8 km/h (1 Bft) 97,87 %
11.03.2017 05:08 0,5 C 91 % 1025,8 hPa 0,0 l/m 3,3 km/h (1 Bft) S-SW 212 0 min 0,000 mm 0,0 UV-I 0 W/m -0,8 C 0,5 C 6,4 km/h (2 Bft) 95,74 %
11.03.2017 05:10 0,5 C 91 % 1025,7 hPa 0,0 l/m 3,4 km/h (1 Bft) S-SW 212 0 min 0,000 mm 0,0 UV-I 0 W/m -0,8 C 0,5 C 4,8 km/h (1 Bft) 95,74 %
11.03.2017 05:12 0,5 C 91 % 1025,7 hPa 0,0 l/m 4,2 km/h (1 Bft) S-SW 212 0 min 0,000 mm 0,0 UV-I 0 W/m -0,8 C 0,5 C 6,4 km/h (2 Bft) 94,00 %
11.03.2017 05:14 0,4 C 91 % 1025,6 hPa 0,0 l/m 2,8 km/h (1 Bft) S-SW 212 0 min 0,000 mm 0,0 UV-I 0 W/m -0,9 C 0,4 C 4,8 km/h (1 Bft) 93,62 %
11.03.2017 05:16 0,5 C 91 % 1025,6 hPa 0,0 l/m 3,6 km/h (1 Bft) S-SW 212 0 min 0,000 mm 0,0 UV-I 0 W/m -0,8 C 0,5 C 4,8 km/h (1 Bft) 93,62 %
11.03.2017 05:18 0,4 C 91 % 1025,7 hPa 0,0 l/m 4,5 km/h (1 Bft) S-SW 212 0 min 0,000 mm 0,0 UV-I 0 W/m -0,9 C 0,4 C 6,4 km/h (2 Bft) 97,87 %
11.03.2017 05:20 0,4 C 91 % 1025,7 hPa 0,0 l/m 3,4 km/h (1 Bft) S-SW 212 0 min 0,000 mm 0,0 UV-I 0 W/m -0,9 C 0,4 C 4,8 km/h (1 Bft) 93,62 %
11.03.2017 05:22 0,4 C 91 % 1025,7 hPa 0,0 l/m 3,5 km/h (1 Bft) S-SW 212 0 min 0,000 mm 0,0 UV-I 0 W/m -0,9 C 0,4 C 4,8 km/h (1 Bft) 95,74 %
11.03.2017 05:24 0,4 C 91 % 1025,8 hPa 0,0 l/m 2,9 km/h (1 Bft) S-SW 212 0 min 0,000 mm 0,0 UV-I 0 W/m -0,9 C 0,4 C 4,8 km/h (1 Bft) 97,87 %
11.03.2017 05:26 0,4 C 92 % 1025,8 hPa 0,0 l/m 3,7 km/h (1 Bft) S-SW 212 0 min 0,000 mm 0,0 UV-I 0 W/m -0,7 C 0,4 C 4,8 km/h (1 Bft) 96,00 %
11.03.2017 05:28 0,4 C 92 % 1025,7 hPa 0,0 l/m 3,9 km/h (1 Bft) S-SW 212 0 min 0,000 mm 0,0 UV-I 0 W/m -0,7 C 0,4 C 6,4 km/h (2 Bft) 95,74 %
11.03.2017 05:30 0,4 C 92 % 1025,7 hPa 0,0 l/m 4,0 km/h (1 Bft) S-SW 212 0 min 0,000 mm 0,0 UV-I 0 W/m -0,7 C 0,4 C 6,4 km/h (2 Bft) 94,87 %
11.03.2017 05:32 0,4 C 92 % 1025,8 hPa 0,0 l/m 3,1 km/h (1 Bft) S-SW 212 0 min 0,000 mm 0,0 UV-I 0 W/m -0,7 C 0,4 C 4,8 km/h (1 Bft) 98,11 %
11.03.2017 05:34 0,4 C 92 % 1025,8 hPa 0,0 l/m 3,3 km/h (1 Bft) S-SW 212 0 min 0,000 mm 0,0 UV-I 0 W/m -0,7 C 0,4 C 4,8 km/h (1 Bft) 88,00 %
11.03.2017 05:36 0,4 C 92 % 1025,7 hPa 0,0 l/m 2,5 km/h (1 Bft) S-SW 212 0 min 0,000 mm 0,0 UV-I 0 W/m -0,7 C 0,4 C 6,4 km/h (2 Bft) 95,12 %
11.03.2017 05:38 0,5 C 92 % 1025,8 hPa 0,0 l/m 3,0 km/h (1 Bft) S-SW 212 0 min 0,000 mm 0,0 UV-I 0 W/m -0,6 C 0,5 C 4,8 km/h (1 Bft) 97,87 %
11.03.2017 05:40 0,5 C 92 % 1025,8 hPa 0,0 l/m 2,1 km/h (1 Bft) S-SW 212 0 min 0,000 mm 0,0 UV-I 0 W/m -0,6 C 0,5 C 4,8 km/h (1 Bft) 93,62 %
11.03.2017 05:42 0,4 C 91 % 1025,8 hPa 0,0 l/m 2,1 km/h (1 Bft) S-SW 212 0 min 0,000 mm 0,0 UV-I 0 W/m -0,9 C 0,4 C 6,4 km/h (2 Bft) 93,62 %
11.03.2017 05:44 0,3 C 92 % 1025,7 hPa 0,0 l/m 2,3 km/h (1 Bft) S-SW 212 0 min 0,000 mm 0,0 UV-I 0 W/m -0,8 C 0,3 C 4,8 km/h (1 Bft) 92,00 %
11.03.2017 05:46 0,3 C 92 % 1025,7 hPa 0,0 l/m 2,4 km/h (1 Bft) S-SW 212 0 min 0,000 mm 0,0 UV-I 0 W/m -0,8 C 0,3 C 3,2 km/h (1 Bft) 92,00 %
11.03.2017 05:48 0,3 C 92 % 1025,7 hPa 0,0 l/m 2,5 km/h (1 Bft) S-SW 212 0 min 0,000 mm 0,0 UV-I 0 W/m -0,8 C 0,3 C 4,8 km/h (1 Bft) 91,43 %
11.03.2017 05:50 0,3 C 92 % 1025,7 hPa 0,0 l/m 1,5 km/h (1 Bft) S-SW 212 0 min 0,000 mm 0,0 UV-I 0 W/m -0,8 C 0,3 C 4,8 km/h (1 Bft) 95,74 %
11.03.2017 05:52 0,3 C 92 % 1025,8 hPa 0,0 l/m 3,0 km/h (1 Bft) S-SW 212 0 min 0,000 mm 0,0 UV-I 0 W/m -0,8 C 0,3 C 6,4 km/h (2 Bft) 95,74 %
11.03.2017 05:54 0,3 C 92 % 1025,8 hPa 0,0 l/m 1,7 km/h (1 Bft) S-SW 212 0 min 0,000 mm 0,0 UV-I 0 W/m -0,8 C 0,3 C 4,8 km/h (1 Bft) 88,68 %
11.03.2017 05:56 0,4 C 92 % 1025,8 hPa 0,0 l/m 2,4 km/h (1 Bft) S-SW 212 0 min 0,000 mm 0,0 UV-I 0 W/m -0,7 C 0,4 C 4,8 km/h (1 Bft) 97,87 %
11.03.2017 05:58 0,4 C 92 % 1025,8 hPa 0,0 l/m 2,7 km/h (1 Bft) S-SW 212 0 min 0,000 mm 0,0 UV-I 0 W/m -0,7 C 0,4 C 4,8 km/h (1 Bft) 92,00 %
11.03.2017 06:00 0,5 C 92 % 1025,8 hPa 0,0 l/m 3,6 km/h (1 Bft) S-SW 212 0 min 0,000 mm 0,0 UV-I 0 W/m -0,6 C 0,5 C 4,8 km/h (1 Bft) 95,74 %
11.03.2017 06:02 0,5 C 92 % 1025,7 hPa 0,0 l/m 2,9 km/h (1 Bft) S-SW 212 0 min 0,000 mm 0,0 UV-I 0 W/m -0,6 C 0,5 C 4,8 km/h (1 Bft) 91,67 %
11.03.2017 06:04 0,5 C 92 % 1025,8 hPa 0,0 l/m 3,1 km/h (1 Bft) S-SW 212 0 min 0,000 mm 0,0 UV-I 0 W/m -0,6 C 0,5 C 4,8 km/h (1 Bft) 95,24 %
11.03.2017 06:06 0,4 C 91 % 1025,7 hPa 0,0 l/m 3,1 km/h (1 Bft) S-SW 212 0 min 0,000 mm 0,0 UV-I 0 W/m -0,9 C 0,4 C 4,8 km/h (1 Bft) 95,74 %
11.03.2017 06:08 0,4 C 91 % 1025,7 hPa 0,0 l/m 3,1 km/h (1 Bft) S-SW 212 0 min 0,000 mm 0,0 UV-I 0 W/m -0,9 C 0,4 C 4,8 km/h (1 Bft) 98,00 %
11.03.2017 06:10 0,4 C 91 % 1025,7 hPa 0,0 l/m 2,7 km/h (1 Bft) S-SW 212 0 min 0,000 mm 0,0 UV-I 0 W/m -0,9 C 0,4 C 4,8 km/h (1 Bft) 98,00 %
11.03.2017 06:12 0,4 C 91 % 1025,7 hPa 0,0 l/m 2,8 km/h (1 Bft) S-SW 212 0 min 0,000 mm 0,0 UV-I 0 W/m -0,9 C 0,4 C 4,8 km/h (1 Bft) 95,74 %
11.03.2017 06:14 0,3 C 91 % 1025,8 hPa 0,0 l/m 2,5 km/h (1 Bft) S-SW 212 0 min 0,000 mm 0,0 UV-I 2 W/m -1,0 C 0,3 C 3,2 km/h (1 Bft) 95,83 %
11.03.2017 06:16 0,3 C 91 % 1025,8 hPa 0,0 l/m 3,3 km/h (1 Bft) S-SW 212 0 min 0,000 mm 0,0 UV-I 5 W/m -1,0 C 0,3 C 6,4 km/h (2 Bft) 100,00 %
11.03.2017 06:18 0,2 C 91 % 1025,8 hPa 0,0 l/m 3,7 km/h (1 Bft) S-SW 212 0 min 0,000 mm 0,0 UV-I 5 W/m -1,1 C 0,2 C 4,8 km/h (1 Bft) 96,00 %
11.03.2017 06:20 0,2 C 92 % 1025,8 hPa 0,0 l/m 3,9 km/h (1 Bft) S-SW 212 0 min 0,000 mm 0,0 UV-I 5 W/m -0,9 C 0,2 C 6,4 km/h (2 Bft) 100,00 %
11.03.2017 06:22 0,2 C 91 % 1025,8 hPa 0,0 l/m 4,6 km/h (1 Bft) S-SW 212 0 min 0,000 mm 0,0 UV-I 7 W/m -1,1 C 0,2 C 6,4 km/h (2 Bft) 95,74 %
11.03.2017 06:24 0,2 C 92 % 1025,8 hPa 0,0 l/m 3,6 km/h (1 Bft) S-SW 212 0 min 0,000 mm 0,0 UV-I 7 W/m -0,9 C 0,2 C 6,4 km/h (2 Bft) 97,87 %
11.03.2017 06:26 0,1 C 92 % 1025,8 hPa 0,0 l/m 4,3 km/h (1 Bft) S-SW 212 0 min 0,000 mm 0,0 UV-I 8 W/m -1,0 C 0,1 C 6,4 km/h (2 Bft) 97,87 %
11.03.2017 06:28 0,1 C 92 % 1025,7 hPa 0,0 l/m 4,4 km/h (1 Bft) S-SW 212 0 min 0,000 mm 0,0 UV-I 9 W/m -1,0 C 0,1 C 6,4 km/h (2 Bft) 96,00 %
11.03.2017 06:30 0,1 C 92 % 1025,7 hPa 0,0 l/m 3,5 km/h (1 Bft) S-SW 212 0 min 0,000 mm 0,0 UV-I 10 W/m -1,0 C 0,1 C 4,8 km/h (1 Bft) 97,87 %
11.03.2017 06:32 0,0 C 92 % 1025,7 hPa 0,0 l/m 2,7 km/h (1 Bft) S-SW 212 0 min 0,000 mm 0,0 UV-I 11 W/m -1,1 C 0,0 C 4,8 km/h (1 Bft) 100,00 %
11.03.2017 06:34 -0,1 C 92 % 1025,7 hPa 0,0 l/m 1,8 km/h (1 Bft) S-SW 212 0 min 0,000 mm 0,0 UV-I 12 W/m -1,2 C -0,1 C 3,2 km/h (1 Bft) 94,00 %
11.03.2017 06:36 -0,1 C 92 % 1025,7 hPa 0,0 l/m 1,9 km/h (1 Bft) S-SW 212 2 min 0,000 mm 0,0 UV-I 14 W/m -1,2 C -0,1 C 3,2 km/h (1 Bft) 100,00 %
11.03.2017 06:38 -0,1 C 92 % 1025,7 hPa 0,0 l/m 2,4 km/h (1 Bft) S-SW 212 2 min 0,000 mm 0,0 UV-I 15 W/m -1,2 C -0,1 C 4,8 km/h (1 Bft) 100,00 %
11.03.2017 06:40 -0,1 C 92 % 1025,7 hPa 0,0 l/m 1,8 km/h (1 Bft) S-SW 212 2 min 0,000 mm 0,0 UV-I 18 W/m -1,2 C -0,1 C 3,2 km/h (1 Bft) 100,00 %
11.03.2017 06:42 -0,1 C 93 % 1025,7 hPa 0,0 l/m 1,6 km/h (1 Bft) S-SW 212 2 min 0,000 mm 0,0 UV-I 25 W/m -1,1 C -0,1 C 3,2 km/h (1 Bft) 98,11 %
11.03.2017 06:44 -0,1 C 93 % 1025,6 hPa 0,0 l/m 1,3 km/h (1 Bft) S-SW 212 2 min 0,000 mm 0,0 UV-I 29 W/m -1,1 C -0,1 C 1,6 km/h (1 Bft) 95,74 %
11.03.2017 06:46 -0,1 C 93 % 1025,6 hPa 0,0 l/m 1,8 km/h (1 Bft) S-SW 212 2 min 0,000 mm 0,0 UV-I 36 W/m -1,1 C -0,1 C 3,2 km/h (1 Bft) 100,00 %
11.03.2017 06:48 -0,1 C 93 % 1025,7 hPa 0,0 l/m 2,3 km/h (1 Bft) S-SW 212 2 min 0,000 mm 0,0 UV-I 42 W/m -1,1 C -0,1 C 3,2 km/h (1 Bft) 97,87 %
11.03.2017 06:50 -0,1 C 93 % 1025,7 hPa 0,0 l/m 2,5 km/h (1 Bft) S-SW 212 2 min 0,000 mm 0,0 UV-I 48 W/m -1,1 C -0,1 C 3,2 km/h (1 Bft) 95,83 %
11.03.2017 06:52 -0,1 C 93 % 1025,7 hPa 0,0 l/m 2,2 km/h (1 Bft) S-SW 212 2 min 0,000 mm 0,0 UV-I 52 W/m -1,1 C -0,1 C 3,2 km/h (1 Bft) 100,00 %
11.03.2017 06:54 -0,1 C 92 % 1025,6 hPa 0,0 l/m 2,6 km/h (1 Bft) S-SW 212 2 min 0,000 mm 0,0 UV-I 56 W/m -1,2 C -0,1 C 4,8 km/h (1 Bft) 97,87 %
11.03.2017 06:56 -0,1 C 93 % 1025,6 hPa 0,0 l/m 2,6 km/h (1 Bft) S-SW 212 2 min 0,000 mm 0,0 UV-I 60 W/m -1,1 C -0,1 C 3,2 km/h (1 Bft) 100,00 %
11.03.2017 06:58 0,0 C 93 % 1025,7 hPa 0,0 l/m 2,5 km/h (1 Bft) S-SW 212 2 min 0,000 mm 0,0 UV-I 66 W/m -1,0 C 0,0 C 4,8 km/h (1 Bft) 100,00 %
11.03.2017 07:00 0,0 C 93 % 1025,7 hPa 0,0 l/m 1,8 km/h (1 Bft) S-SW 212 2 min 0,000 mm 0,0 UV-I 71 W/m -1,0 C 0,0 C 3,2 km/h (1 Bft) 93,62 %
11.03.2017 07:02 0,1 C 93 % 1025,7 hPa 0,0 l/m 1,2 km/h (1 Bft) S-SW 212 2 min 0,000 mm 0,0 UV-I 76 W/m -0,9 C 0,1 C 3,2 km/h (1 Bft) 97,87 %
11.03.2017 07:04 0,2 C 93 % 1025,7 hPa 0,0 l/m 1,2 km/h (1 Bft) S-SW 212 2 min 0,000 mm 0,0 UV-I 80 W/m -0,8 C 0,2 C 3,2 km/h (1 Bft) 96,00 %
11.03.2017 07:06 0,2 C 93 % 1025,7 hPa 0,0 l/m 1,6 km/h (1 Bft) S-SW 212 2 min 0,000 mm 0,0 UV-I 85 W/m -0,8 C 0,2 C 3,2 km/h (1 Bft) 91,49 %
11.03.2017 07:08 0,3 C 93 % 1025,7 hPa 0,0 l/m 2,2 km/h (1 Bft) S-SW 212 2 min 0,000 mm 0,0 UV-I 88 W/m -0,7 C 0,3 C 3,2 km/h (1 Bft) 95,74 %
11.03.2017 07:10 0,4 C 93 % 1025,7 hPa 0,0 l/m 1,8 km/h (1 Bft) S-SW 212 2 min 0,000 mm 0,0 UV-I 94 W/m -0,6 C 0,4 C 4,8 km/h (1 Bft) 91,49 %
11.03.2017 07:12 0,5 C 93 % 1025,7 hPa 0,0 l/m 2,0 km/h (1 Bft) S-SW 212 2 min 0,000 mm 0,0 UV-I 99 W/m -0,5 C 0,5 C 4,8 km/h (1 Bft) 97,44 %
11.03.2017 07:14 0,6 C 93 % 1025,8 hPa 0,0 l/m 3,0 km/h (1 Bft) S-SW 212 2 min 0,000 mm 0,0 UV-I 104 W/m -0,4 C 0,6 C 4,8 km/h (1 Bft) 98,00 %
11.03.2017 07:16 0,6 C 92 % 1025,8 hPa 0,0 l/m 3,0 km/h (1 Bft) S-SW 212 2 min 0,000 mm 0,0 UV-I 109 W/m -0,5 C 0,6 C 4,8 km/h (1 Bft) 95,74 %
11.03.2017 07:18 0,7 C 92 % 1025,8 hPa 0,0 l/m 2,2 km/h (1 Bft) S-SW 212 2 min 0,000 mm 0,0 UV-I 114 W/m -0,4 C 0,7 C 3,2 km/h (1 Bft) 95,74 %
11.03.2017 07:20 0,8 C 92 % 1025,9 hPa 0,0 l/m 2,5 km/h (1 Bft) S-SW 212 2 min 0,000 mm 0,0 UV-I 119 W/m -0,3 C 0,8 C 4,8 km/h (1 Bft) 97,87 %
11.03.2017 07:22 0,9 C 92 % 1025,9 hPa 0,0 l/m 3,2 km/h (1 Bft) S-SW 212 2 min 0,000 mm 0,0 UV-I 124 W/m -0,2 C 0,9 C 4,8 km/h (1 Bft) 100,00 %
11.03.2017 07:24 0,9 C 92 % 1025,9 hPa 0,0 l/m 3,5 km/h (1 Bft) S-SW 212 2 min 0,000 mm 0,0 UV-I 129 W/m -0,2 C 0,9 C 4,8 km/h (1 Bft) 97,87 %
11.03.2017 07:26 1,1 C 91 % 1025,9 hPa 0,0 l/m 1,7 km/h (1 Bft) S-SW 212 2 min 0,000 mm 0,0 UV-I 133 W/m -0,2 C 1,1 C 4,8 km/h (1 Bft) 93,75 %
11.03.2017 07:28 1,1 C 91 % 1025,9 hPa 0,0 l/m 2,6 km/h (1 Bft) S-SW 212 2 min 0,000 mm 0,0 UV-I 137 W/m -0,2 C 1,1 C 4,8 km/h (1 Bft) 97,87 %
11.03.2017 07:30 1,2 C 91 % 1025,8 hPa 0,0 l/m 1,4 km/h (1 Bft) S-SW 212 2 min 0,000 mm 0,0 UV-I 142 W/m -0,1 C 1,2 C 3,2 km/h (1 Bft) 100,00 %
11.03.2017 07:32 1,2 C 91 % 1025,9 hPa 0,0 l/m 2,4 km/h (1 Bft) S-SW 212 2 min 0,000 mm 0,0 UV-I 148 W/m -0,1 C 1,2 C 4,8 km/h (1 Bft) 97,87 %
11.03.2017 07:34 1,3 C 91 % 1025,8 hPa 0,0 l/m 2,7 km/h (1 Bft) S-SW 212 2 min 0,000 mm 0,0 UV-I 153 W/m -0,0 C 1,3 C 4,8 km/h (1 Bft) 97,87 %
11.03.2017 07:36 1,4 C 90 % 1025,8 hPa 0,0 l/m 2,4 km/h (1 Bft) S-SW 212 2 min 0,000 mm 0,0 UV-I 158 W/m -0,1 C 1,4 C 4,8 km/h (1 Bft) 97,87 %
11.03.2017 07:38 1,4 C 90 % 1025,9 hPa 0,0 l/m 3,3 km/h (1 Bft) S-SW 212 2 min 0,000 mm 0,0 UV-I 163 W/m -0,1 C 1,4 C 4,8 km/h (1 Bft) 95,74 %
11.03.2017 07:40 1,5 C 90 % 1025,9 hPa 0,0 l/m 3,9 km/h (1 Bft) S-SW 212 2 min 0,000 mm 0,0 UV-I 169 W/m 0,0 C 1,5 C 4,8 km/h (1 Bft) 100,00 %
11.03.2017 07:42 1,6 C 90 % 1025,8 hPa 0,0 l/m 4,0 km/h (1 Bft) S-SW 212 2 min 0,000 mm 0,0 UV-I 174 W/m 0,1 C 1,6 C 4,8 km/h (1 Bft) 93,62 %
11.03.2017 07:44 1,7 C 90 % 1025,8 hPa 0,0 l/m 4,1 km/h (1 Bft) S-SW 212 2 min 0,000 mm 0,0 UV-I 180 W/m 0,2 C 1,7 C 4,8 km/h (1 Bft) 97,87 %
11.03.2017 07:46 1,8 C 90 % 1025,8 hPa 0,0 l/m 4,1 km/h (1 Bft) S-SW 212 2 min 0,000 mm 0,0 UV-I 186 W/m 0,3 C 1,8 C 6,4 km/h (2 Bft) 95,74 %
11.03.2017 07:48 1,8 C 89 % 1025,8 hPa 0,0 l/m 3,8 km/h (1 Bft) S-SW 212 2 min 0,000 mm 0,0 UV-I 191 W/m 0,2 C 1,8 C 6,4 km/h (2 Bft) 97,87 %
11.03.2017 07:50 2,0 C 89 % 1025,8 hPa 0,0 l/m 3,6 km/h (1 Bft) S-SW 212 2 min 0,000 mm 0,0 UV-I 197 W/m 0,4 C 2,0 C 6,4 km/h (2 Bft) 97,87 %
11.03.2017 07:52 2,1 C 89 % 1025,8 hPa 0,0 l/m 3,6 km/h (1 Bft) S-SW 212 2 min 0,000 mm 0,0 UV-I 202 W/m 0,5 C 2,1 C 4,8 km/h (1 Bft) 93,62 %
11.03.2017 07:54 2,2 C 89 % 1025,8 hPa 0,0 l/m 2,6 km/h (1 Bft) S-SW 212 2 min 0,000 mm 0,0 UV-I 208 W/m 0,6 C 2,2 C 4,8 km/h (1 Bft) 100,00 %
11.03.2017 07:56 2,3 C 88 % 1025,8 hPa 0,0 l/m 3,0 km/h (1 Bft) S-SW 212 2 min 0,000 mm 0,0 UV-I 214 W/m 0,5 C 2,3 C 6,4 km/h (2 Bft) 97,37 %
11.03.2017 07:58 2,3 C 88 % 1025,8 hPa 0,0 l/m 2,3 km/h (1 Bft) S-SW 212 2 min 0,000 mm 0,0 UV-I 220 W/m 0,5 C 2,3 C 4,8 km/h (1 Bft) 94,00 %
11.03.2017 08:00 2,4 C 88 % 1025,8 hPa 0,0 l/m 3,8 km/h (1 Bft) S-SW 212 2 min 0,051 mm 0,0 UV-I 226 W/m 0,6 C 2,4 C 6,4 km/h (2 Bft) 97,87 %
11.03.2017 08:02 2,6 C 87 % 1025,8 hPa 0,0 l/m 3,4 km/h (1 Bft) S-SW 212 2 min 0,000 mm 0,0 UV-I 231 W/m 0,7 C 2,6 C 4,8 km/h (1 Bft) 95,74 %
11.03.2017 08:04 2,6 C 87 % 1025,8 hPa 0,0 l/m 3,4 km/h (1 Bft) S-SW 212 2 min 0,000 mm 0,0 UV-I 237 W/m 0,7 C 2,6 C 4,8 km/h (1 Bft) 93,62 %
11.03.2017 08:06 2,7 C 87 % 1025,8 hPa 0,0 l/m 3,5 km/h (1 Bft) SW 214 2 min 0,000 mm 0,0 UV-I 243 W/m 0,8 C 2,7 C 6,4 km/h (2 Bft) 96,00 %
11.03.2017 08:08 2,7 C 86 % 1025,8 hPa 0,0 l/m 4,1 km/h (1 Bft) SW 215 2 min 0,000 mm 0,0 UV-I 249 W/m 0,6 C 2,7 C 4,8 km/h (1 Bft) 95,74 %
11.03.2017 08:10 2,8 C 86 % 1025,8 hPa 0,0 l/m 3,0 km/h (1 Bft) SW 215 2 min 0,000 mm 0,0 UV-I 255 W/m 0,7 C 2,8 C 4,8 km/h (1 Bft) 91,67 %
11.03.2017 08:12 2,8 C 86 % 1025,8 hPa 0,0 l/m 3,3 km/h (1 Bft) SW 215 2 min 0,000 mm 0,0 UV-I 261 W/m 0,7 C 2,8 C 4,8 km/h (1 Bft) 89,80 %
11.03.2017 08:14 2,9 C 86 % 1025,8 hPa 0,0 l/m 4,2 km/h (1 Bft) SW 215 2 min 0,000 mm 0,0 UV-I 266 W/m 0,8 C 2,9 C 6,4 km/h (2 Bft) 93,75 %
11.03.2017 08:16 3,0 C 86 % 1025,8 hPa 0,0 l/m 4,4 km/h (1 Bft) SW 215 2 min 0,000 mm 0,0 UV-I 272 W/m 0,9 C 3,0 C 6,4 km/h (2 Bft) 94,74 %
11.03.2017 08:19 3,1 C 85 % 1025,8 hPa 0,0 l/m 4,0 km/h (1 Bft) SW 215 3 min 0,000 mm 0,0 UV-I 280 W/m 0,8 C 3,1 C 4,8 km/h (1 Bft) 97,14 %
11.03.2017 08:20 3,2 C 85 % 1025,8 hPa 0,0 l/m 3,4 km/h (1 Bft) SW 215 1 min 0,000 mm 0,0 UV-I 285 W/m 0,9 C 3,2 C 4,8 km/h (1 Bft) 95,83 %
11.03.2017 08:22 3,3 C 85 % 1025,8 hPa 0,0 l/m 2,9 km/h (1 Bft) SW 215 2 min 0,000 mm 0,0 UV-I 289 W/m 1,0 C 3,3 C 4,8 km/h (1 Bft) 91,49 %
11.03.2017 08:24 3,4 C 85 % 1025,8 hPa 0,0 l/m 2,4 km/h (1 Bft) SW 215 2 min 0,000 mm 0,0 UV-I 295 W/m 1,1 C 3,4 C 4,8 km/h (1 Bft) 93,62 %
11.03.2017 08:26 3,3 C 84 % 1025,8 hPa 0,0 l/m 3,9 km/h (1 Bft) SW 214 2 min 0,000 mm 0,0 UV-I 302 W/m 0,9 C 3,3 C 4,8 km/h (1 Bft) 95,74 %
11.03.2017 08:28 3,4 C 84 % 1025,8 hPa 0,0 l/m 3,4 km/h (1 Bft) SW 215 2 min 0,000 mm 0,4 UV-I 307 W/m 1,0 C 3,4 C 4,8 km/h (1 Bft) 95,74 %
11.03.2017 08:30 3,5 C 84 % 1025,9 hPa 0,0 l/m 1,4 km/h (1 Bft) SW 215 2 min 0,000 mm 0,5 UV-I 313 W/m 1,1 C 3,5 C 4,8 km/h (1 Bft) 95,74 %
11.03.2017 08:32 3,5 C 84 % 1025,8 hPa 0,0 l/m 2,2 km/h (1 Bft) SW 215 2 min 0,000 mm 0,5 UV-I 318 W/m 1,1 C 3,5 C 3,2 km/h (1 Bft) 90,57 %
11.03.2017 08:34 3,6 C 85 % 1025,9 hPa 0,0 l/m 2,9 km/h (1 Bft) SW 215 2 min 0,000 mm 0,5 UV-I 323 W/m 1,3 C 3,6 C 4,8 km/h (1 Bft) 97,87 %
11.03.2017 08:36 3,7 C 84 % 1025,9 hPa 0,0 l/m 2,4 km/h (1 Bft) SW 215 2 min 0,000 mm 0,5 UV-I 330 W/m 1,3 C 3,7 C 4,8 km/h (1 Bft) 95,74 %
11.03.2017 08:38 3,9 C 83 % 1025,9 hPa 0,0 l/m 3,7 km/h (1 Bft) SW 215 2 min 0,000 mm 0,5 UV-I 334 W/m 1,3 C 3,9 C 6,4 km/h (2 Bft) 95,74 %
11.03.2017 08:40 3,9 C 82 % 1025,9 hPa 0,0 l/m 3,4 km/h (1 Bft) SW 215 2 min 0,000 mm 0,5 UV-I 340 W/m 1,1 C 3,9 C 4,8 km/h (1 Bft) 93,62 %
11.03.2017 08:42 4,0 C 82 % 1025,8 hPa 0,0 l/m 4,2 km/h (1 Bft) SW 215 2 min 0,000 mm 0,6 UV-I 346 W/m 1,2 C 4,0 C 8,0 km/h (2 Bft) 94,74 %
11.03.2017 08:44 4,1 C 81 % 1025,8 hPa 0,0 l/m 3,7 km/h (1 Bft) SW 215 2 min 0,000 mm 0,6 UV-I 352 W/m 1,1 C 4,1 C 6,4 km/h (2 Bft) 95,74 %
11.03.2017 08:46 4,2 C 82 % 1025,8 hPa 0,0 l/m 3,2 km/h (1 Bft) SW 215 2 min 0,000 mm 0,6 UV-I 358 W/m 1,4 C 4,2 C 6,4 km/h (2 Bft) 97,92 %
11.03.2017 08:48 4,1 C 81 % 1025,8 hPa 0,0 l/m 4,1 km/h (1 Bft) SW 223 2 min 0,000 mm 0,6 UV-I 365 W/m 1,1 C 4,1 C 6,4 km/h (2 Bft) 95,74 %
11.03.2017 08:50 4,2 C 81 % 1025,8 hPa 0,0 l/m 4,9 km/h (1 Bft) SW 223 2 min 0,000 mm 0,6 UV-I 369 W/m 1,2 C 4,2 C 8,0 km/h (2 Bft) 95,74 %
11.03.2017 08:52 4,2 C 80 % 1025,7 hPa 0,0 l/m 3,4 km/h (1 Bft) SW 223 2 min 0,000 mm 0,6 UV-I 355 W/m 1,1 C 4,2 C 6,4 km/h (2 Bft) 95,74 %
11.03.2017 08:54 4,2 C 81 % 1025,7 hPa 0,0 l/m 2,3 km/h (1 Bft) SW 223 2 min 0,000 mm 0,7 UV-I 351 W/m 1,2 C 4,2 C 4,8 km/h (1 Bft) 96,00 %
11.03.2017 08:56 4,3 C 80 % 1025,6 hPa 0,0 l/m 2,3 km/h (1 Bft) SW 222 2 min 0,000 mm 0,7 UV-I 381 W/m 1,2 C 4,3 C 4,8 km/h (1 Bft) 95,83 %
11.03.2017 08:58 4,3 C 81 % 1025,6 hPa 0,0 l/m 3,5 km/h (1 Bft) SW 222 2 min 0,000 mm 0,7 UV-I 389 W/m 1,3 C 4,3 C 4,8 km/h (1 Bft) 95,74 %
11.03.2017 09:00 4,3 C 80 % 1025,6 hPa 0,0 l/m 2,1 km/h (1 Bft) SW 222 2 min 0,127 mm 0,7 UV-I 394 W/m 1,2 C 4,3 C 6,4 km/h (2 Bft) 97,87 %
11.03.2017 09:02 4,4 C 81 % 1025,6 hPa 0,0 l/m 4,2 km/h (1 Bft) SW 220 2 min 0,000 mm 0,7 UV-I 399 W/m 1,4 C 4,4 C 8,0 km/h (2 Bft) 95,74 %
11.03.2017 09:04 4,6 C 81 % 1025,6 hPa 0,0 l/m 2,0 km/h (1 Bft) SW 220 2 min 0,000 mm 0,8 UV-I 404 W/m 1,6 C 4,6 C 4,8 km/h (1 Bft) 95,74 %
11.03.2017 09:06 4,7 C 80 % 1025,6 hPa 0,0 l/m 3,8 km/h (1 Bft) SW 220 2 min 0,000 mm 0,8 UV-I 408 W/m 1,6 C 4,7 C 6,4 km/h (2 Bft) 92,11 %
11.03.2017 09:08 4,8 C 80 % 1025,6 hPa 0,0 l/m 2,9 km/h (1 Bft) SW 221 2 min 0,000 mm 0,8 UV-I 413 W/m 1,6 C 4,8 C 4,8 km/h (1 Bft) 96,00 %
11.03.2017 09:10 4,8 C 80 % 1025,5 hPa 0,0 l/m 3,7 km/h (1 Bft) SW 222 2 min 0,000 mm 0,8 UV-I 418 W/m 1,6 C 4,8 C 4,8 km/h (1 Bft) 96,00 %
11.03.2017 09:12 4,9 C 79 % 1025,5 hPa 0,0 l/m 4,1 km/h (1 Bft) SW 224 2 min 0,000 mm 0,8 UV-I 423 W/m 1,6 C 4,9 C 6,4 km/h (2 Bft) 93,62 %
11.03.2017 09:14 5,0 C 79 % 1025,5 hPa 0,0 l/m 2,7 km/h (1 Bft) SW 224 2 min 0,000 mm 0,9 UV-I 429 W/m 1,7 C 5,0 C 6,4 km/h (2 Bft) 96,00 %
11.03.2017 09:16 4,9 C 78 % 1025,5 hPa 0,0 l/m 3,2 km/h (1 Bft) SW 224 2 min 0,000 mm 0,9 UV-I 433 W/m 1,4 C 4,9 C 6,4 km/h (2 Bft) 95,83 %
11.03.2017 09:18 4,9 C 79 % 1025,6 hPa 0,0 l/m 3,9 km/h (1 Bft) W-SW 248 2 min 0,000 mm 0,9 UV-I 437 W/m 1,6 C 4,9 C 6,4 km/h (2 Bft) 97,37 %
11.03.2017 09:20 5,0 C 78 % 1025,5 hPa 0,0 l/m 1,9 km/h (1 Bft) W-SW 248 2 min 0,000 mm 0,9 UV-I 440 W/m 1,5 C 5,0 C 4,8 km/h (1 Bft) 96,00 %
11.03.2017 09:22 5,2 C 79 % 1025,4 hPa 0,0 l/m 0,5 km/h (0 Bft) W-SW 248 2 min 0,000 mm 0,9 UV-I 445 W/m 1,9 C 5,2 C 3,2 km/h (1 Bft) 95,74 %
11.03.2017 09:24 5,3 C 78 % 1025,5 hPa 0,0 l/m 1,6 km/h (1 Bft) S-SW 197 2 min 0,000 mm 1,0 UV-I 451 W/m 1,8 C 5,3 C 3,2 km/h (1 Bft) 98,00 %
11.03.2017 09:26 5,2 C 78 % 1025,5 hPa 0,0 l/m 1,9 km/h (1 Bft) S-SW 205 2 min 0,000 mm 1,0 UV-I 455 W/m 1,7 C 5,2 C 4,8 km/h (1 Bft) 97,44 %
11.03.2017 09:28 5,1 C 78 % 1025,4 hPa 0,0 l/m 1,6 km/h (1 Bft) S-SW 205 2 min 0,000 mm 1,0 UV-I 460 W/m 1,6 C 5,1 C 4,8 km/h (1 Bft) 96,00 %
11.03.2017 09:30 5,1 C 78 % 1025,5 hPa 0,0 l/m 0,7 km/h (0 Bft) S-SW 205 2 min 0,000 mm 1,0 UV-I 463 W/m 1,6 C 5,1 C 4,8 km/h (1 Bft) 93,62 %
11.03.2017 09:32 5,3 C 77 % 1025,5 hPa 0,0 l/m 2,6 km/h (1 Bft) S-SW 205 2 min 0,000 mm 1,0 UV-I 468 W/m 1,6 C 5,3 C 4,8 km/h (1 Bft) 92,00 %
11.03.2017 09:34 5,3 C 77 % 1025,5 hPa 0,0 l/m 1,1 km/h (1 Bft) S-SW 205 2 min 0,000 mm 1,1 UV-I 472 W/m 1,6 C 5,3 C 3,2 km/h (1 Bft) 93,88 %
11.03.2017 09:36 5,3 C 77 % 1025,4 hPa 0,0 l/m 2,5 km/h (1 Bft) SW 233 2 min 0,000 mm 1,1 UV-I 478 W/m 1,6 C 5,3 C 4,8 km/h (1 Bft) 93,62 %
11.03.2017 09:38 5,4 C 76 % 1025,4 hPa 0,0 l/m 2,8 km/h (1 Bft) SW 233 2 min 0,000 mm 1,1 UV-I 482 W/m 1,5 C 5,4 C 4,8 km/h (1 Bft) 93,62 %
11.03.2017 09:40 5,5 C 75 % 1025,4 hPa 0,0 l/m 2,1 km/h (1 Bft) SW 233 2 min 0,000 mm 1,1 UV-I 486 W/m 1,4 C 5,5 C 4,8 km/h (1 Bft) 93,62 %
11.03.2017 09:42 5,5 C 76 % 1025,4 hPa 0,0 l/m 0,7 km/h (0 Bft) SW 233 2 min 0,000 mm 1,1 UV-I 490 W/m 1,6 C 5,5 C 3,2 km/h (1 Bft) 93,62 %
11.03.2017 09:44 5,7 C 75 % 1025,4 hPa 0,0 l/m 0,8 km/h (0 Bft) SW 233 2 min 0,000 mm 1,2 UV-I 494 W/m 1,6 C 5,7 C 3,2 km/h (1 Bft) 94,59 %
11.03.2017 09:46 5,7 C 76 % 1025,3 hPa 0,0 l/m 1,8 km/h (1 Bft) S-SW 208 2 min 0,000 mm 1,2 UV-I 498 W/m 1,8 C 5,7 C 4,8 km/h (1 Bft) 93,62 %
11.03.2017 09:48 5,7 C 75 % 1025,3 hPa 0,0 l/m 2,2 km/h (1 Bft) S-SW 207 2 min 0,000 mm 1,2 UV-I 503 W/m 1,6 C 5,7 C 4,8 km/h (1 Bft) 93,62 %
11.03.2017 09:50 5,6 C 74 % 1025,3 hPa 0,0 l/m 2,4 km/h (1 Bft) S-SW 207 2 min 0,000 mm 1,2 UV-I 506 W/m 1,3 C 5,6 C 4,8 km/h (1 Bft) 95,74 %
11.03.2017 09:52 5,5 C 74 % 1025,4 hPa 0,0 l/m 1,6 km/h (1 Bft) S-SW 207 2 min 0,000 mm 1,2 UV-I 511 W/m 1,2 C 5,5 C 6,4 km/h (2 Bft) 95,74 %
11.03.2017 09:54 5,6 C 76 % 1025,2 hPa 0,0 l/m 5,3 km/h (1 Bft) S-SW 205 2 min 0,000 mm 1,3 UV-I 515 W/m 1,7 C 5,6 C 6,4 km/h (2 Bft) 98,00 %
11.03.2017 09:56 5,6 C 76 % 1025,2 hPa 0,0 l/m 3,2 km/h (1 Bft) SW 229 2 min 0,000 mm 1,3 UV-I 519 W/m 1,7 C 5,6 C 6,4 km/h (2 Bft) 87,23 %
11.03.2017 09:58 5,8 C 75 % 1025,2 hPa 0,0 l/m 0,1 km/h (0 Bft) SW 229 2 min 0,000 mm 1,3 UV-I 521 W/m 1,7 C 5,8 C 1,6 km/h (1 Bft) 96,00 %
11.03.2017 10:00 5,9 C 75 % 1025,1 hPa 0,0 l/m 3,1 km/h (1 Bft) S-SW 213 2 min 0,178 mm 1,3 UV-I 523 W/m 1,8 C 5,9 C 6,4 km/h (2 Bft) 93,62 %
11.03.2017 10:02 6,1 C 74 % 1025,1 hPa 0,0 l/m 2,9 km/h (1 Bft) S-SW 213 2 min 0,000 mm 1,3 UV-I 527 W/m 1,8 C 6,1 C 6,4 km/h (2 Bft) 97,87 %
11.03.2017 10:04 6,3 C 75 % 1025,2 hPa 0,0 l/m 2,2 km/h (1 Bft) S-SW 213 2 min 0,000 mm 1,3 UV-I 532 W/m 2,2 C 6,3 C 4,8 km/h (1 Bft) 92,00 %
11.03.2017 10:06 6,3 C 74 % 1025,1 hPa 0,0 l/m 3,3 km/h (1 Bft) S-SW 213 2 min 0,000 mm 1,4 UV-I 534 W/m 2,0 C 6,3 C 4,8 km/h (1 Bft) 100,00 %
11.03.2017 10:08 6,2 C 72 % 1025,1 hPa 0,0 l/m 1,6 km/h (1 Bft) S-SW 213 2 min 0,000 mm 1,4 UV-I 538 W/m 1,5 C 6,2 C 3,2 km/h (1 Bft) 94,44 %
11.03.2017 10:10 6,2 C 72 % 1025,1 hPa 0,0 l/m 0,6 km/h (0 Bft) S-SW 213 2 min 0,000 mm 1,4 UV-I 541 W/m 1,5 C 6,2 C 3,2 km/h (1 Bft) 93,62 %
11.03.2017 10:12 6,3 C 73 % 1025,0 hPa 0,0 l/m 1,5 km/h (1 Bft) S-SW 207 2 min 0,000 mm 1,4 UV-I 547 W/m 1,8 C 6,3 C 4,8 km/h (1 Bft) 91,49 %
11.03.2017 10:14 6,4 C 69 % 1024,9 hPa 0,0 l/m 4,5 km/h (1 Bft) SO 127 2 min 0,000 mm 1,4 UV-I 548 W/m 1,1 C 6,4 C 6,4 km/h (2 Bft) 100,00 %
11.03.2017 10:16 6,4 C 69 % 1024,9 hPa 0,0 l/m 3,4 km/h (1 Bft) O-NO 69 2 min 0,000 mm 1,5 UV-I 550 W/m 1,1 C 6,4 C 6,4 km/h (2 Bft) 97,87 %
11.03.2017 10:18 6,5 C 70 % 1024,8 hPa 0,0 l/m 2,3 km/h (1 Bft) O-NO 69 2 min 0,000 mm 1,5 UV-I 553 W/m 1,4 C 6,5 C 3,2 km/h (1 Bft) 97,87 %
11.03.2017 10:20 6,6 C 70 % 1024,8 hPa 0,0 l/m 2,3 km/h (1 Bft) W-SW 248 2 min 0,000 mm 1,5 UV-I 556 W/m 1,5 C 6,6 C 4,8 km/h (1 Bft) 93,62 %
11.03.2017 10:22 6,6 C 68 % 1024,7 hPa 0,0 l/m 2,0 km/h (1 Bft) W-SW 252 2 min 0,000 mm 1,5 UV-I 560 W/m 1,1 C 6,6 C 4,8 km/h (1 Bft) 95,74 %
11.03.2017 10:24 6,8 C 67 % 1024,7 hPa 0,0 l/m 2,1 km/h (1 Bft) W-SW 252 2 min 0,000 mm 1,6 UV-I 568 W/m 1,1 C 6,8 C 4,8 km/h (1 Bft) 100,00 %
11.03.2017 10:26 7,0 C 67 % 1024,7 hPa 0,0 l/m 3,2 km/h (1 Bft) S 182 2 min 0,000 mm 1,6 UV-I 579 W/m 1,3 C 7,0 C 6,4 km/h (2 Bft) 97,87 %
11.03.2017 10:28 6,8 C 66 % 1024,7 hPa 0,0 l/m 1,8 km/h (1 Bft) S 186 2 min 0,000 mm 1,6 UV-I 587 W/m 0,9 C 6,8 C 4,8 km/h (1 Bft) 100,00 %
11.03.2017 10:30 6,7 C 66 % 1024,7 hPa 0,0 l/m 0,9 km/h (0 Bft) S 186 2 min 0,000 mm 1,6 UV-I 592 W/m 0,8 C 6,7 C 3,2 km/h (1 Bft) 100,00 %
11.03.2017 10:32 6,7 C 66 % 1024,7 hPa 0,0 l/m 0,1 km/h (0 Bft) S 186 2 min 0,000 mm 1,7 UV-I 591 W/m 0,8 C 6,7 C 1,6 km/h (1 Bft) 100,00 %
11.03.2017 10:34 6,9 C 69 % 1024,7 hPa 0,0 l/m 0,0 km/h (0 Bft) S 186 2 min 0,000 mm 1,7 UV-I 592 W/m 1,6 C 6,9 C 0,0 km/h (0 Bft) 97,87 %
11.03.2017 10:36 7,0 C 67 % 1024,7 hPa 0,0 l/m 1,0 km/h (0 Bft) S 186 2 min 0,000 mm 1,7 UV-I 595 W/m 1,3 C 7,0 C 3,2 km/h (1 Bft) 97,56 %
11.03.2017 10:38 7,1 C 68 % 1024,7 hPa 0,0 l/m 2,3 km/h (1 Bft) S-SO 154 2 min 0,000 mm 1,7 UV-I 598 W/m 1,6 C 7,1 C 6,4 km/h (2 Bft) 100,00 %
11.03.2017 10:40 7,2 C 71 % 1024,6 hPa 0,0 l/m 3,7 km/h (1 Bft) O-NO 65 2 min 0,000 mm 1,7 UV-I 599 W/m 2,3 C 7,2 C 6,4 km/h (2 Bft) 98,00 %
11.03.2017 10:42 7,4 C 71 % 1024,7 hPa 0,0 l/m 4,9 km/h (1 Bft) NO 36 2 min 0,000 mm 1,8 UV-I 604 W/m 2,5 C 7,4 C 6,4 km/h (2 Bft) 95,74 %
11.03.2017 10:44 7,4 C 69 % 1024,6 hPa 0,0 l/m 0,6 km/h (0 Bft) NO 36 2 min 0,000 mm 1,8 UV-I 599 W/m 2,1 C 7,4 C 1,6 km/h (1 Bft) 100,00 %
11.03.2017 10:46 7,6 C 72 % 1024,7 hPa 0,0 l/m 0,3 km/h (0 Bft) NO 35 2 min 0,000 mm 1,8 UV-I 612 W/m 2,9 C 7,6 C 3,2 km/h (1 Bft) 95,74 %
11.03.2017 10:48 7,5 C 67 % 1024,6 hPa 0,0 l/m 2,5 km/h (1 Bft) N-NW 327 2 min 0,000 mm 1,8 UV-I 612 W/m 1,8 C 7,5 C 3,2 km/h (1 Bft) 93,62 %
11.03.2017 10:50 7,3 C 67 % 1024,6 hPa 0,0 l/m 2,7 km/h (1 Bft) W-NW 296 2 min 0,000 mm 1,8 UV-I 615 W/m 1,6 C 7,3 C 4,8 km/h (1 Bft) 98,00 %
11.03.2017 10:52 7,3 C 68 % 1024,6 hPa 0,0 l/m 3,2 km/h (1 Bft) S-SW 198 2 min 0,000 mm 1,9 UV-I 619 W/m 1,8 C 7,3 C 8,0 km/h (2 Bft) 98,00 %
11.03.2017 10:54 7,2 C 59 % 1024,6 hPa 0,0 l/m 3,5 km/h (1 Bft) S-SW 200 2 min 0,000 mm 1,9 UV-I 622 W/m -0,3 C 7,2 C 9,7 km/h (2 Bft) 97,87 %
11.03.2017 10:56 7,2 C 56 % 1024,5 hPa 0,0 l/m 3,3 km/h (1 Bft) O-SO 110 2 min 0,000 mm 1,9 UV-I 624 W/m -1,0 C 7,2 C 9,7 km/h (2 Bft) 94,87 %
11.03.2017 10:58 7,3 C 59 % 1024,5 hPa 0,0 l/m 3,3 km/h (1 Bft) O 87 2 min 0,000 mm 1,9 UV-I 625 W/m -0,2 C 7,3 C 6,4 km/h (2 Bft) 97,87 %
11.03.2017 11:00 7,5 C 57 % 1024,4 hPa 0,0 l/m 5,4 km/h (1 Bft) O-NO 57 2 min 0,254 mm 1,9 UV-I 627 W/m -0,5 C 7,5 C 8,0 km/h (2 Bft) 97,87 %
11.03.2017 11:02 7,8 C 62 % 1024,3 hPa 0,0 l/m 4,5 km/h (1 Bft) O-SO 108 2 min 0,000 mm 1,9 UV-I 628 W/m 1,0 C 7,8 C 8,0 km/h (2 Bft) 96,00 %
11.03.2017 11:04 7,9 C 58 % 1024,3 hPa 0,0 l/m 6,9 km/h (2 Bft) NO 42 2 min 0,000 mm 1,9 UV-I 629 W/m 0,2 C 7,5 C 11,3 km/h (2 Bft) 97,87 %
11.03.2017 11:06 8,0 C 55 % 1024,3 hPa 0,0 l/m 6,2 km/h (2 Bft) NO 47 2 min 0,000 mm 1,9 UV-I 630 W/m -0,5 C 8,0 C 8,0 km/h (2 Bft) 97,87 %
11.03.2017 11:08 8,1 C 55 % 1024,3 hPa 0,0 l/m 3,3 km/h (1 Bft) O-NO 65 2 min 0,000 mm 1,9 UV-I 631 W/m -0,4 C 8,1 C 9,7 km/h (2 Bft) 87,80 %
11.03.2017 11:10 8,2 C 60 % 1024,3 hPa 0,0 l/m 5,0 km/h (1 Bft) S-SO 164 2 min 0,000 mm 2,0 UV-I 633 W/m 0,9 C 8,2 C 11,3 km/h (2 Bft) 97,87 %
11.03.2017 11:12 8,0 C 59 % 1024,3 hPa 0,0 l/m 3,4 km/h (1 Bft) S 188 2 min 0,000 mm 2,0 UV-I 635 W/m 0,5 C 8,0 C 8,0 km/h (2 Bft) 94,00 %
11.03.2017 11:14 8,1 C 62 % 1024,3 hPa 0,0 l/m 2,7 km/h (1 Bft) O-NO 69 2 min 0,000 mm 2,0 UV-I 634 W/m 1,3 C 8,1 C 4,8 km/h (1 Bft) 95,74 %
11.03.2017 11:16 8,1 C 58 % 1024,2 hPa 0,0 l/m 0,6 km/h (0 Bft) O-NO 69 2 min 0,000 mm 2,0 UV-I 631 W/m 0,3 C 8,1 C 3,2 km/h (1 Bft) 98,00 %
11.03.2017 11:18 7,9 C 57 % 1024,2 hPa 0,0 l/m 0,8 km/h (0 Bft) O-NO 67 2 min 0,000 mm 2,0 UV-I 633 W/m -0,1 C 7,9 C 4,8 km/h (1 Bft) 95,74 %
11.03.2017 11:20 8,1 C 61 % 1024,2 hPa 0,0 l/m 3,6 km/h (1 Bft) NO 42 2 min 0,000 mm 2,0 UV-I 638 W/m 1,0 C 8,1 C 9,7 km/h (2 Bft) 97,44 %
11.03.2017 11:22 8,3 C 64 % 1024,2 hPa 0,0 l/m 5,1 km/h (1 Bft) SO 125 2 min 0,000 mm 2,1 UV-I 644 W/m 1,9 C 8,3 C 8,0 km/h (2 Bft) 97,87 %
11.03.2017 11:24 8,1 C 58 % 1024,1 hPa 0,0 l/m 3,4 km/h (1 Bft) S-SO 159 2 min 0,000 mm 2,1 UV-I 647 W/m 0,3 C 8,1 C 8,0 km/h (2 Bft) 100,00 %
11.03.2017 11:26 7,8 C 56 % 1024,2 hPa 0,0 l/m 0,8 km/h (0 Bft) S-SO 159 2 min 0,000 mm 2,1 UV-I 650 W/m -0,4 C 7,8 C 3,2 km/h (1 Bft) 95,74 %
11.03.2017 11:28 7,8 C 57 % 1024,1 hPa 0,0 l/m 0,5 km/h (0 Bft) S-SO 159 2 min 0,000 mm 2,1 UV-I 652 W/m -0,2 C 7,8 C 3,2 km/h (1 Bft) 100,00 %
11.03.2017 11:30 7,9 C 58 % 1024,1 hPa 0,0 l/m 3,7 km/h (1 Bft) O-NO 63 2 min 0,000 mm 2,1 UV-I 654 W/m 0,2 C 7,9 C 8,0 km/h (2 Bft) 97,87 %
11.03.2017 11:32 8,1 C 56 % 1024,0 hPa 0,0 l/m 4,3 km/h (1 Bft) O-NO 66 2 min 0,000 mm 2,1 UV-I 654 W/m -0,1 C 8,1 C 6,4 km/h (2 Bft) 100,00 %
11.03.2017 11:34 8,1 C 52 % 1024,0 hPa 0,0 l/m 7,4 km/h (2 Bft) O-NO 71 2 min 0,000 mm 2,1 UV-I 654 W/m -1,2 C 7,3 C 12,9 km/h (3 Bft) 97,87 %
11.03.2017 11:36 8,2 C 57 % 1024,1 hPa 0,0 l/m 5,4 km/h (1 Bft) O-NO 65 2 min 0,000 mm 2,1 UV-I 656 W/m 0,2 C 8,2 C 9,7 km/h (2 Bft) 96,23 %
11.03.2017 11:38 8,3 C 54 % 1024,1 hPa 0,0 l/m 6,4 km/h (2 Bft) O-NO 61 2 min 0,000 mm 2,2 UV-I 657 W/m -0,5 C 8,3 C 9,7 km/h (2 Bft) 95,74 %
11.03.2017 11:40 8,3 C 51 % 1024,1 hPa 0,0 l/m 7,0 km/h (2 Bft) O 97 2 min 0,000 mm 2,2 UV-I 657 W/m -1,2 C 7,8 C 11,3 km/h (2 Bft) 95,74 %
11.03.2017 11:42 8,2 C 55 % 1024,1 hPa 0,0 l/m 4,6 km/h (1 Bft) NO 54 2 min 0,000 mm 2,2 UV-I 655 W/m -0,3 C 8,2 C 8,0 km/h (2 Bft) 100,00 %
11.03.2017 11:44 8,3 C 54 % 1024,0 hPa 0,0 l/m 5,4 km/h (1 Bft) NO 44 2 min 0,000 mm 2,2 UV-I 657 W/m -0,5 C 8,3 C 8,0 km/h (2 Bft) 95,74 %
11.03.2017 11:46 8,4 C 56 % 1024,0 hPa 0,0 l/m 6,8 km/h (2 Bft) O-NO 58 2 min 0,000 mm 2,2 UV-I 656 W/m 0,1 C 8,1 C 9,7 km/h (2 Bft) 95,74 %
11.03.2017 11:48 8,3 C 51 % 1023,9 hPa 0,0 l/m 2,0 km/h (1 Bft) NO 51 2 min 0,000 mm 2,2 UV-I 656 W/m -1,2 C 8,3 C 6,4 km/h (2 Bft) 100,00 %
11.03.2017 11:50 8,0 C 51 % 1023,9 hPa 0,0 l/m 2,2 km/h (1 Bft) NO 53 2 min 0,000 mm 2,2 UV-I 656 W/m -1,5 C 8,0 C 4,8 km/h (1 Bft) 98,11 %
11.03.2017 11:52 8,0 C 54 % 1023,9 hPa 0,0 l/m 2,2 km/h (1 Bft) O-SO 113 2 min 0,000 mm 2,2 UV-I 657 W/m -0,7 C 8,0 C 4,8 km/h (1 Bft) 97,87 %
11.03.2017 11:54 8,0 C 53 % 1023,9 hPa 0,0 l/m 1,6 km/h (1 Bft) O-NO 67 2 min 0,000 mm 2,2 UV-I 657 W/m -1,0 C 8,0 C 4,8 km/h (1 Bft) 91,49 %
11.03.2017 11:56 8,3 C 57 % 1023,9 hPa 0,0 l/m 6,3 km/h (2 Bft) O-NO 60 2 min 0,000 mm 2,2 UV-I 658 W/m 0,3 C 8,3 C 9,7 km/h (2 Bft) 94,00 %
11.03.2017 11:58 8,5 C 55 % 1023,9 hPa 0,0 l/m 6,5 km/h (2 Bft) N-NO 22 2 min 0,000 mm 2,2 UV-I 659 W/m -0,0 C 8,4 C 9,7 km/h (2 Bft) 95,74 %
11.03.2017 12:00 8,5 C 54 % 1023,9 hPa 0,0 l/m 3,9 km/h (1 Bft) N-NO 30 2 min 0,305 mm 2,2 UV-I 660 W/m -0,3 C 8,5 C 6,4 km/h (2 Bft) 100,00 %
11.03.2017 12:02 8,3 C 51 % 1023,9 hPa 0,0 l/m 1,8 km/h (1 Bft) N-NO 30 2 min 0,000 mm 2,2 UV-I 659 W/m -1,2 C 8,3 C 4,8 km/h (1 Bft) 98,00 %
11.03.2017 12:04 8,3 C 53 % 1023,9 hPa 0,0 l/m 1,2 km/h (1 Bft) N-NO 28 2 min 0,000 mm 2,2 UV-I 659 W/m -0,7 C 8,3 C 3,2 km/h (1 Bft) 95,74 %
11.03.2017 12:06 8,3 C 51 % 1023,8 hPa 0,0 l/m 0,8 km/h (0 Bft) N-NO 28 2 min 0,000 mm 2,2 UV-I 657 W/m -1,2 C 8,3 C 3,2 km/h (1 Bft) 97,87 %
11.03.2017 12:08 8,3 C 55 % 1023,8 hPa 0,0 l/m 1,2 km/h (1 Bft) N-NO 19 2 min 0,000 mm 2,2 UV-I 659 W/m -0,2 C 8,3 C 3,2 km/h (1 Bft) 100,00 %
11.03.2017 12:10 8,4 C 55 % 1023,8 hPa 0,0 l/m 1,8 km/h (1 Bft) N 9 2 min 0,000 mm 2,2 UV-I 663 W/m -0,1 C 8,4 C 3,2 km/h (1 Bft) 95,74 %
11.03.2017 12:13 8,4 C 53 % 1023,7 hPa 0,0 l/m 3,8 km/h (1 Bft) O-NO 78 3 min 0,000 mm 2,3 UV-I 660 W/m -0,6 C 8,4 C 8,0 km/h (2 Bft) 95,71 %
11.03.2017 12:14 8,4 C 55 % 1023,7 hPa 0,0 l/m 6,5 km/h (2 Bft) NO 38 1 min 0,000 mm 2,2 UV-I 658 W/m -0,1 C 8,3 C 8,0 km/h (2 Bft) 95,83 %
11.03.2017 12:16 8,7 C 57 % 1023,6 hPa 0,0 l/m 8,7 km/h (2 Bft) N 5 2 min 0,000 mm 2,2 UV-I 659 W/m 0,7 C 7,0 C 12,9 km/h (3 Bft) 100,00 %
11.03.2017 12:18 8,8 C 55 % 1023,6 hPa 0,0 l/m 2,7 km/h (1 Bft) N 355 2 min 0,000 mm 2,2 UV-I 661 W/m 0,3 C 8,8 C 11,3 km/h (2 Bft) 95,74 %
11.03.2017 12:20 8,6 C 54 % 1023,6 hPa 0,0 l/m 1,3 km/h (1 Bft) N 5 2 min 0,000 mm 2,2 UV-I 660 W/m -0,2 C 8,6 C 4,8 km/h (1 Bft) 95,74 %
11.03.2017 12:22 8,6 C 49 % 1023,5 hPa 0,0 l/m 3,6 km/h (1 Bft) SO 126 2 min 0,000 mm 2,2 UV-I 657 W/m -1,5 C 8,6 C 6,4 km/h (2 Bft) 97,87 %
11.03.2017 12:24 8,4 C 52 % 1023,5 hPa 0,0 l/m 3,1 km/h (1 Bft) W-NW 292 2 min 0,000 mm 2,2 UV-I 657 W/m -0,9 C 8,4 C 9,7 km/h (2 Bft) 98,00 %
11.03.2017 12:26 8,4 C 50 % 1023,5 hPa 0,0 l/m 4,0 km/h (1 Bft) W 259 2 min 0,000 mm 2,2 UV-I 656 W/m -1,4 C 8,4 C 9,7 km/h (2 Bft) 95,74 %
11.03.2017 12:28 8,3 C 48 % 1023,4 hPa 0,0 l/m 2,9 km/h (1 Bft) W 277 2 min 0,000 mm 2,2 UV-I 656 W/m -2,1 C 8,3 C 4,8 km/h (1 Bft) 86,84 %
11.03.2017 12:30 8,3 C 51 % 1023,5 hPa 0,0 l/m 1,2 km/h (1 Bft) SW 223 2 min 0,000 mm 2,2 UV-I 654 W/m -1,2 C 8,3 C 4,8 km/h (1 Bft) 94,00 %
11.03.2017 12:32 8,4 C 49 % 1023,4 hPa 0,0 l/m 1,9 km/h (1 Bft) W-NW 294 2 min 0,000 mm 2,2 UV-I 655 W/m -1,7 C 8,4 C 6,4 km/h (2 Bft) 97,87 %
11.03.2017 12:34 8,5 C 49 % 1023,4 hPa 0,0 l/m 2,3 km/h (1 Bft) W-NW 283 2 min 0,000 mm 2,2 UV-I 659 W/m -1,6 C 8,5 C 4,8 km/h (1 Bft) 95,74 %
11.03.2017 12:36 8,5 C 50 % 1023,3 hPa 0,0 l/m 1,9 km/h (1 Bft) W-NW 282 2 min 0,000 mm 2,2 UV-I 659 W/m -1,3 C 8,5 C 4,8 km/h (1 Bft) 91,49 %
11.03.2017 12:38 8,4 C 48 % 1023,2 hPa 0,0 l/m 1,8 km/h (1 Bft) W 281 2 min 0,000 mm 2,3 UV-I 658 W/m -2,0 C 8,4 C 4,8 km/h (1 Bft) 97,87 %
11.03.2017 12:40 8,5 C 48 % 1023,2 hPa 0,0 l/m 1,4 km/h (1 Bft) W 277 2 min 0,000 mm 2,3 UV-I 658 W/m -1,9 C 8,5 C 3,2 km/h (1 Bft) 95,74 %
11.03.2017 12:42 8,6 C 48 % 1023,3 hPa 0,0 l/m 1,5 km/h (1 Bft) NW 306 2 min 0,000 mm 2,3 UV-I 656 W/m -1,8 C 8,6 C 4,8 km/h (1 Bft) 91,49 %
11.03.2017 12:44 8,7 C 51 % 1023,2 hPa 0,0 l/m 2,2 km/h (1 Bft) N-NW 327 2 min 0,000 mm 2,2 UV-I 656 W/m -0,9 C 8,7 C 4,8 km/h (1 Bft) 93,75 %
11.03.2017 12:46 8,9 C 54 % 1023,2 hPa 0,0 l/m 2,0 km/h (1 Bft) N-NO 24 2 min 0,000 mm 2,2 UV-I 654 W/m 0,1 C 8,9 C 4,8 km/h (1 Bft) 97,37 %
11.03.2017 12:48 9,1 C 55 % 1023,2 hPa 0,0 l/m 6,0 km/h (2 Bft) O-NO 63 2 min 0,000 mm 2,2 UV-I 649 W/m 0,5 C 9,1 C 9,7 km/h (2 Bft) 94,44 %
11.03.2017 12:50 8,9 C 53 % 1023,2 hPa 0,0 l/m 4,4 km/h (1 Bft) NO 42 2 min 0,000 mm 2,2 UV-I 648 W/m -0,1 C 8,9 C 6,4 km/h (2 Bft) 93,62 %
11.03.2017 12:52 8,8 C 55 % 1023,1 hPa 0,0 l/m 4,1 km/h (1 Bft) O-NO 74 2 min 0,000 mm 2,2 UV-I 649 W/m 0,3 C 8,8 C 8,0 km/h (2 Bft) 98,00 %
11.03.2017 12:54 8,9 C 54 % 1023,0 hPa 0,0 l/m 6,4 km/h (2 Bft) O-NO 78 2 min 0,000 mm 2,2 UV-I 649 W/m 0,1 C 8,9 C 11,3 km/h (2 Bft) 96,00 %
11.03.2017 12:56 8,9 C 51 % 1023,0 hPa 0,0 l/m 6,4 km/h (2 Bft) NO 51 2 min 0,000 mm 2,2 UV-I 645 W/m -0,7 C 8,9 C 9,7 km/h (2 Bft) 93,62 %
11.03.2017 12:58 8,9 C 51 % 1023,0 hPa 0,0 l/m 4,4 km/h (1 Bft) O-NO 67 2 min 0,000 mm 2,2 UV-I 642 W/m -0,7 C 8,9 C 6,4 km/h (2 Bft) 93,18 %
11.03.2017 13:00 8,9 C 51 % 1023,1 hPa 0,0 l/m 3,7 km/h (1 Bft) O 91 2 min 0,305 mm 2,1 UV-I 637 W/m -0,7 C 8,9 C 9,7 km/h (2 Bft) 94,74 %
11.03.2017 13:02 8,8 C 52 % 1023,0 hPa 0,0 l/m 3,1 km/h (1 Bft) O-NO 71 2 min 0,000 mm 2,1 UV-I 637 W/m -0,5 C 8,8 C 6,4 km/h (2 Bft) 97,87 %
11.03.2017 13:04 8,7 C 52 % 1023,0 hPa 0,0 l/m 0,8 km/h (0 Bft) O-NO 71 2 min 0,000 mm 2,1 UV-I 636 W/m -0,6 C 8,7 C 1,6 km/h (1 Bft) 97,87 %
11.03.2017 13:06 8,7 C 55 % 1023,0 hPa 0,0 l/m 0,4 km/h (0 Bft) O-NO 71 2 min 0,000 mm 2,1 UV-I 631 W/m 0,2 C 8,7 C 1,6 km/h (1 Bft) 97,87 %
11.03.2017 13:08 8,8 C 53 % 1023,0 hPa 0,0 l/m 0,2 km/h (0 Bft) O-NO 71 2 min 0,000 mm 2,1 UV-I 626 W/m -0,2 C 8,8 C 1,6 km/h (1 Bft) 95,74 %
11.03.2017 13:10 8,9 C 54 % 1023,0 hPa 0,0 l/m 1,2 km/h (1 Bft) O-NO 71 2 min 0,000 mm 2,1 UV-I 624 W/m 0,1 C 8,9 C 4,8 km/h (1 Bft) 98,00 %
11.03.2017 13:12 9,1 C 56 % 1022,9 hPa 0,0 l/m 5,4 km/h (1 Bft) O 101 2 min 0,000 mm 2,1 UV-I 622 W/m 0,8 C 9,1 C 6,4 km/h (2 Bft) 100,00 %
11.03.2017 13:14 9,1 C 54 % 1022,9 hPa 0,0 l/m 4,8 km/h (1 Bft) NO 35 2 min 0,000 mm 2,1 UV-I 622 W/m 0,3 C 9,1 C 6,4 km/h (2 Bft) 93,75 %
11.03.2017 13:16 9,2 C 50 % 1022,9 hPa 0,0 l/m 3,7 km/h (1 Bft) N 11 2 min 0,000 mm 2,1 UV-I 624 W/m -0,7 C 9,2 C 8,0 km/h (2 Bft) 100,00 %
11.03.2017 13:18 9,2 C 49 % 1022,9 hPa 0,0 l/m 1,2 km/h (1 Bft) N-NO 30 2 min 0,000 mm 2,1 UV-I 624 W/m -0,9 C 9,2 C 6,4 km/h (2 Bft) 98,00 %
11.03.2017 13:20 9,4 C 58 % 1022,8 hPa 0,0 l/m 2,8 km/h (1 Bft) N-NW 329 2 min 0,000 mm 2,1 UV-I 625 W/m 1,6 C 9,4 C 6,4 km/h (2 Bft) 98,11 %
11.03.2017 13:22 9,4 C 52 % 1022,8 hPa 0,0 l/m 2,1 km/h (1 Bft) N 5 2 min 0,000 mm 2,1 UV-I 627 W/m 0,1 C 9,4 C 4,8 km/h (1 Bft) 100,00 %
11.03.2017 13:24 9,4 C 54 % 1022,7 hPa 0,0 l/m 4,1 km/h (1 Bft) N-NO 22 2 min 0,000 mm 2,0 UV-I 627 W/m 0,6 C 9,4 C 14,5 km/h (3 Bft) 96,08 %
11.03.2017 13:26 9,5 C 55 % 1022,6 hPa 0,0 l/m 9,9 km/h (2 Bft) N-NO 33 2 min 0,000 mm 2,0 UV-I 623 W/m 0,9 C 7,1 C 14,5 km/h (3 Bft) 95,12 %
11.03.2017 13:28 9,7 C 57 % 1022,6 hPa 0,0 l/m 1,7 km/h (1 Bft) N-NW 330 2 min 0,000 mm 2,0 UV-I 621 W/m 1,6 C 9,7 C 3,2 km/h (1 Bft) 97,56 %
11.03.2017 13:30 9,5 C 52 % 1022,6 hPa 0,0 l/m 6,3 km/h (2 Bft) N-NO 19 2 min 0,000 mm 2,0 UV-I 622 W/m 0,1 C 9,5 C 12,9 km/h (3 Bft) 100,00 %
11.03.2017 13:32 9,4 C 50 % 1022,6 hPa 0,0 l/m 3,3 km/h (1 Bft) N-NO 21 2 min 0,000 mm 2,0 UV-I 634 W/m -0,5 C 9,4 C 8,0 km/h (2 Bft) 94,29 %
11.03.2017 13:34 9,3 C 51 % 1022,6 hPa 0,0 l/m 1,2 km/h (1 Bft) N 9 2 min 0,000 mm 2,0 UV-I 641 W/m -0,3 C 9,3 C 4,8 km/h (1 Bft) 98,46 %
11.03.2017 13:36 9,1 C 48 % 1022,5 hPa 0,0 l/m 0,9 km/h (0 Bft) N-NO 13 2 min 0,000 mm 2,0 UV-I 654 W/m -1,3 C 9,1 C 3,2 km/h (1 Bft) 97,37 %
11.03.2017 13:38 9,2 C 52 % 1022,4 hPa 0,0 l/m 4,7 km/h (1 Bft) N 10 2 min 0,000 mm 2,0 UV-I 670 W/m -0,1 C 9,2 C 8,0 km/h (2 Bft) 98,11 %
11.03.2017 13:40 9,4 C 53 % 1022,4 hPa 0,0 l/m 2,8 km/h (1 Bft) N-NO 13 2 min 0,000 mm 1,6 UV-I 474 W/m 0,3 C 9,4 C 6,4 km/h (2 Bft) 100,00 %
11.03.2017 13:42 9,3 C 51 % 1022,4 hPa 0,0 l/m 1,6 km/h (1 Bft) N 355 2 min 0,000 mm 2,0 UV-I 402 W/m -0,3 C 9,3 C 6,4 km/h (2 Bft) 98,00 %
11.03.2017 13:44 9,4 C 56 % 1022,3 hPa 0,0 l/m 4,9 km/h (1 Bft) N-NO 14 2 min 0,000 mm 2,0 UV-I 687 W/m 1,1 C 9,4 C 16,1 km/h (3 Bft) 100,00 %
11.03.2017 13:46 9,6 C 52 % 1022,3 hPa 0,0 l/m 9,9 km/h (2 Bft) N-NO 30 2 min 0,000 mm 1,6 UV-I 705 W/m 0,2 C 7,2 C 16,1 km/h (3 Bft) 97,73 %
11.03.2017 13:48 9,6 C 52 % 1022,2 hPa 0,0 l/m 4,4 km/h (1 Bft) N-NO 30 2 min 0,000 mm 1,7 UV-I 705 W/m 0,2 C 9,6 C 9,7 km/h (2 Bft) 100,00 %
11.03.2017 13:50 9,6 C 53 % 1022,1 hPa 0,0 l/m 7,8 km/h (2 Bft) NO 50 2 min 0,000 mm 1,4 UV-I 467 W/m 0,5 C 8,6 C 9,7 km/h (2 Bft) 92,11 %
11.03.2017 13:52 9,3 C 48 % 1022,1 hPa 0,0 l/m 2,3 km/h (1 Bft) NO 50 2 min 0,000 mm 1,5 UV-I 386 W/m -1,1 C 9,3 C 4,8 km/h (1 Bft) 98,11 %
11.03.2017 13:54 9,1 C 47 % 1022,1 hPa 0,0 l/m 0,3 km/h (0 Bft) NO 50 2 min 0,000 mm 1,5 UV-I 425 W/m -1,6 C 9,1 C 1,6 km/h (1 Bft) 100,00 %
11.03.2017 13:56 9,0 C 47 % 1022,0 hPa 0,0 l/m 0,9 km/h (0 Bft) NO 50 2 min 0,000 mm 1,4 UV-I 492 W/m -1,7 C 9,0 C 1,6 km/h (1 Bft) 97,44 %
11.03.2017 13:58 9,0 C 48 % 1022,0 hPa 0,0 l/m 1,2 km/h (1 Bft) NO 47 2 min 0,000 mm 1,4 UV-I 340 W/m -1,4 C 9,0 C 3,2 km/h (1 Bft) 97,96 %
11.03.2017 14:00 9,1 C 51 % 1021,9 hPa 0,0 l/m 2,1 km/h (1 Bft) NO 50 2 min 0,279 mm 1,4 UV-I 346 W/m -0,5 C 9,1 C 12,9 km/h (3 Bft) 100,00 %
11.03.2017 14:02 9,3 C 54 % 1021,9 hPa 0,0 l/m 8,2 km/h (2 Bft) N-NO 15 2 min 0,000 mm 1,6 UV-I 353 W/m 0,5 C 8,0 C 16,1 km/h (3 Bft) 94,64 %
11.03.2017 14:04 9,4 C 53 % 1021,9 hPa 0,0 l/m 8,4 km/h (2 Bft) NO 36 2 min 0,000 mm 1,4 UV-I 364 W/m 0,3 C 7,9 C 14,5 km/h (3 Bft) 95,45 %
11.03.2017 14:06 9,4 C 51 % 1021,8 hPa 0,0 l/m 9,0 km/h (2 Bft) NO 36 0 min 0,000 mm 1,3 UV-I 299 W/m -0,2 C 7,6 C 16,1 km/h (3 Bft) 98,00 %
11.03.2017 14:08 9,3 C 53 % 1021,8 hPa 0,0 l/m 9,6 km/h (2 Bft) NO 46 0 min 0,000 mm 1,2 UV-I 281 W/m 0,2 C 7,1 C 14,5 km/h (3 Bft) 100,00 %
11.03.2017 14:10 9,3 C 48 % 1021,8 hPa 0,0 l/m 5,8 km/h (2 Bft) NO 48 2 min 0,000 mm 1,7 UV-I 498 W/m -1,1 C 9,3 C 9,7 km/h (2 Bft) 93,62 %
11.03.2017 14:12 9,4 C 52 % 1021,7 hPa 0,0 l/m 6,7 km/h (2 Bft) NO 37 2 min 0,000 mm 1,5 UV-I 589 W/m 0,1 C 9,2 C 12,9 km/h (3 Bft) 94,29 %
11.03.2017 14:14 9,6 C 47 % 1021,7 hPa 0,0 l/m 4,0 km/h (1 Bft) NO 44 2 min 0,000 mm 1,6 UV-I 515 W/m -1,1 C 9,6 C 6,4 km/h (2 Bft) 92,45 %
11.03.2017 14:16 9,3 C 48 % 1021,7 hPa 0,0 l/m 3,3 km/h (1 Bft) NO 56 2 min 0,000 mm 1,5 UV-I 440 W/m -1,1 C 9,3 C 6,4 km/h (2 Bft) 95,12 %
11.03.2017 14:18 9,2 C 46 % 1021,7 hPa 0,0 l/m 1,6 km/h (1 Bft) O-NO 58 2 min 0,000 mm 1,4 UV-I 524 W/m -1,8 C 9,2 C 4,8 km/h (1 Bft) 98,11 %
11.03.2017 14:20 9,2 C 46 % 1021,7 hPa 0,0 l/m 4,5 km/h (1 Bft) O-NO 68 2 min 0,000 mm 1,5 UV-I 619 W/m -1,8 C 9,2 C 8,0 km/h (2 Bft) 97,56 %
11.03.2017 14:22 9,2 C 48 % 1021,6 hPa 0,0 l/m 7,0 km/h (2 Bft) NO 46 2 min 0,000 mm 1,2 UV-I 295 W/m -1,2 C 8,8 C 12,9 km/h (3 Bft) 95,45 %
11.03.2017 14:24 9,1 C 46 % 1021,5 hPa 0,0 l/m 1,3 km/h (1 Bft) NO 46 0 min 0,000 mm 1,1 UV-I 275 W/m -1,9 C 9,1 C 4,8 km/h (1 Bft) 96,00 %
11.03.2017 14:26 8,9 C 45 % 1021,6 hPa 0,0 l/m 0,7 km/h (0 Bft) NO 46 2 min 0,000 mm 1,3 UV-I 287 W/m -2,4 C 8,9 C 3,2 km/h (1 Bft) 87,23 %
11.03.2017 14:28 8,9 C 49 % 1021,6 hPa 0,0 l/m 0,2 km/h (0 Bft) NO 46 0 min 0,000 mm 1,1 UV-I 278 W/m -1,2 C 8,9 C 1,6 km/h (1 Bft) 93,62 %
11.03.2017 14:30 8,9 C 45 % 1021,6 hPa 0,0 l/m 1,6 km/h (1 Bft) NO 46 2 min 0,000 mm 1,1 UV-I 295 W/m -2,4 C 8,9 C 3,2 km/h (1 Bft) 97,87 %
11.03.2017 14:32 8,8 C 45 % 1021,6 hPa 0,0 l/m 2,1 km/h (1 Bft) O 94 2 min 0,000 mm 1,1 UV-I 292 W/m -2,5 C 8,8 C 4,8 km/h (1 Bft) 94,34 %
11.03.2017 14:34 8,8 C 44 % 1021,5 hPa 0,0 l/m 0,1 km/h (0 Bft) O 94 2 min 0,000 mm 1,1 UV-I 318 W/m -2,8 C 8,8 C 1,6 km/h (1 Bft) 92,00 %
11.03.2017 14:36 8,8 C 46 % 1021,6 hPa 0,0 l/m 4,3 km/h (1 Bft) NO 52 0 min 0,000 mm 1,0 UV-I 271 W/m -2,2 C 8,8 C 11,3 km/h (2 Bft) 94,44 %
11.03.2017 14:38 9,0 C 52 % 1021,6 hPa 0,0 l/m 8,4 km/h (2 Bft) NO 47 2 min 0,000 mm 1,1 UV-I 343 W/m -0,3 C 7,5 C 16,1 km/h (3 Bft) 92,31 %
11.03.2017 14:40 9,1 C 50 % 1021,6 hPa 0,0 l/m 8,6 km/h (2 Bft) NO 53 2 min 0,000 mm 1,2 UV-I 470 W/m -0,8 C 7,5 C 12,9 km/h (3 Bft) 100,00 %
11.03.2017 14:42 9,1 C 50 % 1021,6 hPa 0,0 l/m 8,0 km/h (2 Bft) NO 52 2 min 0,000 mm 1,0 UV-I 309 W/m -0,8 C 7,9 C 14,5 km/h (3 Bft) 100,00 %
11.03.2017 14:44 9,0 C 50 % 1021,6 hPa 0,0 l/m 6,0 km/h (2 Bft) O-NO 63 0 min 0,000 mm 1,2 UV-I 260 W/m -0,9 C 9,0 C 14,5 km/h (3 Bft) 96,00 %
11.03.2017 14:46 9,1 C 51 % 1021,6 hPa 0,0 l/m 6,2 km/h (2 Bft) O-NO 60 2 min 0,000 mm 1,1 UV-I 345 W/m -0,5 C 9,1 C 11,3 km/h (2 Bft) 100,00 %
11.03.2017 14:48 9,2 C 52 % 1021,6 hPa 0,0 l/m 6,9 km/h (2 Bft) O-NO 59 2 min 0,000 mm 1,1 UV-I 402 W/m -0,1 C 8,8 C 9,7 km/h (2 Bft) 100,00 %
11.03.2017 14:50 9,3 C 52 % 1021,6 hPa 0,0 l/m 7,0 km/h (2 Bft) O-NO 71 2 min 0,000 mm 1,0 UV-I 458 W/m -0,0 C 8,9 C 9,7 km/h (2 Bft) 94,64 %
11.03.2017 14:52 9,3 C 53 % 1021,5 hPa 0,0 l/m 4,8 km/h (1 Bft) O-NO 59 2 min 0,000 mm 1,2 UV-I 489 W/m 0,2 C 9,3 C 8,0 km/h (2 Bft) 97,37 %
11.03.2017 14:54 9,4 C 52 % 1021,5 hPa 0,0 l/m 5,5 km/h (1 Bft) NO 40 2 min 0,000 mm 1,2 UV-I 495 W/m 0,1 C 9,4 C 8,0 km/h (2 Bft) 98,11 %
11.03.2017 14:56 9,6 C 48 % 1021,4 hPa 0,0 l/m 8,1 km/h (2 Bft) NO 45 2 min 0,000 mm 1,2 UV-I 486 W/m -0,9 C 8,4 C 12,9 km/h (3 Bft) 100,00 %
11.03.2017 14:58 9,6 C 51 % 1021,5 hPa 0,0 l/m 4,2 km/h (1 Bft) O 79 2 min 0,000 mm 1,1 UV-I 484 W/m -0,0 C 9,6 C 11,3 km/h (2 Bft) 100,00 %
11.03.2017 15:00 9,6 C 47 % 1021,4 hPa 0,0 l/m 8,1 km/h (2 Bft) O-SO 123 2 min 0,203 mm 1,1 UV-I 487 W/m -1,1 C 8,4 C 11,3 km/h (2 Bft) 100,00 %
11.03.2017 15:03 9,2 C 48 % 1021,4 hPa 0,0 l/m 4,9 km/h (1 Bft) SO 131 3 min 0,000 mm 1,0 UV-I 429 W/m -1,2 C 9,2 C 9,7 km/h (2 Bft) 97,06 %
11.03.2017 15:04 9,1 C 48 % 1021,3 hPa 0,0 l/m 0,8 km/h (0 Bft) O 79 1 min 0,000 mm 1,0 UV-I 416 W/m -1,3 C 9,1 C 4,8 km/h (1 Bft) 96,15 %
11.03.2017 15:06 9,2 C 49 % 1021,3 hPa 0,0 l/m 4,6 km/h (1 Bft) O 88 2 min 0,000 mm 1,0 UV-I 426 W/m -0,9 C 9,2 C 6,4 km/h (2 Bft) 100,00 %
11.03.2017 15:08 9,2 C 49 % 1021,3 hPa 0,0 l/m 4,5 km/h (1 Bft) SO 127 2 min 0,000 mm 1,0 UV-I 411 W/m -0,9 C 9,2 C 11,3 km/h (2 Bft) 96,23 %
11.03.2017 15:10 9,3 C 50 % 1021,3 hPa 0,0 l/m 8,5 km/h (2 Bft) O-SO 115 2 min 0,000 mm 0,9 UV-I 409 W/m -0,6 C 7,8 C 14,5 km/h (3 Bft) 97,56 %
11.03.2017 15:12 9,2 C 48 % 1021,3 hPa 0,0 l/m 4,2 km/h (1 Bft) S 173 2 min 0,000 mm 0,9 UV-I 338 W/m -1,2 C 9,2 C 8,0 km/h (2 Bft) 94,00 %
11.03.2017 15:14 9,2 C 51 % 1021,2 hPa 0,0 l/m 7,0 km/h (2 Bft) S-SW 195 2 min 0,000 mm 0,8 UV-I 296 W/m -0,4 C 8,8 C 12,9 km/h (3 Bft) 100,00 %
11.03.2017 15:16 9,1 C 49 % 1021,2 hPa 0,0 l/m 4,4 km/h (1 Bft) S-SO 161 2 min 0,000 mm 0,8 UV-I 276 W/m -1,0 C 9,1 C 8,0 km/h (2 Bft) 100,00 %
11.03.2017 15:18 9,0 C 50 % 1021,2 hPa 0,0 l/m 2,3 km/h (1 Bft) S-SO 150 2 min 0,000 mm 0,8 UV-I 296 W/m -0,9 C 9,0 C 4,8 km/h (1 Bft) 100,00 %
11.03.2017 15:20 9,0 C 52 % 1021,2 hPa 0,0 l/m 4,1 km/h (1 Bft) O-NO 76 2 min 0,000 mm 0,8 UV-I 321 W/m -0,3 C 9,0 C 11,3 km/h (2 Bft) 97,62 %
11.03.2017 15:22 9,1 C 52 % 1021,2 hPa 0,0 l/m 5,6 km/h (1 Bft) NO 52 2 min 0,000 mm 0,8 UV-I 271 W/m -0,2 C 9,1 C 9,7 km/h (2 Bft) 98,11 %
11.03.2017 15:24 9,0 C 52 % 1021,1 hPa 0,0 l/m 6,6 km/h (2 Bft) NO 40 2 min 0,000 mm 0,8 UV-I 278 W/m -0,3 C 8,9 C 9,7 km/h (2 Bft) 97,37 %
11.03.2017 15:26 8,9 C 52 % 1021,1 hPa 0,0 l/m 3,1 km/h (1 Bft) NO 38 2 min 0,000 mm 0,7 UV-I 227 W/m -0,4 C 8,9 C 6,4 km/h (2 Bft) 94,64 %
11.03.2017 15:28 8,9 C 54 % 1021,1 hPa 0,0 l/m 3,3 km/h (1 Bft) N-NO 30 2 min 0,000 mm 0,7 UV-I 279 W/m 0,1 C 8,9 C 6,4 km/h (2 Bft) 100,00 %
11.03.2017 15:30 9,1 C 55 % 1021,2 hPa 0,0 l/m 3,5 km/h (1 Bft) N-NO 30 2 min 0,000 mm 0,7 UV-I 238 W/m 0,5 C 9,1 C 6,4 km/h (2 Bft) 98,11 %
11.03.2017 15:32 9,0 C 53 % 1021,1 hPa 0,0 l/m 7,0 km/h (2 Bft) N-NO 25 2 min 0,000 mm 0,6 UV-I 226 W/m -0,1 C 8,5 C 16,1 km/h (3 Bft) 100,00 %
11.03.2017 15:34 9,0 C 55 % 1021,1 hPa 0,0 l/m 11,3 km/h (2 Bft) N-NO 27 2 min 0,000 mm 0,6 UV-I 219 W/m 0,5 C 5,7 C 14,5 km/h (3 Bft) 98,11 %
11.03.2017 15:36 9,0 C 57 % 1021,1 hPa 0,0 l/m 5,1 km/h (1 Bft) N 9 2 min 0,000 mm 0,6 UV-I 211 W/m 0,9 C 9,0 C 9,7 km/h (2 Bft) 97,73 %
11.03.2017 15:38 8,9 C 53 % 1021,1 hPa 0,0 l/m 1,3 km/h (1 Bft) N-NW 340 0 min 0,000 mm 0,6 UV-I 203 W/m -0,1 C 8,9 C 4,8 km/h (1 Bft) 97,87 %
11.03.2017 15:40 8,9 C 58 % 1021,1 hPa 0,0 l/m 0,8 km/h (0 Bft) N 360 0 min 0,000 mm 0,5 UV-I 196 W/m 1,1 C 8,9 C 3,2 km/h (1 Bft) 100,00 %
11.03.2017 15:42 8,9 C 58 % 1021,1 hPa 0,0 l/m 2,2 km/h (1 Bft) NO 44 0 min 0,000 mm 0,5 UV-I 193 W/m 1,1 C 8,9 C 8,0 km/h (2 Bft) 97,87 %
11.03.2017 15:44 8,9 C 56 % 1021,1 hPa 0,0 l/m 5,8 km/h (2 Bft) NO 46 0 min 0,000 mm 0,5 UV-I 195 W/m 0,6 C 8,9 C 8,0 km/h (2 Bft) 100,00 %
11.03.2017 15:46 8,9 C 55 % 1021,1 hPa 0,0 l/m 6,1 km/h (2 Bft) N-NO 26 0 min 0,000 mm 0,5 UV-I 193 W/m 0,4 C 8,9 C 9,7 km/h (2 Bft) 96,23 %
11.03.2017 15:48 8,9 C 53 % 1021,1 hPa 0,0 l/m 4,3 km/h (1 Bft) N-NO 33 0 min 0,000 mm 0,5 UV-I 191 W/m -0,1 C 8,9 C 8,0 km/h (2 Bft) 97,87 %
11.03.2017 15:50 9,1 C 55 % 1021,1 hPa 0,0 l/m 0,7 km/h (0 Bft) N-NO 33 0 min 0,000 mm 0,5 UV-I 186 W/m 0,5 C 9,1 C 4,8 km/h (1 Bft) 97,56 %
11.03.2017 15:52 9,1 C 54 % 1021,1 hPa 0,0 l/m 2,0 km/h (1 Bft) N-NO 33 0 min 0,000 mm 0,0 UV-I 178 W/m 0,3 C 9,1 C 4,8 km/h (1 Bft) 98,21 %
11.03.2017 15:54 8,9 C 55 % 1021,1 hPa 0,0 l/m 1,1 km/h (1 Bft) N-NO 33 0 min 0,000 mm 0,0 UV-I 166 W/m 0,4 C 8,9 C 4,8 km/h (1 Bft) 97,73 %
11.03.2017 15:56 8,9 C 53 % 1021,1 hPa 0,0 l/m 0,5 km/h (0 Bft) N-NO 33 0 min 0,000 mm 0,0 UV-I 156 W/m -0,1 C 8,9 C 1,6 km/h (1 Bft) 96,00 %
11.03.2017 15:58 8,8 C 52 % 1021,1 hPa 0,0 l/m 3,2 km/h (1 Bft) NO 49 0 min 0,000 mm 0,0 UV-I 155 W/m -0,5 C 8,8 C 6,4 km/h (2 Bft) 100,00 %
11.03.2017 16:00 8,8 C 51 % 1021,1 hPa 0,0 l/m 2,8 km/h (1 Bft) NO 51 0 min 0,000 mm 0,0 UV-I 153 W/m -0,8 C 8,8 C 4,8 km/h (1 Bft) 98,11 %
11.03.2017 16:03 8,7 C 50 % 1021,1 hPa 0,0 l/m 1,8 km/h (1 Bft) NO 51 0 min 0,127 mm 0,0 UV-I 149 W/m -1,1 C 8,7 C 4,8 km/h (1 Bft) 100,00 %
11.03.2017 16:04 8,7 C 50 % 1021,1 hPa 0,0 l/m 0,1 km/h (0 Bft) NO 51 0 min 0,000 mm 0,0 UV-I 146 W/m -1,1 C 8,7 C 1,6 km/h (1 Bft) 91,67 %
11.03.2017 16:06 8,7 C 55 % 1021,0 hPa 0,0 l/m 3,4 km/h (1 Bft) NO 34 0 min 0,000 mm 0,0 UV-I 143 W/m 0,2 C 8,7 C 4,8 km/h (1 Bft) 100,00 %
11.03.2017 16:08 8,7 C 55 % 1021,0 hPa 0,0 l/m 5,9 km/h (2 Bft) NO 34 0 min 0,000 mm 0,0 UV-I 141 W/m 0,2 C 8,7 C 8,0 km/h (2 Bft) 100,00 %
11.03.2017 16:10 8,7 C 54 % 1021,0 hPa 0,0 l/m 2,0 km/h (1 Bft) NO 34 0 min 0,000 mm 0,0 UV-I 140 W/m -0,1 C 8,7 C 6,4 km/h (2 Bft) 97,87 %
11.03.2017 16:12 8,7 C 54 % 1020,9 hPa 0,0 l/m 1,1 km/h (1 Bft) NO 34 0 min 0,000 mm 0,0 UV-I 142 W/m -0,1 C 8,7 C 3,2 km/h (1 Bft) 97,37 %
11.03.2017 16:14 8,7 C 52 % 1021,0 hPa 0,0 l/m 0,4 km/h (0 Bft) NO 34 0 min 0,000 mm 0,0 UV-I 144 W/m -0,6 C 8,7 C 1,6 km/h (1 Bft) 94,34 %
11.03.2017 16:16 8,7 C 54 % 1021,0 hPa 0,0 l/m 1,7 km/h (1 Bft) N-NO 33 0 min 0,000 mm 0,0 UV-I 142 W/m -0,1 C 8,7 C 4,8 km/h (1 Bft) 97,87 %
11.03.2017 16:18 8,6 C 56 % 1021,0 hPa 0,0 l/m 1,1 km/h (1 Bft) N-NO 30 0 min 0,000 mm 0,0 UV-I 134 W/m 0,3 C 8,6 C 3,2 km/h (1 Bft) 97,56 %
11.03.2017 16:20 8,6 C 54 % 1021,0 hPa 0,0 l/m 1,5 km/h (1 Bft) N-NO 30 0 min 0,000 mm 0,0 UV-I 124 W/m -0,2 C 8,6 C 4,8 km/h (1 Bft) 94,34 %
11.03.2017 16:22 8,6 C 54 % 1021,0 hPa 0,0 l/m 2,0 km/h (1 Bft) N-NO 24 0 min 0,000 mm 0,0 UV-I 118 W/m -0,2 C 8,6 C 6,4 km/h (2 Bft) 94,00 %
11.03.2017 16:24 8,5 C 54 % 1021,0 hPa 0,0 l/m 0,7 km/h (0 Bft) N-NO 24 0 min 0,000 mm 0,0 UV-I 114 W/m -0,3 C 8,5 C 3,2 km/h (1 Bft) 95,74 %
11.03.2017 16:26 8,5 C 53 % 1020,9 hPa 0,0 l/m 1,9 km/h (1 Bft) N-NO 24 0 min 0,000 mm 0,0 UV-I 113 W/m -0,5 C 8,5 C 3,2 km/h (1 Bft) 95,45 %
11.03.2017 16:28 8,6 C 53 % 1021,0 hPa 0,0 l/m 1,5 km/h (1 Bft) N-NO 24 0 min 0,000 mm 0,0 UV-I 112 W/m -0,4 C 8,6 C 3,2 km/h (1 Bft) 89,47 %
11.03.2017 16:30 8,6 C 54 % 1021,0 hPa 0,0 l/m 1,1 km/h (1 Bft) N-NO 24 0 min 0,000 mm 0,0 UV-I 109 W/m -0,2 C 8,6 C 3,2 km/h (1 Bft) 94,34 %
11.03.2017 16:32 8,7 C 55 % 1021,0 hPa 0,0 l/m 0,7 km/h (0 Bft) N-NO 24 0 min 0,000 mm 0,0 UV-I 104 W/m 0,2 C 8,7 C 1,6 km/h (1 Bft) 92,00 %
11.03.2017 16:35 8,6 C 52 % 1021,0 hPa 0,0 l/m 0,4 km/h (0 Bft) N-NO 24 0 min 0,000 mm 0,0 UV-I 100 W/m -0,7 C 8,6 C 1,6 km/h (1 Bft) 93,24 %
11.03.2017 16:36 8,6 C 54 % 1021,0 hPa 0,0 l/m 0,0 km/h (0 Bft) N-NO 24 0 min 0,000 mm 0,0 UV-I 98 W/m -0,2 C 8,6 C 0,0 km/h (0 Bft) 91,67 %
11.03.2017 16:38 8,6 C 55 % 1020,9 hPa 0,0 l/m 0,1 km/h (0 Bft) N-NO 24 0 min 0,000 mm 0,0 UV-I 95 W/m 0,1 C 8,6 C 1,6 km/h (1 Bft) 92,00 %
11.03.2017 16:40 8,6 C 54 % 1021,0 hPa 0,0 l/m 0,0 km/h (0 Bft) N-NO 24 0 min 0,000 mm 0,0 UV-I 91 W/m -0,2 C 8,6 C 0,0 km/h (0 Bft) 93,88 %
11.03.2017 16:42 8,5 C 54 % 1021,0 hPa 0,0 l/m 0,0 km/h (0 Bft) N-NO 24 0 min 0,000 mm 0,0 UV-I 87 W/m -0,3 C 8,5 C 1,6 km/h (1 Bft) 92,45 %
11.03.2017 16:44 8,5 C 53 % 1020,9 hPa 0,0 l/m 0,1 km/h (0 Bft) N-NO 24 0 min 0,000 mm 0,0 UV-I 83 W/m -0,5 C 8,5 C 1,6 km/h (1 Bft) 92,11 %
11.03.2017 16:46 8,5 C 54 % 1020,9 hPa 0,0 l/m 0,1 km/h (0 Bft) N-NO 24 0 min 0,000 mm 0,0 UV-I 81 W/m -0,3 C 8,5 C 1,6 km/h (1 Bft) 94,00 %
11.03.2017 16:48 8,4 C 56 % 1021,0 hPa 0,0 l/m 0,7 km/h (0 Bft) N-NO 24 0 min 0,000 mm 0,0 UV-I 78 W/m 0,1 C 8,4 C 3,2 km/h (1 Bft) 95,12 %
11.03.2017 16:50 8,4 C 53 % 1021,0 hPa 0,0 l/m 1,5 km/h (1 Bft) N-NO 24 0 min 0,000 mm 0,0 UV-I 74 W/m -0,6 C 8,4 C 3,2 km/h (1 Bft) 97,87 %
11.03.2017 16:52 8,4 C 55 % 1021,0 hPa 0,0 l/m 0,3 km/h (0 Bft) N-NO 24 0 min 0,000 mm 0,0 UV-I 70 W/m -0,1 C 8,4 C 1,6 km/h (1 Bft) 98,00 %
11.03.2017 16:54 8,4 C 58 % 1020,9 hPa 0,0 l/m 0,1 km/h (0 Bft) N-NO 24 0 min 0,000 mm 0,0 UV-I 68 W/m 0,6 C 8,4 C 1,6 km/h (1 Bft) 97,87 %
11.03.2017 16:56 8,4 C 56 % 1020,9 hPa 0,0 l/m 0,0 km/h (0 Bft) N-NO 24 0 min 0,000 mm 0,0 UV-I 64 W/m 0,1 C 8,4 C 0,0 km/h (0 Bft) 98,00 %
11.03.2017 16:58 8,3 C 56 % 1020,9 hPa 0,0 l/m 0,0 km/h (0 Bft) N-NO 24 0 min 0,000 mm 0,0 UV-I 62 W/m 0,0 C 8,3 C 0,0 km/h (0 Bft) 96,00 %
11.03.2017 17:00 8,3 C 54 % 1020,9 hPa 0,0 l/m 0,1 km/h (0 Bft) N-NO 24 0 min 0,051 mm 0,0 UV-I 60 W/m -0,5 C 8,3 C 1,6 km/h (1 Bft) 97,37 %
11.03.2017 17:04 8,3 C 59 % 1020,9 hPa 0,0 l/m 1,3 km/h (1 Bft) N-NO 24 0 min 0,000 mm 0,0 UV-I 56 W/m 0,8 C 8,3 C 4,8 km/h (1 Bft) 95,88 %
11.03.2017 17:06 8,3 C 55 % 1020,9 hPa 0,0 l/m 3,7 km/h (1 Bft) N-NO 32 0 min 0,000 mm 0,0 UV-I 53 W/m -0,2 C 8,3 C 6,4 km/h (2 Bft) 96,00 %
11.03.2017 17:08 8,3 C 56 % 1020,9 hPa 0,0 l/m 3,1 km/h (1 Bft) N-NO 32 0 min 0,000 mm 0,0 UV-I 50 W/m 0,0 C 8,3 C 4,8 km/h (1 Bft) 94,74 %
11.03.2017 17:10 8,4 C 54 % 1020,8 hPa 0,0 l/m 2,6 km/h (1 Bft) N-NO 32 0 min 0,000 mm 0,0 UV-I 47 W/m -0,4 C 8,4 C 4,8 km/h (1 Bft) 96,23 %
11.03.2017 17:12 8,3 C 59 % 1020,8 hPa 0,0 l/m 2,8 km/h (1 Bft) NO 34 0 min 0,000 mm 0,0 UV-I 45 W/m 0,8 C 8,3 C 4,8 km/h (1 Bft) 94,87 %
11.03.2017 17:14 8,2 C 60 % 1020,9 hPa 0,0 l/m 3,1 km/h (1 Bft) NO 49 0 min 0,000 mm 0,0 UV-I 42 W/m 0,9 C 8,2 C 4,8 km/h (1 Bft) 94,55 %
11.03.2017 17:16 8,1 C 61 % 1020,8 hPa 0,0 l/m 3,0 km/h (1 Bft) NO 51 0 min 0,000 mm 0,0 UV-I 40 W/m 1,0 C 8,1 C 4,8 km/h (1 Bft) 97,78 %
11.03.2017 17:18 8,0 C 63 % 1020,8 hPa 0,0 l/m 3,2 km/h (1 Bft) NO 55 0 min 0,000 mm 0,0 UV-I 39 W/m 1,4 C 8,0 C 4,8 km/h (1 Bft) 96,00 %
11.03.2017 17:20 7,9 C 63 % 1020,8 hPa 0,0 l/m 4,0 km/h (1 Bft) O 87 0 min 0,000 mm 0,0 UV-I 38 W/m 1,3 C 7,9 C 4,8 km/h (1 Bft) 92,31 %
11.03.2017 17:22 7,8 C 63 % 1020,8 hPa 0,0 l/m 4,1 km/h (1 Bft) O 87 0 min 0,000 mm 0,0 UV-I 36 W/m 1,2 C 7,8 C 4,8 km/h (1 Bft) 95,38 %
11.03.2017 17:24 7,8 C 63 % 1020,8 hPa 0,0 l/m 3,6 km/h (1 Bft) O 87 0 min 0,000 mm 0,0 UV-I 34 W/m 1,2 C 7,8 C 4,8 km/h (1 Bft) 97,87 %
11.03.2017 17:26 7,7 C 65 % 1020,7 hPa 0,0 l/m 4,0 km/h (1 Bft) O 90 0 min 0,000 mm 0,0 UV-I 33 W/m 1,5 C 7,7 C 6,4 km/h (2 Bft) 95,45 %
11.03.2017 17:28 7,7 C 60 % 1020,7 hPa 0,0 l/m 4,2 km/h (1 Bft) O 90 0 min 0,000 mm 0,0 UV-I 31 W/m 0,4 C 7,7 C 6,4 km/h (2 Bft) 94,00 %
11.03.2017 17:30 7,7 C 62 % 1020,7 hPa 0,0 l/m 3,5 km/h (1 Bft) O 90 0 min 0,000 mm 0,0 UV-I 29 W/m 0,9 C 7,7 C 4,8 km/h (1 Bft) 92,68 %
11.03.2017 17:32 7,7 C 60 % 1020,7 hPa 0,0 l/m 3,1 km/h (1 Bft) O 90 0 min 0,000 mm 0,0 UV-I 27 W/m 0,4 C 7,7 C 4,8 km/h (1 Bft) 96,23 %
11.03.2017 17:34 7,7 C 61 % 1020,7 hPa 0,0 l/m 3,9 km/h (1 Bft) O 90 0 min 0,000 mm 0,0 UV-I 26 W/m 0,7 C 7,7 C 4,8 km/h (1 Bft) 94,34 %
11.03.2017 17:36 7,7 C 59 % 1020,6 hPa 0,0 l/m 4,1 km/h (1 Bft) O 90 0 min 0,000 mm 0,0 UV-I 25 W/m 0,2 C 7,7 C 4,8 km/h (1 Bft) 92,11 %
11.03.2017 17:38 7,8 C 59 % 1020,6 hPa 0,0 l/m 4,7 km/h (1 Bft) O 90 0 min 0,000 mm 0,0 UV-I 22 W/m 0,3 C 7,8 C 6,4 km/h (2 Bft) 96,00 %
11.03.2017 17:40 7,7 C 60 % 1020,6 hPa 0,0 l/m 4,4 km/h (1 Bft) O 90 0 min 0,000 mm 0,0 UV-I 21 W/m 0,4 C 7,7 C 6,4 km/h (2 Bft) 100,00 %
11.03.2017 17:42 7,7 C 60 % 1020,6 hPa 0,0 l/m 4,1 km/h (1 Bft) O 90 0 min 0,000 mm 0,0 UV-I 19 W/m 0,4 C 7,7 C 4,8 km/h (1 Bft) 94,74 %
11.03.2017 17:44 7,7 C 61 % 1020,6 hPa 0,0 l/m 4,1 km/h (1 Bft) O 90 0 min 0,000 mm 0,0 UV-I 17 W/m 0,7 C 7,7 C 4,8 km/h (1 Bft) 94,34 %
11.03.2017 17:46 7,7 C 62 % 1020,6 hPa 0,0 l/m 4,7 km/h (1 Bft) O 90 0 min 0,000 mm 0,0 UV-I 16 W/m 0,9 C 7,7 C 6,4 km/h (2 Bft) 100,00 %
11.03.2017 17:48 7,6 C 62 % 1020,6 hPa 0,0 l/m 4,4 km/h (1 Bft) O 91 0 min 0,000 mm 0,0 UV-I 14 W/m 0,8 C 7,6 C 6,4 km/h (2 Bft) 95,74 %
11.03.2017 17:50 7,6 C 63 % 1020,6 hPa 0,0 l/m 4,6 km/h (1 Bft) O 92 0 min 0,000 mm 0,0 UV-I 12 W/m 1,0 C 7,6 C 6,4 km/h (2 Bft) 93,62 %
11.03.2017 17:52 7,5 C 61 % 1020,6 hPa 0,0 l/m 5,3 km/h (1 Bft) O-SO 105 2 min 0,000 mm 0,0 UV-I 11 W/m 0,5 C 7,5 C 9,7 km/h (2 Bft) 100,00 %
11.03.2017 17:54 7,5 C 62 % 1020,6 hPa 0,0 l/m 4,0 km/h (1 Bft) O-SO 105 0 min 0,000 mm 0,0 UV-I 10 W/m 0,7 C 7,5 C 6,4 km/h (2 Bft) 97,87 %
11.03.2017 17:56 7,4 C 62 % 1020,6 hPa 0,0 l/m 2,9 km/h (1 Bft) O-SO 105 0 min 0,000 mm 0,0 UV-I 8 W/m 0,6 C 7,4 C 4,8 km/h (1 Bft) 91,49 %
11.03.2017 17:58 7,4 C 62 % 1020,6 hPa 0,0 l/m 3,4 km/h (1 Bft) O-SO 105 0 min 0,000 mm 0,0 UV-I 7 W/m 0,6 C 7,4 C 4,8 km/h (1 Bft) 94,87 %
11.03.2017 18:00 7,4 C 62 % 1020,6 hPa 0,0 l/m 2,3 km/h (1 Bft) O-SO 105 0 min 0,000 mm 0,0 UV-I 6 W/m 0,6 C 7,4 C 3,2 km/h (1 Bft) 100,00 %
11.03.2017 18:02 7,4 C 63 % 1020,6 hPa 0,0 l/m 0,9 km/h (0 Bft) O-SO 105 0 min 0,025 mm 0,0 UV-I 5 W/m 0,8 C 7,4 C 3,2 km/h (1 Bft) 96,43 %
11.03.2017 18:04 7,4 C 63 % 1020,6 hPa 0,0 l/m 1,5 km/h (1 Bft) O-SO 105 0 min 0,000 mm 0,0 UV-I 5 W/m 0,8 C 7,4 C 3,2 km/h (1 Bft) 96,77 %
11.03.2017 18:06 7,4 C 64 % 1020,6 hPa 0,0 l/m 2,0 km/h (1 Bft) O-SO 105 0 min 0,000 mm 0,0 UV-I 5 W/m 1,0 C 7,4 C 3,2 km/h (1 Bft) 100,00 %
11.03.2017 18:08 7,3 C 63 % 1020,6 hPa 0,0 l/m 1,7 km/h (1 Bft) O-SO 105 0 min 0,000 mm 0,0 UV-I 5 W/m 0,7 C 7,3 C 3,2 km/h (1 Bft) 100,00 %
11.03.2017 18:10 7,3 C 62 % 1020,7 hPa 0,0 l/m 0,9 km/h (0 Bft) O-SO 105 0 min 0,000 mm 0,0 UV-I 0 W/m 0,5 C 7,3 C 3,2 km/h (1 Bft) 94,00 %
11.03.2017 18:12 7,3 C 64 % 1020,7 hPa 0,0 l/m 0,8 km/h (0 Bft) O-SO 105 0 min 0,000 mm 0,0 UV-I 0 W/m 1,0 C 7,3 C 1,6 km/h (1 Bft) 98,00 %
11.03.2017 18:14 7,3 C 65 % 1020,6 hPa 0,0 l/m 2,8 km/h (1 Bft) O-SO 105 0 min 0,000 mm 0,0 UV-I 0 W/m 1,2 C 7,3 C 4,8 km/h (1 Bft) 100,00 %
11.03.2017 18:16 7,2 C 66 % 1020,6 hPa 0,0 l/m 3,1 km/h (1 Bft) O-SO 105 0 min 0,000 mm 0,0 UV-I 0 W/m 1,3 C 7,2 C 4,8 km/h (1 Bft) 94,34 %
11.03.2017 18:18 7,2 C 67 % 1020,6 hPa 0,0 l/m 2,8 km/h (1 Bft) O-SO 105 0 min 0,000 mm 0,0 UV-I 0 W/m 1,5 C 7,2 C 3,2 km/h (1 Bft) 97,37 %
11.03.2017 18:20 7,1 C 67 % 1020,7 hPa 0,0 l/m 2,5 km/h (1 Bft) O-SO 105 0 min 0,000 mm 0,0 UV-I 0 W/m 1,4 C 7,1 C 3,2 km/h (1 Bft) 98,00 %
11.03.2017 18:22 6,9 C 67 % 1020,7 hPa 0,0 l/m 2,6 km/h (1 Bft) O-SO 105 0 min 0,000 mm 0,0 UV-I 0 W/m 1,2 C 6,9 C 3,2 km/h (1 Bft) 98,00 %
11.03.2017 18:24 6,8 C 68 % 1020,7 hPa 0,0 l/m 3,1 km/h (1 Bft) O-SO 105 0 min 0,000 mm 0,0 UV-I 0 W/m 1,3 C 6,8 C 4,8 km/h (1 Bft) 94,00 %
11.03.2017 18:26 6,8 C 70 % 1020,7 hPa 0,0 l/m 3,5 km/h (1 Bft) O-SO 105 0 min 0,000 mm 0,0 UV-I 0 W/m 1,7 C 6,8 C 4,8 km/h (1 Bft) 94,29 %
11.03.2017 18:28 6,7 C 72 % 1020,7 hPa 0,0 l/m 3,2 km/h (1 Bft) O-SO 105 0 min 0,000 mm 0,0 UV-I 0 W/m 2,0 C 6,7 C 4,8 km/h (1 Bft) 98,11 %
11.03.2017 18:30 6,5 C 73 % 1020,6 hPa 0,0 l/m 3,1 km/h (1 Bft) O-SO 105 0 min 0,000 mm 0,0 UV-I 0 W/m 2,0 C 6,5 C 4,8 km/h (1 Bft) 94,00 %
11.03.2017 18:32 6,3 C 73 % 1020,7 hPa 0,0 l/m 3,5 km/h (1 Bft) O-SO 105 0 min 0,000 mm 0,0 UV-I 0 W/m 1,8 C 6,3 C 4,8 km/h (1 Bft) 93,62 %
11.03.2017 18:34 6,2 C 75 % 1020,7 hPa 0,0 l/m 3,6 km/h (1 Bft) O-SO 105 0 min 0,000 mm 0,0 UV-I 0 W/m 2,1 C 6,2 C 4,8 km/h (1 Bft) 95,74 %
11.03.2017 18:36 6,2 C 75 % 1020,7 hPa 0,0 l/m 4,1 km/h (1 Bft) O-SO 105 0 min 0,000 mm 0,0 UV-I 0 W/m 2,1 C 6,2 C 4,8 km/h (1 Bft) 94,00 %
11.03.2017 18:38 6,2 C 74 % 1020,6 hPa 0,0 l/m 4,3 km/h (1 Bft) O-SO 105 0 min 0,000 mm 0,0 UV-I 0 W/m 1,9 C 6,2 C 4,8 km/h (1 Bft) 90,48 %
11.03.2017 18:40 6,3 C 71 % 1020,6 hPa 0,0 l/m 4,5 km/h (1 Bft) O-SO 104 0 min 0,000 mm 0,0 UV-I 0 W/m 1,4 C 6,3 C 6,4 km/h (2 Bft) 98,00 %
11.03.2017 18:42 6,6 C 68 % 1020,6 hPa 0,0 l/m 4,9 km/h (1 Bft) O 91 0 min 0,000 mm 0,0 UV-I 0 W/m 1,1 C 6,6 C 6,4 km/h (2 Bft) 97,73 %
11.03.2017 18:44 6,8 C 67 % 1020,6 hPa 0,0 l/m 4,4 km/h (1 Bft) O 85 0 min 0,000 mm 0,0 UV-I 0 W/m 1,1 C 6,8 C 6,4 km/h (2 Bft) 90,00 %
11.03.2017 18:46 6,9 C 67 % 1020,6 hPa 0,0 l/m 4,9 km/h (1 Bft) O 82 0 min 0,000 mm 0,0 UV-I 0 W/m 1,2 C 6,9 C 6,4 km/h (2 Bft) 95,74 %
11.03.2017 18:48 6,9 C 67 % 1020,6 hPa 0,0 l/m 4,4 km/h (1 Bft) O 82 0 min 0,000 mm 0,0 UV-I 0 W/m 1,2 C 6,9 C 6,4 km/h (2 Bft) 97,37 %
11.03.2017 18:50 6,9 C 66 % 1020,7 hPa 0,0 l/m 5,1 km/h (1 Bft) O 82 0 min 0,000 mm 0,0 UV-I 0 W/m 1,0 C 6,9 C 6,4 km/h (2 Bft) 94,00 %
11.03.2017 18:52 7,0 C 66 % 1020,7 hPa 0,0 l/m 4,2 km/h (1 Bft) O 81 0 min 0,000 mm 0,0 UV-I 0 W/m 1,1 C 7,0 C 6,4 km/h (2 Bft) 89,36 %
11.03.2017 18:54 7,1 C 66 % 1020,7 hPa 0,0 l/m 3,0 km/h (1 Bft) O 81 0 min 0,000 mm 0,0 UV-I 0 W/m 1,2 C 7,1 C 4,8 km/h (1 Bft) 96,00 %
11.03.2017 18:56 7,0 C 67 % 1020,6 hPa 0,0 l/m 3,1 km/h (1 Bft) O 81 0 min 0,000 mm 0,0 UV-I 0 W/m 1,3 C 7,0 C 4,8 km/h (1 Bft) 97,37 %
11.03.2017 18:58 6,8 C 70 % 1020,6 hPa 0,0 l/m 1,2 km/h (1 Bft) O 81 0 min 0,000 mm 0,0 UV-I 0 W/m 1,7 C 6,8 C 3,2 km/h (1 Bft) 92,59 %
11.03.2017 19:00 6,7 C 72 % 1020,7 hPa 0,0 l/m 0,3 km/h (0 Bft) O 81 0 min 0,000 mm 0,0 UV-I 0 W/m 2,0 C 6,7 C 1,6 km/h (1 Bft) 95,12 %
11.03.2017 19:02 6,6 C 74 % 1020,7 hPa 0,0 l/m 1,5 km/h (1 Bft) O 81 0 min 0,026 mm 0,0 UV-I 0 W/m 2,3 C 6,6 C 3,2 km/h (1 Bft) 96,23 %
11.03.2017 19:04 6,3 C 76 % 1020,7 hPa 0,0 l/m 1,8 km/h (1 Bft) O 81 0 min 0,000 mm 0,0 UV-I 0 W/m 2,4 C 6,3 C 3,2 km/h (1 Bft) 93,62 %
11.03.2017 19:06 6,2 C 79 % 1020,8 hPa 0,0 l/m 2,6 km/h (1 Bft) O 81 0 min 0,000 mm 0,0 UV-I 0 W/m 2,8 C 6,2 C 4,8 km/h (1 Bft) 97,56 %
11.03.2017 19:08 6,1 C 79 % 1020,8 hPa 0,0 l/m 1,5 km/h (1 Bft) O 81 0 min 0,000 mm 0,0 UV-I 0 W/m 2,7 C 6,1 C 3,2 km/h (1 Bft) 100,00 %
11.03.2017 19:10 6,1 C 77 % 1020,8 hPa 0,0 l/m 1,1 km/h (1 Bft) O 81 0 min 0,000 mm 0,0 UV-I 0 W/m 2,4 C 6,1 C 1,6 km/h (1 Bft) 98,00 %
11.03.2017 19:12 6,2 C 78 % 1020,8 hPa 0,0 l/m 0,5 km/h (0 Bft) O 81 0 min 0,000 mm 0,0 UV-I 0 W/m 2,7 C 6,2 C 1,6 km/h (1 Bft) 87,80 %
11.03.2017 19:14 6,2 C 79 % 1020,8 hPa 0,0 l/m 0,0 km/h (0 Bft) O 81 0 min 0,000 mm 0,0 UV-I 0 W/m 2,8 C 6,2 C 0,0 km/h (0 Bft) 95,83 %
11.03.2017 19:16 6,2 C 78 % 1020,8 hPa 0,0 l/m 0,0 km/h (0 Bft) O 81 0 min 0,000 mm 0,0 UV-I 0 W/m 2,7 C 6,2 C 0,0 km/h (0 Bft) 100,00 %
11.03.2017 19:18 6,1 C 78 % 1020,8 hPa 0,0 l/m 0,1 km/h (0 Bft) O 81 0 min 0,000 mm 0,0 UV-I 0 W/m 2,6 C 6,1 C 1,6 km/h (1 Bft) 95,74 %
11.03.2017 19:20 6,0 C 79 % 1020,8 hPa 0,0 l/m 1,5 km/h (1 Bft) O 81 0 min 0,000 mm 0,0 UV-I 0 W/m 2,6 C 6,0 C 3,2 km/h (1 Bft) 94,00 %
11.03.2017 19:22 5,9 C 79 % 1020,8 hPa 0,0 l/m 2,7 km/h (1 Bft) O 81 0 min 0,000 mm 0,0 UV-I 0 W/m 2,5 C 5,9 C 4,8 km/h (1 Bft) 100,00 %
11.03.2017 19:24 5,9 C 80 % 1020,7 hPa 0,0 l/m 2,6 km/h (1 Bft) O 81 0 min 0,000 mm 0,0 UV-I 0 W/m 2,7 C 5,9 C 3,2 km/h (1 Bft) 94,34 %
11.03.2017 19:26 5,8 C 80 % 1020,7 hPa 0,0 l/m 2,7 km/h (1 Bft) O 81 0 min 0,000 mm 0,0 UV-I 0 W/m 2,6 C 5,8 C 4,8 km/h (1 Bft) 92,11 %
11.03.2017 19:28 5,7 C 80 % 1020,7 hPa 0,0 l/m 3,1 km/h (1 Bft) O 81 0 min 0,000 mm 0,0 UV-I 0 W/m 2,5 C 5,7 C 4,8 km/h (1 Bft) 98,00 %
11.03.2017 19:30 5,7 C 80 % 1020,7 hPa 0,0 l/m 3,7 km/h (1 Bft) O 81 0 min 0,000 mm 0,0 UV-I 0 W/m 2,5 C 5,7 C 4,8 km/h (1 Bft) 98,00 %
11.03.2017 19:32 5,7 C 79 % 1020,7 hPa 0,0 l/m 4,0 km/h (1 Bft) O 81 0 min 0,000 mm 0,0 UV-I 0 W/m 2,3 C 5,7 C 4,8 km/h (1 Bft) 95,74 %
11.03.2017 19:34 5,8 C 74 % 1020,6 hPa 0,0 l/m 2,5 km/h (1 Bft) O 81 0 min 0,000 mm 0,0 UV-I 0 W/m 1,5 C 5,8 C 3,2 km/h (1 Bft) 98,00 %
11.03.2017 19:36 6,1 C 72 % 1020,6 hPa 0,0 l/m 2,8 km/h (1 Bft) O 81 0 min 0,000 mm 0,0 UV-I 0 W/m 1,4 C 6,1 C 4,8 km/h (1 Bft) 97,87 %
11.03.2017 19:38 6,2 C 76 % 1020,6 hPa 0,0 l/m 0,6 km/h (0 Bft) O 81 0 min 0,000 mm 0,0 UV-I 0 W/m 2,3 C 6,2 C 3,2 km/h (1 Bft) 100,00 %
11.03.2017 19:40 6,2 C 76 % 1020,6 hPa 0,0 l/m 0,8 km/h (0 Bft) O 81 0 min 0,000 mm 0,0 UV-I 0 W/m 2,3 C 6,2 C 3,2 km/h (1 Bft) 97,06 %
11.03.2017 19:42 6,1 C 76 % 1020,5 hPa 0,0 l/m 1,3 km/h (1 Bft) O 81 0 min 0,000 mm 0,0 UV-I 0 W/m 2,2 C 6,1 C 3,2 km/h (1 Bft) 97,37 %
11.03.2017 19:44 6,0 C 77 % 1020,5 hPa 0,0 l/m 1,8 km/h (1 Bft) O 81 0 min 0,000 mm 0,0 UV-I 0 W/m 2,3 C 6,0 C 3,2 km/h (1 Bft) 98,21 %
11.03.2017 19:46 5,9 C 79 % 1020,4 hPa 0,0 l/m 2,5 km/h (1 Bft) O 81 0 min 0,000 mm 0,0 UV-I 0 W/m 2,5 C 5,9 C 3,2 km/h (1 Bft) 91,49 %
11.03.2017 19:48 5,8 C 81 % 1020,4 hPa 0,0 l/m 2,9 km/h (1 Bft) O 81 0 min 0,000 mm 0,0 UV-I 0 W/m 2,8 C 5,8 C 3,2 km/h (1 Bft) 97,37 %
11.03.2017 19:50 5,7 C 81 % 1020,5 hPa 0,0 l/m 2,8 km/h (1 Bft) O 81 0 min 0,000 mm 0,0 UV-I 0 W/m 2,7 C 5,7 C 4,8 km/h (1 Bft) 98,21 %
11.03.2017 19:52 5,8 C 76 % 1020,4 hPa 0,0 l/m 1,9 km/h (1 Bft) O 81 0 min 0,000 mm 0,0 UV-I 0 W/m 1,9 C 5,8 C 3,2 km/h (1 Bft) 97,44 %
11.03.2017 19:54 5,9 C 75 % 1020,4 hPa 0,0 l/m 2,1 km/h (1 Bft) O 81 0 min 0,000 mm 0,0 UV-I 0 W/m 1,8 C 5,9 C 3,2 km/h (1 Bft) 98,08 %
11.03.2017 19:56 5,9 C 77 % 1020,4 hPa 0,0 l/m 1,1 km/h (1 Bft) O 81 0 min 0,000 mm 0,0 UV-I 0 W/m 2,2 C 5,9 C 1,6 km/h (1 Bft) 100,00 %
11.03.2017 19:58 5,9 C 78 % 1020,4 hPa 0,0 l/m 0,5 km/h (0 Bft) O 81 0 min 0,000 mm 0,0 UV-I 0 W/m 2,4 C 5,9 C 1,6 km/h (1 Bft) 98,00 %
11.03.2017 20:00 5,8 C 78 % 1020,4 hPa 0,0 l/m 0,4 km/h (0 Bft) O 81 0 min 0,000 mm 0,0 UV-I 0 W/m 2,3 C 5,8 C 1,6 km/h (1 Bft) 100,00 %
11.03.2017 20:02 5,7 C 77 % 1020,3 hPa 0,0 l/m 0,1 km/h (0 Bft) O 81 0 min 0,000 mm 0,0 UV-I 0 W/m 2,0 C 5,7 C 1,6 km/h (1 Bft) 100,00 %
11.03.2017 20:04 5,7 C 78 % 1020,3 hPa 0,0 l/m 0,0 km/h (0 Bft) O 81 0 min 0,000 mm 0,0 UV-I 0 W/m 2,2 C 5,7 C 0,0 km/h (0 Bft) 95,45 %
11.03.2017 20:06 5,7 C 78 % 1020,4 hPa 0,0 l/m 0,0 km/h (0 Bft) O 81 0 min 0,000 mm 0,0 UV-I 0 W/m 2,2 C 5,7 C 0,0 km/h (0 Bft) 94,00 %
11.03.2017 20:08 5,7 C 77 % 1020,4 hPa 0,0 l/m 0,0 km/h (0 Bft) O 81 0 min 0,000 mm 0,0 UV-I 0 W/m 2,0 C 5,7 C 0,0 km/h (0 Bft) 100,00 %
11.03.2017 20:10 5,7 C 77 % 1020,4 hPa 0,0 l/m 0,0 km/h (0 Bft) O 81 0 min 0,000 mm 0,0 UV-I 0 W/m 2,0 C 5,7 C 0,0 km/h (0 Bft) 97,37 %
11.03.2017 20:12 5,6 C 78 % 1020,4 hPa 0,0 l/m 0,0 km/h (0 Bft) O 81 0 min 0,000 mm 0,0 UV-I 0 W/m 2,1 C 5,6 C 0,0 km/h (0 Bft) 98,11 %
11.03.2017 20:14 5,6 C 79 % 1020,4 hPa 0,0 l/m 0,0 km/h (0 Bft) O 81 0 min 0,000 mm 0,0 UV-I 0 W/m 2,3 C 5,6 C 0,0 km/h (0 Bft) 98,00 %
11.03.2017 20:16 5,6 C 79 % 1020,4 hPa 0,0 l/m 0,5 km/h (0 Bft) O 81 0 min 0,000 mm 0,0 UV-I 0 W/m 2,3 C 5,6 C 3,2 km/h (1 Bft) 96,00 %
11.03.2017 20:18 5,6 C 78 % 1020,4 hPa 0,0 l/m 2,2 km/h (1 Bft) O 81 0 min 0,000 mm 0,0 UV-I 0 W/m 2,1 C 5,6 C 3,2 km/h (1 Bft) 97,56 %
11.03.2017 20:20 5,6 C 77 % 1020,4 hPa 0,0 l/m 2,2 km/h (1 Bft) O 81 0 min 0,000 mm 0,0 UV-I 0 W/m 1,9 C 5,6 C 3,2 km/h (1 Bft) 98,11 %
11.03.2017 20:22 5,7 C 76 % 1020,5 hPa 0,0 l/m 2,0 km/h (1 Bft) O 81 0 min 0,000 mm 0,0 UV-I 0 W/m 1,8 C 5,7 C 3,2 km/h (1 Bft) 100,00 %
11.03.2017 20:24 5,7 C 75 % 1020,5 hPa 0,0 l/m 1,4 km/h (1 Bft) O 81 0 min 0,000 mm 0,0 UV-I 0 W/m 1,6 C 5,7 C 3,2 km/h (1 Bft) 96,00 %
11.03.2017 20:26 5,8 C 75 % 1020,5 hPa 0,0 l/m 1,4 km/h (1 Bft) O 81 0 min 0,000 mm 0,0 UV-I 0 W/m 1,7 C 5,8 C 3,2 km/h (1 Bft) 100,00 %
11.03.2017 20:28 5,8 C 75 % 1020,5 hPa 0,0 l/m 1,7 km/h (1 Bft) O 81 0 min 0,000 mm 0,0 UV-I 0 W/m 1,7 C 5,8 C 3,2 km/h (1 Bft) 100,00 %
11.03.2017 20:30 5,9 C 74 % 1020,4 hPa 0,0 l/m 1,8 km/h (1 Bft) O 81 0 min 0,000 mm 0,0 UV-I 0 W/m 1,6 C 5,9 C 3,2 km/h (1 Bft) 100,00 %
11.03.2017 20:32 5,8 C 74 % 1020,4 hPa 0,0 l/m 2,6 km/h (1 Bft) O 81 0 min 0,000 mm 0,0 UV-I 0 W/m 1,5 C 5,8 C 3,2 km/h (1 Bft) 97,87 %
11.03.2017 20:34 5,8 C 75 % 1020,4 hPa 0,0 l/m 3,0 km/h (1 Bft) O 81 0 min 0,000 mm 0,0 UV-I 0 W/m 1,7 C 5,8 C 4,8 km/h (1 Bft) 98,00 %
11.03.2017 20:36 5,8 C 75 % 1020,5 hPa 0,0 l/m 2,9 km/h (1 Bft) O 81 0 min 0,000 mm 0,0 UV-I 0 W/m 1,7 C 5,8 C 3,2 km/h (1 Bft) 100,00 %
11.03.2017 20:38 5,8 C 74 % 1020,5 hPa 0,0 l/m 2,0 km/h (1 Bft) O 81 0 min 0,000 mm 0,0 UV-I 0 W/m 1,5 C 5,8 C 3,2 km/h (1 Bft) 95,74 %
11.03.2017 20:40 5,9 C 74 % 1020,4 hPa 0,0 l/m 1,9 km/h (1 Bft) O 81 0 min 0,000 mm 0,0 UV-I 0 W/m 1,6 C 5,9 C 3,2 km/h (1 Bft) 94,34 %
11.03.2017 20:42 6,0 C 73 % 1020,5 hPa 0,0 l/m 1,6 km/h (1 Bft) O 81 0 min 0,000 mm 0,0 UV-I 0 W/m 1,5 C 6,0 C 3,2 km/h (1 Bft) 95,12 %
11.03.2017 20:44 6,1 C 73 % 1020,5 hPa 0,0 l/m 1,2 km/h (1 Bft) O 81 0 min 0,000 mm 0,0 UV-I 0 W/m 1,6 C 6,1 C 1,6 km/h (1 Bft) 94,64 %
11.03.2017 20:46 6,1 C 73 % 1020,5 hPa 0,0 l/m 1,7 km/h (1 Bft) O 81 0 min 0,000 mm 0,0 UV-I 0 W/m 1,6 C 6,1 C 3,2 km/h (1 Bft) 92,11 %
11.03.2017 20:48 6,1 C 73 % 1020,5 hPa 0,0 l/m 2,4 km/h (1 Bft) O 81 0 min 0,000 mm 0,0 UV-I 0 W/m 1,6 C 6,1 C 3,2 km/h (1 Bft) 94,00 %
11.03.2017 20:50 6,1 C 74 % 1020,5 hPa 0,0 l/m 3,1 km/h (1 Bft) O 81 0 min 0,000 mm 0,0 UV-I 0 W/m 1,8 C 6,1 C 4,8 km/h (1 Bft) 94,00 %
11.03.2017 20:52 6,1 C 74 % 1020,5 hPa 0,0 l/m 3,1 km/h (1 Bft) O 81 0 min 0,000 mm 0,0 UV-I 0 W/m 1,8 C 6,1 C 3,2 km/h (1 Bft) 94,34 %
11.03.2017 20:54 6,0 C 76 % 1020,5 hPa 0,0 l/m 3,3 km/h (1 Bft) O 81 0 min 0,000 mm 0,0 UV-I 0 W/m 2,1 C 6,0 C 4,8 km/h (1 Bft) 92,68 %
11.03.2017 20:56 5,9 C 76 % 1020,4 hPa 0,0 l/m 2,7 km/h (1 Bft) O 81 0 min 0,000 mm 0,0 UV-I 0 W/m 2,0 C 5,9 C 3,2 km/h (1 Bft) 94,00 %
11.03.2017 20:58 5,8 C 77 % 1020,4 hPa 0,0 l/m 2,3 km/h (1 Bft) O 81 0 min 0,000 mm 0,0 UV-I 0 W/m 2,1 C 5,8 C 3,2 km/h (1 Bft) 92,11 %
11.03.2017 21:00 5,8 C 77 % 1020,4 hPa 0,0 l/m 2,5 km/h (1 Bft) O 81 0 min 0,000 mm 0,0 UV-I 0 W/m 2,1 C 5,8 C 3,2 km/h (1 Bft) 94,00 %
11.03.2017 21:02 5,8 C 78 % 1020,4 hPa 0,0 l/m 2,0 km/h (1 Bft) O 81 0 min 0,000 mm 0,0 UV-I 0 W/m 2,3 C 5,8 C 3,2 km/h (1 Bft) 94,00 %
11.03.2017 21:04 5,7 C 78 % 1020,4 hPa 0,0 l/m 2,0 km/h (1 Bft) O 81 0 min 0,000 mm 0,0 UV-I 0 W/m 2,2 C 5,7 C 3,2 km/h (1 Bft) 95,74 %
11.03.2017 21:06 5,6 C 78 % 1020,4 hPa 0,0 l/m 3,7 km/h (1 Bft) O 81 0 min 0,000 mm 0,0 UV-I 0 W/m 2,1 C 5,6 C 4,8 km/h (1 Bft) 95,12 %
11.03.2017 21:08 5,6 C 78 % 1020,5 hPa 0,0 l/m 3,7 km/h (1 Bft) O 81 0 min 0,000 mm 0,0 UV-I 0 W/m 2,1 C 5,6 C 4,8 km/h (1 Bft) 92,45 %
11.03.2017 21:10 5,6 C 78 % 1020,4 hPa 0,0 l/m 5,1 km/h (1 Bft) NO 47 0 min 0,000 mm 0,0 UV-I 0 W/m 2,1 C 5,6 C 8,0 km/h (2 Bft) 94,00 %
11.03.2017 21:12 5,7 C 78 % 1020,5 hPa 0,0 l/m 5,0 km/h (1 Bft) NO 47 0 min 0,000 mm 0,0 UV-I 0 W/m 2,2 C 5,7 C 6,4 km/h (2 Bft) 93,62 %
11.03.2017 21:14 5,7 C 78 % 1020,5 hPa 0,0 l/m 4,1 km/h (1 Bft) NO 47 0 min 0,000 mm 0,0 UV-I 0 W/m 2,2 C 5,7 C 6,4 km/h (2 Bft) 94,74 %
11.03.2017 21:16 5,6 C 79 % 1020,5 hPa 0,0 l/m 4,6 km/h (1 Bft) NO 47 0 min 0,000 mm 0,0 UV-I 0 W/m 2,3 C 5,6 C 6,4 km/h (2 Bft) 96,23 %
11.03.2017 21:18 5,6 C 80 % 1020,4 hPa 0,0 l/m 4,2 km/h (1 Bft) NO 47 0 min 0,000 mm 0,0 UV-I 0 W/m 2,4 C 5,6 C 6,4 km/h (2 Bft) 92,00 %
11.03.2017 21:20 5,6 C 80 % 1020,5 hPa 0,0 l/m 4,3 km/h (1 Bft) NO 47 0 min 0,000 mm 0,0 UV-I 0 W/m 2,4 C 5,6 C 6,4 km/h (2 Bft) 94,74 %
11.03.2017 21:22 5,5 C 80 % 1020,4 hPa 0,0 l/m 3,5 km/h (1 Bft) NO 47 0 min 0,000 mm 0,0 UV-I 0 W/m 2,3 C 5,5 C 4,8 km/h (1 Bft) 88,00 %
11.03.2017 21:24 5,5 C 80 % 1020,5 hPa 0,0 l/m 3,3 km/h (1 Bft) NO 47 0 min 0,000 mm 0,0 UV-I 0 W/m 2,3 C 5,5 C 4,8 km/h (1 Bft) 92,45 %
11.03.2017 21:26 5,4 C 80 % 1020,5 hPa 0,0 l/m 3,8 km/h (1 Bft) NO 47 0 min 0,000 mm 0,0 UV-I 0 W/m 2,2 C 5,4 C 4,8 km/h (1 Bft) 97,56 %
11.03.2017 21:28 5,4 C 80 % 1020,5 hPa 0,0 l/m 5,0 km/h (1 Bft) NO 46 0 min 0,000 mm 0,0 UV-I 0 W/m 2,2 C 5,4 C 6,4 km/h (2 Bft) 96,00 %
11.03.2017 21:30 5,3 C 80 % 1020,5 hPa 0,0 l/m 4,2 km/h (1 Bft) NO 43 0 min 0,000 mm 0,0 UV-I 0 W/m 2,1 C 5,3 C 6,4 km/h (2 Bft) 97,56 %
11.03.2017 21:32 5,3 C 80 % 1020,5 hPa 0,0 l/m 4,9 km/h (1 Bft) NO 40 0 min 0,000 mm 0,0 UV-I 0 W/m 2,1 C 5,3 C 6,4 km/h (2 Bft) 95,74 %
11.03.2017 21:34 5,3 C 80 % 1020,5 hPa 0,0 l/m 4,9 km/h (1 Bft) NO 38 0 min 0,000 mm 0,0 UV-I 0 W/m 2,1 C 5,3 C 6,4 km/h (2 Bft) 96,00 %
11.03.2017 21:36 5,3 C 79 % 1020,6 hPa 0,0 l/m 5,1 km/h (1 Bft) NO 36 0 min 0,000 mm 0,0 UV-I 0 W/m 2,0 C 5,3 C 6,4 km/h (2 Bft) 94,74 %
11.03.2017 21:38 5,3 C 79 % 1020,6 hPa 0,0 l/m 4,9 km/h (1 Bft) NO 35 0 min 0,000 mm 0,0 UV-I 0 W/m 2,0 C 5,3 C 6,4 km/h (2 Bft) 96,00 %
11.03.2017 21:40 5,3 C 79 % 1020,6 hPa 0,0 l/m 4,4 km/h (1 Bft) N-NO 32 0 min 0,000 mm 0,0 UV-I 0 W/m 2,0 C 5,3 C 6,4 km/h (2 Bft) 97,87 %
11.03.2017 21:42 5,2 C 80 % 1020,6 hPa 0,0 l/m 4,7 km/h (1 Bft) N-NO 32 0 min 0,000 mm 0,0 UV-I 0 W/m 2,0 C 5,2 C 6,4 km/h (2 Bft) 96,43 %
11.03.2017 21:44 5,2 C 80 % 1020,6 hPa 0,0 l/m 3,9 km/h (1 Bft) N-NO 32 0 min 0,000 mm 0,0 UV-I 0 W/m 2,0 C 5,2 C 4,8 km/h (1 Bft) 95,45 %
11.03.2017 21:46 5,2 C 79 % 1020,6 hPa 0,0 l/m 4,2 km/h (1 Bft) N-NO 32 0 min 0,000 mm 0,0 UV-I 0 W/m 1,9 C 5,2 C 6,4 km/h (2 Bft) 100,00 %
11.03.2017 21:48 5,2 C 79 % 1020,6 hPa 0,0 l/m 4,6 km/h (1 Bft) N-NO 32 0 min 0,000 mm 0,0 UV-I 0 W/m 1,9 C 5,2 C 6,4 km/h (2 Bft) 95,12 %
11.03.2017 21:50 5,2 C 79 % 1020,6 hPa 0,0 l/m 4,6 km/h (1 Bft) N-NO 31 0 min 0,000 mm 0,0 UV-I 0 W/m 1,9 C 5,2 C 6,4 km/h (2 Bft) 97,92 %
11.03.2017 21:52 5,1 C 79 % 1020,6 hPa 0,0 l/m 4,1 km/h (1 Bft) N-NO 15 0 min 0,000 mm 0,0 UV-I 0 W/m 1,8 C 5,1 C 6,4 km/h (2 Bft) 94,23 %
11.03.2017 21:54 5,1 C 79 % 1020,6 hPa 0,0 l/m 3,0 km/h (1 Bft) N-NO 15 0 min 0,000 mm 0,0 UV-I 0 W/m 1,8 C 5,1 C 4,8 km/h (1 Bft) 100,00 %
11.03.2017 21:56 5,1 C 78 % 1020,6 hPa 0,0 l/m 3,2 km/h (1 Bft) N-NO 15 0 min 0,000 mm 0,0 UV-I 0 W/m 1,6 C 5,1 C 6,4 km/h (2 Bft) 97,56 %
11.03.2017 21:58 5,1 C 79 % 1020,5 hPa 0,0 l/m 2,5 km/h (1 Bft) N-NO 15 0 min 0,000 mm 0,0 UV-I 0 W/m 1,8 C 5,1 C 4,8 km/h (1 Bft) 100,00 %
11.03.2017 22:00 4,9 C 80 % 1020,5 hPa 0,0 l/m 2,2 km/h (1 Bft) N-NO 15 0 min 0,000 mm 0,0 UV-I 0 W/m 1,7 C 4,9 C 4,8 km/h (1 Bft) 96,92 %
11.03.2017 22:02 4,7 C 80 % 1020,5 hPa 0,0 l/m 2,4 km/h (1 Bft) N-NO 15 0 min 0,000 mm 0,0 UV-I 0 W/m 1,6 C 4,7 C 4,8 km/h (1 Bft) 97,87 %
11.03.2017 22:04 4,7 C 80 % 1020,5 hPa 0,0 l/m 2,3 km/h (1 Bft) N-NO 15 0 min 0,000 mm 0,0 UV-I 0 W/m 1,6 C 4,7 C 3,2 km/h (1 Bft) 100,00 %
11.03.2017 22:06 4,5 C 81 % 1020,5 hPa 0,0 l/m 2,6 km/h (1 Bft) N-NO 15 0 min 0,000 mm 0,0 UV-I 0 W/m 1,5 C 4,5 C 3,2 km/h (1 Bft) 95,45 %
11.03.2017 22:08 4,4 C 81 % 1020,6 hPa 0,0 l/m 2,8 km/h (1 Bft) N-NO 15 0 min 0,000 mm 0,0 UV-I 0 W/m 1,4 C 4,4 C 3,2 km/h (1 Bft) 98,28 %
11.03.2017 22:10 4,4 C 81 % 1020,6 hPa 0,0 l/m 2,6 km/h (1 Bft) N-NO 15 0 min 0,000 mm 0,0 UV-I 0 W/m 1,4 C 4,4 C 3,2 km/h (1 Bft) 100,00 %
11.03.2017 22:12 4,5 C 81 % 1020,6 hPa 0,0 l/m 2,4 km/h (1 Bft) N-NO 15 0 min 0,000 mm 0,0 UV-I 0 W/m 1,5 C 4,5 C 3,2 km/h (1 Bft) 100,00 %
11.03.2017 22:14 4,5 C 81 % 1020,6 hPa 0,0 l/m 1,6 km/h (1 Bft) N-NO 15 0 min 0,000 mm 0,0 UV-I 0 W/m 1,5 C 4,5 C 3,2 km/h (1 Bft) 97,87 %
11.03.2017 22:16 4,5 C 81 % 1020,6 hPa 0,0 l/m 1,8 km/h (1 Bft) N-NO 15 0 min 0,000 mm 0,0 UV-I 0 W/m 1,5 C 4,5 C 3,2 km/h (1 Bft) 98,00 %
11.03.2017 22:18 4,4 C 81 % 1020,6 hPa 0,0 l/m 1,6 km/h (1 Bft) N-NO 15 0 min 0,000 mm 0,0 UV-I 0 W/m 1,4 C 4,4 C 3,2 km/h (1 Bft) 98,00 %
11.03.2017 22:20 4,4 C 81 % 1020,6 hPa 0,0 l/m 1,1 km/h (1 Bft) N-NO 15 0 min 0,000 mm 0,0 UV-I 0 W/m 1,4 C 4,4 C 1,6 km/h (1 Bft) 97,56 %
11.03.2017 22:22 4,4 C 81 % 1020,7 hPa 0,0 l/m 1,4 km/h (1 Bft) N-NO 15 0 min 0,000 mm 0,0 UV-I 0 W/m 1,4 C 4,4 C 3,2 km/h (1 Bft) 100,00 %
11.03.2017 22:24 4,3 C 81 % 1020,7 hPa 0,0 l/m 1,1 km/h (1 Bft) N-NO 15 0 min 0,000 mm 0,0 UV-I 0 W/m 1,3 C 4,3 C 3,2 km/h (1 Bft) 100,00 %
11.03.2017 22:26 4,3 C 81 % 1020,7 hPa 0,0 l/m 1,4 km/h (1 Bft) N-NO 15 0 min 0,000 mm 0,0 UV-I 0 W/m 1,3 C 4,3 C 1,6 km/h (1 Bft) 98,00 %
11.03.2017 22:28 4,3 C 81 % 1020,7 hPa 0,0 l/m 0,5 km/h (0 Bft) N-NO 15 0 min 0,000 mm 0,0 UV-I 0 W/m 1,3 C 4,3 C 1,6 km/h (1 Bft) 100,00 %
11.03.2017 22:30 4,2 C 81 % 1020,7 hPa 0,0 l/m 0,0 km/h (0 Bft) N-NO 15 0 min 0,000 mm 0,0 UV-I 0 W/m 1,2 C 4,2 C 0,0 km/h (0 Bft) 100,00 %
11.03.2017 22:32 4,2 C 81 % 1020,7 hPa 0,0 l/m 0,1 km/h (0 Bft) N-NO 15 0 min 0,000 mm 0,0 UV-I 0 W/m 1,2 C 4,2 C 1,6 km/h (1 Bft) 100,00 %
11.03.2017 22:34 4,1 C 81 % 1020,7 hPa 0,0 l/m 0,0 km/h (0 Bft) N-NO 15 0 min 0,000 mm 0,0 UV-I 0 W/m 1,1 C 4,1 C 0,0 km/h (0 Bft) 98,00 %
11.03.2017 22:36 4,1 C 81 % 1020,7 hPa 0,0 l/m 1,6 km/h (1 Bft) N-NO 15 0 min 0,000 mm 0,0 UV-I 0 W/m 1,1 C 4,1 C 3,2 km/h (1 Bft) 97,37 %
11.03.2017 22:38 4,1 C 81 % 1020,7 hPa 0,0 l/m 1,4 km/h (1 Bft) N-NO 15 0 min 0,000 mm 0,0 UV-I 0 W/m 1,1 C 4,1 C 3,2 km/h (1 Bft) 97,56 %
11.03.2017 22:40 4,1 C 80 % 1020,7 hPa 0,0 l/m 1,6 km/h (1 Bft) N-NO 15 0 min 0,000 mm 0,0 UV-I 0 W/m 1,0 C 4,1 C 3,2 km/h (1 Bft) 100,00 %
11.03.2017 22:42 4,1 C 81 % 1020,6 hPa 0,0 l/m 2,6 km/h (1 Bft) N-NO 15 0 min 0,000 mm 0,0 UV-I 0 W/m 1,1 C 4,1 C 4,8 km/h (1 Bft) 97,87 %
11.03.2017 22:44 4,1 C 80 % 1020,6 hPa 0,0 l/m 3,0 km/h (1 Bft) N-NO 15 0 min 0,000 mm 0,0 UV-I 0 W/m 1,0 C 4,1 C 4,8 km/h (1 Bft) 97,56 %
11.03.2017 22:46 4,1 C 80 % 1020,6 hPa 0,0 l/m 3,4 km/h (1 Bft) N-NO 15 0 min 0,000 mm 0,0 UV-I 0 W/m 1,0 C 4,1 C 4,8 km/h (1 Bft) 100,00 %
11.03.2017 22:48 4,1 C 80 % 1020,6 hPa 0,0 l/m 3,5 km/h (1 Bft) N-NO 17 0 min 0,000 mm 0,0 UV-I 0 W/m 1,0 C 4,1 C 4,8 km/h (1 Bft) 100,00 %
11.03.2017 22:50 4,1 C 80 % 1020,6 hPa 0,0 l/m 2,9 km/h (1 Bft) N-NO 17 0 min 0,000 mm 0,0 UV-I 0 W/m 1,0 C 4,1 C 4,8 km/h (1 Bft) 96,23 %
11.03.2017 22:52 4,0 C 80 % 1020,6 hPa 0,0 l/m 1,8 km/h (1 Bft) N-NO 17 0 min 0,000 mm 0,0 UV-I 0 W/m 0,9 C 4,0 C 3,2 km/h (1 Bft) 100,00 %
11.03.2017 22:54 4,0 C 80 % 1020,6 hPa 0,0 l/m 2,7 km/h (1 Bft) N-NO 17 0 min 0,000 mm 0,0 UV-I 0 W/m 0,9 C 4,0 C 4,8 km/h (1 Bft) 97,87 %
11.03.2017 22:56 4,0 C 80 % 1020,6 hPa 0,0 l/m 1,7 km/h (1 Bft) N-NO 17 0 min 0,000 mm 0,0 UV-I 0 W/m 0,9 C 4,0 C 3,2 km/h (1 Bft) 100,00 %
11.03.2017 22:58 3,9 C 80 % 1020,7 hPa 0,0 l/m 2,6 km/h (1 Bft) N-NO 17 0 min 0,000 mm 0,0 UV-I 0 W/m 0,8 C 3,9 C 3,2 km/h (1 Bft) 97,87 %
11.03.2017 23:00 3,8 C 81 % 1020,7 hPa 0,0 l/m 3,1 km/h (1 Bft) N-NO 18 0 min 0,000 mm 0,0 UV-I 0 W/m 0,8 C 3,8 C 4,8 km/h (1 Bft) 100,00 %
11.03.2017 23:03 3,7 C 81 % 1020,6 hPa 0,0 l/m 2,8 km/h (1 Bft) O-NO 59 0 min 0,000 mm 0,0 UV-I 0 W/m 0,7 C 3,7 C 4,8 km/h (1 Bft) 95,77 %
11.03.2017 23:04 3,7 C 81 % 1020,6 hPa 0,0 l/m 3,0 km/h (1 Bft) O-NO 59 0 min 0,000 mm 0,0 UV-I 0 W/m 0,7 C 3,7 C 4,8 km/h (1 Bft) 92,86 %
11.03.2017 23:06 3,6 C 81 % 1020,6 hPa 0,0 l/m 2,4 km/h (1 Bft) O-NO 59 0 min 0,000 mm 0,0 UV-I 0 W/m 0,7 C 3,6 C 3,2 km/h (1 Bft) 94,34 %
11.03.2017 23:08 3,4 C 82 % 1020,5 hPa 0,0 l/m 2,3 km/h (1 Bft) O-NO 59 0 min 0,000 mm 0,0 UV-I 0 W/m 0,6 C 3,4 C 3,2 km/h (1 Bft) 97,62 %
11.03.2017 23:10 3,3 C 82 % 1020,5 hPa 0,0 l/m 2,5 km/h (1 Bft) O-NO 59 0 min 0,000 mm 0,0 UV-I 0 W/m 0,5 C 3,3 C 4,8 km/h (1 Bft) 98,08 %
11.03.2017 23:12 3,3 C 83 % 1020,5 hPa 0,0 l/m 3,3 km/h (1 Bft) O-NO 59 0 min 0,000 mm 0,0 UV-I 0 W/m 0,7 C 3,3 C 4,8 km/h (1 Bft) 93,62 %
11.03.2017 23:14 3,2 C 83 % 1020,5 hPa 0,0 l/m 3,1 km/h (1 Bft) O-NO 59 0 min 0,000 mm 0,0 UV-I 0 W/m 0,6 C 3,2 C 4,8 km/h (1 Bft) 95,83 %
11.03.2017 23:16 3,3 C 83 % 1020,5 hPa 0,0 l/m 2,8 km/h (1 Bft) O-NO 59 0 min 0,000 mm 0,0 UV-I 0 W/m 0,7 C 3,3 C 6,4 km/h (2 Bft) 96,00 %
11.03.2017 23:18 3,2 C 82 % 1020,5 hPa 0,0 l/m 2,8 km/h (1 Bft) O-NO 59 0 min 0,000 mm 0,0 UV-I 0 W/m 0,4 C 3,2 C 4,8 km/h (1 Bft) 97,56 %
11.03.2017 23:20 3,2 C 83 % 1020,5 hPa 0,0 l/m 0,5 km/h (0 Bft) O-NO 59 0 min 0,000 mm 0,0 UV-I 0 W/m 0,6 C 3,2 C 1,6 km/h (1 Bft) 95,74 %
11.03.2017 23:22 3,2 C 82 % 1020,4 hPa 0,0 l/m 0,0 km/h (0 Bft) O-NO 59 0 min 0,000 mm 0,0 UV-I 0 W/m 0,4 C 3,2 C 1,6 km/h (1 Bft) 95,74 %
11.03.2017 23:24 3,2 C 82 % 1020,4 hPa 0,0 l/m 0,5 km/h (0 Bft) O-NO 59 0 min 0,000 mm 0,0 UV-I 0 W/m 0,4 C 3,2 C 3,2 km/h (1 Bft) 98,11 %
11.03.2017 23:26 3,2 C 82 % 1020,4 hPa 0,0 l/m 1,7 km/h (1 Bft) O-NO 59 0 min 0,000 mm 0,0 UV-I 0 W/m 0,4 C 3,2 C 3,2 km/h (1 Bft) 94,74 %
11.03.2017 23:28 3,2 C 82 % 1020,4 hPa 0,0 l/m 3,0 km/h (1 Bft) O-NO 59 0 min 0,000 mm 0,0 UV-I 0 W/m 0,4 C 3,2 C 4,8 km/h (1 Bft) 97,87 %
11.03.2017 23:30 3,3 C 82 % 1020,4 hPa 0,0 l/m 2,5 km/h (1 Bft) O-NO 59 0 min 0,000 mm 0,0 UV-I 0 W/m 0,5 C 3,3 C 3,2 km/h (1 Bft) 96,00 %
11.03.2017 23:32 3,3 C 82 % 1020,4 hPa 0,0 l/m 1,4 km/h (1 Bft) O-NO 59 0 min 0,000 mm 0,0 UV-I 0 W/m 0,5 C 3,3 C 3,2 km/h (1 Bft) 95,12 %
11.03.2017 23:34 3,4 C 82 % 1020,4 hPa 0,0 l/m 1,3 km/h (1 Bft) O-NO 59 0 min 0,000 mm 0,0 UV-I 0 W/m 0,6 C 3,4 C 3,2 km/h (1 Bft) 94,00 %
11.03.2017 23:36 3,5 C 82 % 1020,3 hPa 0,0 l/m 2,9 km/h (1 Bft) O-NO 61 0 min 0,000 mm 0,0 UV-I 0 W/m 0,7 C 3,5 C 6,4 km/h (2 Bft) 96,23 %
11.03.2017 23:38 3,6 C 82 % 1020,3 hPa 0,0 l/m 5,7 km/h (1 Bft) O-NO 76 0 min 0,000 mm 0,0 UV-I 0 W/m 0,8 C 3,6 C 8,0 km/h (2 Bft) 97,37 %
11.03.2017 23:40 3,6 C 82 % 1020,3 hPa 0,0 l/m 4,3 km/h (1 Bft) O-NO 69 0 min 0,000 mm 0,0 UV-I 0 W/m 0,8 C 3,6 C 6,4 km/h (2 Bft) 96,00 %
11.03.2017 23:42 3,7 C 81 % 1020,3 hPa 0,0 l/m 4,3 km/h (1 Bft) O-NO 67 0 min 0,000 mm 0,0 UV-I 0 W/m 0,7 C 3,7 C 4,8 km/h (1 Bft) 95,45 %
11.03.2017 23:44 3,7 C 81 % 1020,3 hPa 0,0 l/m 3,9 km/h (1 Bft) O-NO 67 0 min 0,000 mm 0,0 UV-I 0 W/m 0,7 C 3,7 C 6,4 km/h (2 Bft) 96,00 %
11.03.2017 23:46 3,7 C 82 % 1020,3 hPa 0,0 l/m 4,9 km/h (1 Bft) O-NO 64 0 min 0,000 mm 0,0 UV-I 0 W/m 0,9 C 3,7 C 6,4 km/h (2 Bft) 100,00 %
11.03.2017 23:48 3,6 C 82 % 1020,3 hPa 0,0 l/m 5,1 km/h (1 Bft) O-NO 67 0 min 0,000 mm 0,0 UV-I 0 W/m 0,8 C 3,6 C 6,4 km/h (2 Bft) 100,00 %
11.03.2017 23:50 3,5 C 82 % 1020,3 hPa 0,0 l/m 4,6 km/h (1 Bft) O-NO 71 0 min 0,000 mm 0,0 UV-I 0 W/m 0,7 C 3,5 C 9,7 km/h (2 Bft) 96,55 %
11.03.2017 23:52 3,3 C 82 % 1020,3 hPa 0,0 l/m 3,1 km/h (1 Bft) O-NO 71 0 min 0,000 mm 0,0 UV-I 0 W/m 0,5 C 3,3 C 6,4 km/h (2 Bft) 100,00 %
11.03.2017 23:54 3,2 C 83 % 1020,3 hPa 0,0 l/m 3,7 km/h (1 Bft) O-NO 74 0 min 0,000 mm 0,0 UV-I 0 W/m 0,6 C 3,2 C 4,8 km/h (1 Bft) 97,37 %
11.03.2017 23:56 3,1 C 83 % 1020,2 hPa 0,0 l/m 4,0 km/h (1 Bft) O-NO 66 0 min 0,000 mm 0,0 UV-I 0 W/m 0,5 C 3,1 C 8,0 km/h (2 Bft) 100,00 %
11.03.2017 23:58 3,1 C 83 % 1020,2 hPa 0,0 l/m 4,0 km/h (1 Bft) O-NO 73 0 min 0,000 mm 0,0 UV-I 0 W/m 0,5 C 3,1 C 6,4 km/h (2 Bft) 98,11 %
_ Min-Zeit 06:34 14:34 23:56 - 10:34 - - - - - - 14:34 01:10 10:34 12:28
Minimum _ -0,1 C 44 % 1020,2 hPa - 0,0 km/h (0 Bft) - - - - - - -2,8 C -0,4 C 0,0 km/h (0 Bft) 86,84 %
_ Max-Zeit 13:28 06:42 01:28 00:00 15:34 - - 08:19 12:00 12:13 13:46 10:46 13:28 01:14 01:40
Maximum _ 9,7 C 93 % 1026,5 hPa 0,0 l/m 11,3 km/h
N-NO (2 Bft)
- - 3 min 0,305 mm 2,3 UV-I 705 W/m 2,9 C 9,7 C 16,1 km/h
W-SW (3 Bft)
100,00 %
Durchschnitt _ 5,0 C 74 % 1023,4 hPa #0,0 l/m 3,3 km/h (1 Bft) S-SW - #8:52 h #1,956 mm 1,5 UV-I 352 W/m 0,4 C 4,9 C 5,8 km/h (2 Bft) 96,38 %